[[{"header":{"parameterUnit":"m.s-1","parameterCategory":1,"la1":31.0,"la2":29.5877,"lo1":-88.7671,"lo2":-86.6584,"dy":0.0162,"dx":0.0185,"nx":115,"ny":88,"refTime":"2023-05-04T00:00:00:Z","depth":0,"parameterNumber":2,"parameterNumberName":"U-component_of_WINDS"},"data":[0.0,0.0,0.0,0.0,0.0,0.0,0.0,0.0,0.0,0.0,0.0,0.0,0.0,0.0,0.0,0.0,0.0,0.0,0.0,0.0,0.0,0.0,0.0,0.0,0.0,0.0,0.0,0.0,0.0,0.0,0.0,0.0,0.0,0.0,0.0,0.0,0.0,0.0,0.0,0.0,0.0,0.0,0.0,0.0,0.0,0.0,0.0,0.0,0.0,0.0,0.0,0.0,0.0,0.0,0.0,0.0,0.0,0.0,0.0,0.0,0.0,0.0,0.0,0.0,0.0,0.0,0.0,0.0,0.0,0.0,0.0,0.0,0.0,0.0,0.0,0.0,0.0,0.0,0.0,0.0,0.0,0.0,0.0,0.0,0.0,0.0,0.0,0.0,0.0,0.0,0.0,0.0,0.0,0.0,0.0,0.0,0.0,0.0,0.0,0.0,0.0,0.0,0.0,0.0,0.0,0.0,0.0,0.0,0.0,0.0,0.0,0.0,0.0,0.0,0.0,0.0,0.0,0.0,0.0,0.0,0.0,0.0,0.0,0.0,0.0,0.0,0.0,0.0,0.0,0.0,0.0,0.0,0.0,0.0,0.0,0.0,0.0,0.0,0.0,0.0,0.0,0.0,0.0,0.0,0.0,0.0,0.0,0.0,0.0,0.0,0.0,0.0,0.0,0.0,0.0,0.0,0.0,0.0,0.0,0.0,0.0,0.0,0.0,0.0,0.0,0.0,0.0,0.0,0.0,0.0,0.0,0.0,0.0,0.0,0.0,0.0,0.0,0.0,0.0,0.0,0.0,0.0,0.0,0.0,0.0,0.0,0.0,0.0,0.0,0.0,0.0,0.0,0.0,0.0,0.0,0.0,0.0,0.0,0.0,0.0,0.0,0.0,0.0,0.0,0.0,0.0,0.0,0.0,0.0,0.0,0.0,0.0,0.0,0.0,0.0,0.0,0.0,0.0,0.0,0.0,0.0,0.0,0.0,0.0,0.0,0.0,0.0,0.0,0.0,0.0,0.0,0.0,0.0,0.0,0.0,0.0,0.0,0.0,0.0,0.0,0.0,0.0,0.0,0.0,0.0,0.0,0.0,0.0,0.0,0.0,0.0,0.0,0.0,0.0,0.0,0.0,0.0,0.0,0.0,0.0,0.0,0.0,0.0,0.0,0.0,0.0,0.0,0.0,0.0,0.0,0.0,0.0,0.0,0.0,0.0,0.0,0.0,0.0,0.0,0.0,0.0,0.0,0.0,0.0,0.0,0.0,0.0,0.0,0.0,0.0,0.0,0.0,0.0,0.0,0.0,0.0,0.0,0.0,0.0,0.0,0.0,0.0,0.0,0.0,0.0,0.0,0.0,0.0,0.0,0.0,0.0,0.0,0.0,0.0,0.0,0.0,0.0,0.0,0.0,0.0,0.0,0.0,0.0,0.0,0.0,0.0,0.0,0.0,0.0,0.0,0.0,0.0,0.0,0.0,0.0,0.0,0.0,0.0,0.0,0.0,0.0,0.0,0.0,0.0,0.0,0.0,0.0,0.0,0.0,0.0,0.0,0.0,0.0,0.0,0.0,0.0,0.0,0.0,0.0,0.0,0.0,0.0,0.0,0.0,0.0,0.0,0.0,0.0,0.0,0.0,0.0,0.0,0.0,0.0,0.0,0.0,0.0,0.0,0.0,0.0,0.0,0.0,0.0,0.0,0.0,0.0,0.0,0.0,0.0,0.0,0.0,0.0,0.0,0.0,0.0,0.0,0.0,0.0,0.0,0.0,0.0,0.0,0.0,0.0,0.0,0.0,0.0,0.0,0.0,0.0,0.0,0.0,0.0,0.0,0.0,0.0,0.0,0.0,0.0,0.0,0.0,0.0,0.0,0.0,0.0,0.0,0.0,0.0,0.0,0.0,0.0,0.0,0.0,0.0,0.0,0.0,0.0,0.0,0.0,0.0,0.0,0.0,0.0,0.0,0.0,0.0,0.0,0.0,0.0,0.0,0.0,0.0,0.0,0.0,0.0,0.0,0.0,0.0,0.0,0.0,0.0,0.0,0.0,0.0,0.0,0.0,0.0,0.0,0.0,0.0,0.0,0.0,0.0,0.0,0.0,0.0,0.0,0.0,0.0,0.0,0.0,0.0,0.0,0.0,0.0,0.0,0.0,0.0,0.0,0.0,0.0,0.0,0.0,0.0,0.0,0.0,0.0,0.0,0.0,0.0,0.0,0.0,0.0,0.0,0.0,0.0,0.0,0.0,0.0,0.0,0.0,0.0,0.0,0.0,0.0,0.0,0.0,0.0,0.0,0.0,0.0,0.0,0.0,0.0,0.0,0.0,0.0,0.0,0.0,0.0,0.0,0.0,0.0,0.0,0.0,0.0,0.0,0.0,0.0,0.0,0.0,0.0,0.0,0.0,0.0,0.0,0.0,0.0,0.0,0.0,0.0,0.0,0.0,0.0,0.0,0.0,0.0,0.0,0.0,0.0,0.0,0.0,0.0,0.0,0.0,0.0,0.0,0.0,0.0,0.0,0.0,0.0,0.0,0.0,0.0,0.0,0.0,0.0,0.0,0.0,0.0,0.0,0.0,0.0,0.0,0.0,0.0,0.0,0.0,0.0,0.0,0.0,0.0,0.0,0.0,0.0,0.0,0.0,0.0,0.0,0.0,0.0,0.0,0.0,0.0,0.0,0.0,0.0,0.0,0.0,0.0,0.0,0.0,0.0,0.0,0.0,0.0,0.0,0.0,0.0,0.0,0.0,0.0,0.0,0.0,0.0,0.0,0.0,0.0,0.0,0.0,0.0,0.0,0.0,0.0,0.0,0.0,0.0,0.0,0.0,0.0,0.0,0.0,0.0,0.0,0.0,0.0,0.0,0.0,0.0,0.0,0.0,0.0,0.0,0.0,0.0,0.0,0.0,0.0,0.0,0.0,0.0,0.0,0.0,0.0,0.0,0.0,0.0,0.0,0.0,0.0,0.0,0.0,0.0,0.0,0.0,0.0,0.0,0.0,0.0,0.0,0.0,0.0,0.0,0.0,0.0,0.0,0.0,0.0,0.0,0.0,0.0,0.0,0.0,0.0,0.0,0.0,0.0,0.0,0.0,0.0,0.0,0.0,0.0,0.0,0.0,0.0,0.0,0.0,0.0,0.0,0.0,0.0,0.0,0.0,0.0,0.0,0.0,0.0,0.0,0.0,0.0,0.0,0.0,0.0,0.0,0.0,0.0,0.0,0.0,0.0,0.0,0.0,0.0,0.0,0.0,0.0,0.0,0.0,0.0,0.0,0.0,0.0,0.0,0.0,0.0,0.0,0.0,0.0,0.0,0.0,0.0,0.0,0.0,0.0,0.0,0.0,0.0,0.0,0.0,0.0,0.0,0.0,0.0,0.0,0.0,0.0,0.0,0.0,0.0,0.0,0.0,0.0,0.0,0.0,0.0,0.0,0.0,0.0,0.0,0.0,0.0,0.0,0.0,0.0,0.0,0.0,0.0,0.0,0.0,0.0,0.0,0.0,0.0,0.0,0.0,0.0,0.0,0.0,0.0,0.0,0.0,0.0,0.0,0.0,0.0,0.0,0.0,0.0,0.0,0.0,0.0,0.0,0.0,0.0,0.0,0.0,0.0,0.0,0.0,0.0,0.0,0.0,0.0,0.0,0.0,0.0,0.0,0.0,0.0,0.0,0.0,0.0,0.0,0.0,0.0,0.0,0.0,0.0,0.0,0.0,0.0,0.0,0.0,0.0,0.0,0.0,0.0,0.0,0.0,0.0,0.0,0.0,0.0,0.0,0.0,0.0,0.0,0.0,0.0,0.0,0.0,0.0,0.0,0.0,0.0,0.0,0.0,0.0,0.0,0.0,0.0,0.0,0.0,0.0,0.0,0.0,0.0,0.0,0.0,0.0,0.0,0.0,0.0,0.0,0.0,0.0,0.0,0.0,0.0,0.0,0.0,0.0,0.0,0.0,0.0,0.0,0.0,0.0,0.0,0.0,0.0,0.0,0.0,0.0,0.0,0.0,0.0,0.0,0.0,0.0,0.0,0.0,0.0,0.0,0.0,0.0,0.0,0.0,0.0,0.0,0.0,0.0,0.0,0.0,0.0,0.0,0.0,0.0,0.0,0.0,0.0,0.0,0.0,0.0,0.0,0.0,0.0,0.0,0.0,0.0,0.0,0.0,0.0,0.0,0.0,0.0,0.0,0.0,0.0,0.0,0.0,0.0,0.0,0.0,0.0,0.0,0.0,0.0,0.0,0.0,0.0,0.0,0.0,0.0,0.0,-0.5146,0.0,0.0,0.0,0.0,0.0,0.0,0.0,0.0,0.0,0.0,0.0,0.0,0.0,0.0,0.0,0.0,0.0,0.0,0.0,0.0,0.0,0.0,0.0,0.0,0.0,0.0,0.0,0.0,0.0,0.0,0.0,0.0,0.0,0.0,0.0,0.0,0.0,0.0,0.0,0.0,0.0,0.0,0.0,0.0,0.0,0.0,0.0,0.0,0.0,0.0,0.0,0.0,0.0,0.0,0.0,0.0,0.0,0.0,0.0,0.0,0.0,0.0,0.0,0.0,0.0,0.0,0.0,0.0,0.0,0.0,0.0,0.0,0.0,0.0,0.0,0.0,0.0,0.0,0.0,0.0,0.0,0.0,0.0,0.0,0.0,0.0,0.0,0.0,0.0,0.0,0.0,0.0,0.0,0.0,0.0,0.0,0.0,0.0,0.0,0.0,0.0,0.0,0.0,0.0,0.0,0.0,0.0,0.0,0.0,0.0,-0.3236,-0.3411,-0.4311,-0.4904,-0.51,0.0,0.0,0.0,0.0,0.0,0.0,0.0,0.0,0.0,0.0,0.0,0.0,0.0,0.0,0.0,0.0,0.0,0.0,0.0,0.0,0.0,0.0,0.0,0.0,0.0,0.0,0.0,0.0,0.0,0.0,0.0,0.0,0.0,0.0,0.0,0.0,0.0,0.0,0.0,0.0,0.0,0.0,0.0,0.0,0.0,0.0,0.0,0.0,0.0,0.0,0.0,0.0,0.0,0.0,0.0,0.0,0.0,0.0,0.0,0.0,0.0,0.0,0.0,0.0,0.0,0.0,0.0,0.0,0.0,0.0,0.0,0.0,0.0,0.0,0.0,0.0,0.0,0.0,0.0,0.0,0.0,0.0,0.0,0.0,0.0,0.0,0.0,0.0,0.0,0.0,0.0,0.0,0.0,0.0,0.0,0.0,0.0,0.0,0.0,0.0,0.0,0.0,0.0,0.0,0.0,0.0,0.0,0.0,0.0,0.0,0.0,0.0,-0.4424,-0.4944,-0.521,0.0,0.0,0.0,0.0,0.0,0.0,0.0,0.0,0.0,0.0,0.0,0.0,0.0,0.0,0.0,0.0,0.0,0.0,0.0,0.0,0.0,0.0,0.0,0.0,0.0,0.0,0.0,0.0,0.0,0.0,0.0,0.0,0.0,0.0,0.0,0.0,0.0,0.0,0.0,0.0,0.0,0.0,0.0,0.0,0.0,0.0,0.0,0.0,0.0,0.0,0.0,0.0,0.0,0.0,0.0,0.0,0.0,0.0,0.0,0.0,0.0,0.0,0.0,0.0,0.0,0.0,0.0,0.0,0.0,0.0,0.0,0.0,0.0,0.0,0.0,0.0,0.0,0.0,0.0,0.0,0.0,0.0,0.0,0.0,0.0,0.0,0.0,0.0,0.0,0.0,0.0,0.0,0.0,0.0,0.0,0.0,0.0,0.0,0.0,0.0,0.0,0.0,0.0,0.0,0.0,0.0,0.0,0.0,0.0,0.0,-0.3904,-0.4069,-0.4771,0.0,-0.5807,0.0,0.0,0.0,0.0,0.0,0.0,0.0,0.0,0.0,0.0,0.0,0.0,0.0,0.0,0.0,0.0,0.0,0.0,0.0,0.0,0.0,0.0,0.0,0.0,0.0,0.0,0.0,0.0,0.0,0.0,0.0,0.0,0.0,0.0,0.0,0.0,0.0,0.0,0.0,0.0,0.0,0.0,0.0,0.0,0.0,0.0,0.0,0.0,0.0,0.0,0.0,0.0,0.0,0.0,0.0,0.0,0.0,0.0,0.0,0.0,0.0,0.0,0.0,0.0,0.0,0.0,0.0,0.0,0.0,0.0,0.0,0.0,0.0,0.0,0.0,0.0,0.0,0.0,0.0,0.0,0.0,0.0,0.0,0.0,0.0,0.0,0.0,0.0,0.0,0.0,0.0,0.0,0.0,0.0,0.0,0.0,0.0,0.0,0.0,0.0,0.0,0.0,0.0,0.0,0.0,0.0,0.0,0.0,0.0,0.0,-0.4359,-0.4566,-0.5106,-0.5501,0.0,0.0,0.0,0.0,0.0,0.0,0.0,0.0,0.0,0.0,0.0,0.0,0.0,0.0,0.0,0.0,0.0,0.0,0.0,0.0,0.0,0.0,0.0,0.0,0.0,0.0,0.0,0.0,0.0,0.0,0.0,0.0,0.0,0.0,0.0,0.0,0.0,0.0,0.0,0.0,0.0,0.0,0.0,0.0,0.0,0.0,0.0,0.0,0.0,0.0,0.0,0.0,0.0,0.0,0.0,0.0,0.0,0.0,0.0,0.0,0.0,0.0,0.0,0.0,0.0,0.0,0.0,0.0,0.0,0.0,0.0,0.0,0.0,0.0,0.0,0.0,0.0,0.0,0.0,0.0,0.0,0.0,0.0,0.0,0.0,0.0,0.0,0.0,0.0,0.0,0.0,0.0,0.0,0.0,0.0,0.0,0.0,0.0,0.0,0.0,0.0,0.0,0.0,0.0,0.0,0.0,0.0,0.0,0.0,0.0,-0.422,-0.4785,-0.5117,-0.5406,-0.5662,-0.586,0.0,0.0,0.0,0.0,0.0,0.0,0.0,0.0,0.0,0.0,0.0,0.0,0.0,0.0,0.0,0.0,0.0,0.0,0.0,0.0,0.0,0.0,0.0,0.0,0.0,0.0,0.0,0.0,0.0,0.0,0.0,0.0,0.0,0.0,0.0,0.0,0.0,0.0,0.0,0.0,0.0,0.0,0.0,0.0,0.0,0.0,0.0,0.0,0.0,0.0,0.0,0.0,0.0,0.0,0.0,0.0,0.0,0.0,0.0,0.0,0.0,0.0,0.0,0.0,0.0,0.0,0.0,0.0,0.0,0.0,0.0,0.0,0.0,0.0,0.0,0.0,0.0,0.0,0.0,0.0,0.0,0.0,0.0,0.0,0.0,0.0,0.0,0.0,0.0,0.0,0.0,0.0,0.0,0.0,0.0,0.0,0.0,0.0,0.0,0.0,0.0,0.0,0.0,0.0,0.0,0.0,0.0,0.0,-0.3616,-0.4518,-0.5214,-0.5654,-0.5678,-0.5782,0.0,0.0,0.0,0.0,0.0,0.0,0.0,0.0,0.0,0.0,0.0,0.0,0.0,0.0,0.0,0.0,0.0,0.0,0.0,0.0,0.0,0.0,0.0,0.0,0.0,0.0,0.0,0.0,0.0,0.0,0.0,0.0,0.0,0.0,0.0,0.0,0.0,0.0,0.0,0.0,0.0,0.0,0.0,0.0,0.0,0.0,0.0,0.0,0.0,0.0,0.0,0.0,0.0,0.0,0.0,0.0,0.0,0.0,0.0,0.0,0.0,0.0,0.0,0.0,0.0,0.0,0.0,0.0,0.0,0.0,0.0,0.0,0.0,0.0,0.0,0.0,0.0,0.0,0.0,0.0,0.0,0.0,0.0,0.0,0.0,0.0,0.0,0.0,0.0,0.0,0.0,0.0,0.0,0.0,0.0,0.0,0.0,0.0,0.0,0.0,0.0,0.0,0.0,0.0,0.0,0.0,0.0,0.0,0.0,-0.407,-0.5057,-0.5683,-0.5954,-0.5991,-0.6057,0.0,0.0,0.0,0.0,0.0,0.0,0.0,0.0,0.0,0.0,0.0,0.0,0.0,0.0,0.0,0.0,0.0,0.0,0.0,0.0,0.0,0.0,0.0,0.0,0.0,0.0,0.0,0.0,0.0,0.0,0.0,0.0,0.0,0.0,0.0,0.0,0.0,0.0,0.0,0.0,0.0,0.0,0.0,0.0,0.0,0.0,0.0,0.0,0.0,0.0,0.0,0.0,0.0,0.0,0.0,0.0,0.0,0.0,0.0,0.0,0.0,0.0,0.0,0.0,0.0,0.0,0.0,0.0,0.0,0.0,0.0,0.0,0.0,0.0,0.0,0.0,0.0,0.0,0.0,0.0,0.0,0.0,0.0,0.0,0.0,0.0,0.0,0.0,0.0,0.0,0.0,0.0,0.0,0.0,0.0,0.0,0.0,0.0,0.0,0.0,0.0,0.0,0.0,0.0,0.0,0.0,0.0,0.0,0.0,-0.4793,0.0,-0.6212,-0.6359,-0.6366,-0.636,0.0,0.0,0.0,0.0,0.0,0.0,0.0,0.0,0.0,0.0,0.0,0.0,0.0,0.0,0.0,0.0,0.0,0.0,0.0,0.0,0.0,0.0,0.0,0.0,0.0,0.0,0.0,0.0,0.0,0.0,0.0,0.0,0.0,0.0,0.0,0.0,0.0,0.0,0.0,0.0,0.0,0.0,0.0,0.0,0.0,0.0,0.0,0.0,0.0,0.0,0.0,0.0,0.0,0.0,0.0,0.0,0.0,0.0,0.0,0.0,0.0,0.0,0.0,0.0,0.0,0.0,0.0,0.0,0.0,0.0,0.0,0.0,0.0,0.0,0.0,0.0,0.0,0.0,0.0,0.0,0.0,0.0,0.0,0.0,0.0,0.0,0.0,0.0,0.0,0.0,0.0,0.0,0.0,0.0,0.0,0.0,0.0,0.0,0.0,0.0,0.0,0.0,0.0,0.0,0.0,0.0,0.0,0.0,-0.4694,-0.5773,-0.6391,-0.6765,-0.6894,-0.6774,-0.6702,0.0,0.0,0.0,0.0,0.0,0.0,0.0,0.0,0.0,0.0,0.0,0.0,0.0,0.0,0.0,0.0,0.0,0.0,0.0,0.0,0.0,0.0,0.0,0.0,0.0,0.0,0.0,0.0,0.0,0.0,0.0,0.0,0.0,0.0,0.0,0.0,0.0,0.0,0.0,0.0,0.0,0.0,0.0,0.0,0.0,0.0,0.0,0.0,0.0,0.0,0.0,0.0,0.0,0.0,0.0,0.0,0.0,0.0,0.0,0.0,0.0,0.0,0.0,0.0,0.0,0.0,0.0,0.0,0.0,0.0,0.0,0.0,0.0,0.0,0.0,0.0,0.0,0.0,0.0,0.0,0.0,0.0,0.0,0.0,0.0,0.0,0.0,0.0,0.0,0.0,0.0,0.0,0.0,0.0,0.0,0.0,0.0,0.0,0.0,0.0,0.0,0.0,0.0,0.0,0.0,0.0,0.0,0.0,0.0,-0.642,-0.6922,-0.7191,-0.7187,-0.7137,-0.702,0.0,0.0,0.0,0.0,0.0,0.0,0.0,0.0,0.0,0.0,0.0,0.0,0.0,0.0,0.0,0.0,0.0,0.0,0.0,0.0,0.0,0.0,0.0,0.0,0.0,0.0,0.0,0.0,0.0,0.0,0.0,0.0,0.0,0.0,0.0,0.0,0.0,0.0,0.0,0.0,0.0,0.0,0.0,0.0,0.0,0.0,0.0,0.0,0.0,0.0,0.0,0.0,0.0,0.0,0.0,0.0,0.0,0.0,0.0,0.0,0.0,0.0,0.0,0.0,0.0,0.0,0.0,0.0,0.0,0.0,0.0,0.0,0.0,0.0,0.0,0.0,0.0,0.0,0.0,0.0,0.0,0.0,0.0,0.0,0.0,0.0,0.0,0.0,0.0,0.0,0.0,0.0,0.0,0.0,0.0,0.0,0.0,0.0,0.0,0.0,0.0,0.0,0.0,0.0,0.0,0.0,0.0,0.0,0.0,-0.7864,-0.7706,-0.7693,-0.786,-0.7564,-0.7437,-0.7445,0.0,0.0,0.0,0.0,0.0,0.0,0.0,0.0,0.0,0.0,0.0,0.0,0.0,0.0,0.0,0.0,0.0,0.0,0.0,0.0,0.0,0.0,0.0,0.0,0.0,0.0,0.0,0.0,0.0,0.0,0.0,0.0,0.0,0.0,0.0,0.0,0.0,0.0,0.0,0.0,0.0,0.0,0.0,0.0,0.0,0.0,0.0,0.0,0.0,0.0,0.0,0.0,0.0,0.0,0.0,0.0,0.0,0.0,0.0,0.0,0.0,0.0,0.0,0.0,0.0,0.0,0.0,0.0,0.0,0.0,0.0,0.0,0.0,0.0,0.0,0.0,0.0,0.0,0.0,0.0,0.0,0.0,0.0,0.0,0.0,0.0,0.0,0.0,0.0,0.0,0.0,0.0,0.0,0.0,0.0,0.0,0.0,0.0,0.0,0.0,0.0,0.0,0.0,0.0,0.0,0.0,0.0,0.0,-0.9879,-0.875,-0.8393,-0.8859,-0.8106,-0.7934,0.0,0.0,0.0,0.0,0.0,0.0,0.0,0.0,0.0,0.0,0.0,0.0,0.0,0.0,0.0,0.0,0.0,0.0,0.0,0.0,0.0,0.0,0.0,0.0,0.0,0.0,0.0,0.0,0.0,0.0,0.0,0.0,0.0,0.0,0.0,0.0,0.0,0.0,0.0,0.0,0.0,0.0,0.0,0.0,0.0,0.0,0.0,0.0,0.0,0.0,0.0,0.0,0.0,0.0,0.0,0.0,0.0,0.0,0.0,0.0,0.0,0.0,0.0,0.0,0.0,0.0,0.0,0.0,0.0,0.0,0.0,0.0,0.0,0.0,0.0,0.0,0.0,0.0,0.0,0.0,0.0,0.0,0.0,0.0,0.0,0.0,0.0,0.0,0.0,0.0,0.0,0.0,0.0,0.0,0.0,0.0,0.0,0.0,0.0,0.0,0.0,0.0,0.0,0.0,0.0,0.0,0.0,0.0,0.0,-1.0934,-1.0425,-1.0061,-0.9918,-0.9125,-0.8853,0.0,0.0,0.0,0.0,0.0,0.0,0.0,0.0,0.0,0.0,0.0,0.0,0.0,0.0,0.0,0.0,0.0,0.0,0.0,0.0,0.0,0.0,0.0,0.0,0.0,0.0,0.0,0.0,0.0,0.0,0.0,0.0,0.0,0.0,0.0,0.0,0.0,0.0,0.0,0.0,0.0,0.0,0.0,0.0,0.0,0.0,0.0,0.0,0.0,0.0,0.0,0.0,0.0,0.0,0.0,0.0,0.0,0.0,0.0,0.0,0.0,0.0,0.0,0.0,0.0,0.0,0.0,0.0,0.0,0.0,0.0,0.0,0.0,0.0,0.0,0.0,0.0,0.0,0.0,0.0,0.0,0.0,0.0,0.0,0.0,0.0,0.0,0.0,0.0,0.0,0.0,0.0,0.0,0.0,0.0,0.0,0.0,0.0,0.0,0.0,0.0,0.0,0.0,0.0,0.0,0.0,0.0,0.0,-1.1288,-1.193,-1.1948,-1.176,-1.1372,-1.0153,-0.968,0.0,0.0,0.0,0.0,0.0,0.0,0.0,0.0,0.0,0.0,0.0,0.0,0.0,0.0,0.0,0.0,0.0,0.0,0.0,0.0,0.0,0.0,0.0,0.0,0.0,0.0,0.0,0.0,0.0,0.0,0.0,0.0,0.0,0.0,0.0,0.0,0.0,0.0,0.0,0.0,0.0,0.0,0.0,0.0,0.0,0.0,0.0,0.0,0.0,0.0,0.0,0.0,0.0,0.0,0.0,0.0,0.0,0.0,0.0,0.0,0.0,0.0,0.0,0.0,0.0,0.0,0.0,0.0,0.0,0.0,0.0,0.0,0.0,0.0,0.0,0.0,0.0,0.0,0.0,0.0,0.0,0.0,0.0,0.0,0.0,0.0,0.0,0.0,0.0,0.0,0.0,0.0,0.0,0.0,0.0,0.0,0.0,0.0,0.0,0.0,0.0,0.0,0.0,0.0,0.0,0.0,0.0,0.0,-1.2127,-1.2811,-1.3213,-1.321,-1.2804,-1.1138,-1.0452,0.0,0.0,0.0,0.0,0.0,0.0,0.0,0.0,0.0,0.0,0.0,0.0,0.0,0.0,0.0,0.0,0.0,0.0,0.0,0.0,0.0,0.0,0.0,0.0,0.0,0.0,0.0,0.0,0.0,0.0,0.0,0.0,0.0,0.0,0.0,0.0,0.0,0.0,0.0,0.0,0.0,0.0,0.0,0.0,0.0,0.0,0.0,0.0,0.0,0.0,0.0,0.0,0.0,0.0,0.0,0.0,0.0,0.0,0.0,0.0,0.0,0.0,0.0,0.0,0.0,0.0,0.0,0.0,0.0,0.0,0.0,0.0,0.0,0.0,0.0,0.0,0.0,0.0,0.0,0.0,0.0,0.0,0.0,0.0,0.0,0.0,0.0,0.0,0.0,0.0,0.0,0.0,0.0,0.0,0.0,0.0,0.0,0.0,0.0,0.0,0.0,0.0,0.0,0.0,0.0,0.0,0.0,0.0,-1.2472,-1.3679,-1.3563,-1.3328,-1.3033,-1.1793,-1.1258,0.0,0.0,0.0,0.0,0.0,0.0,0.0,0.0,0.0,0.0,0.0,0.0,0.0,0.0,0.0,0.0,0.0,0.0,0.0,0.0,0.0,0.0,0.0,0.0,0.0,0.0,0.0,0.0,0.0,0.0,0.0,0.0,0.0,0.0,0.0,0.0,0.0,0.0,0.0,0.0,0.0,0.0,0.0,0.0,0.0,0.0,0.0,0.0,-0.0969,0.0,0.0,0.0,0.0,0.0,0.0,0.0,0.0,0.0,0.0,0.0,0.0,0.0,0.0,0.0,0.0,0.0,0.0,0.0,0.0,0.0,0.0,0.0,0.0,0.0,0.0,0.0,0.0,0.0,0.0,0.0,0.0,0.0,0.0,0.0,0.0,0.0,0.0,0.0,0.0,0.0,0.0,0.0,0.0,0.0,0.0,0.0,0.0,0.0,0.0,0.0,0.0,0.0,0.0,0.0,0.0,0.0,0.0,0.0,-1.2624,-1.3989,-1.3739,-1.3444,-1.3123,-1.2369,-1.1921,0.0,0.0,0.0,0.0,0.0,0.0,0.0,0.0,0.0,0.0,0.0,0.0,0.0,0.0,0.0,0.0,0.0,0.0,0.0,0.0,0.0,0.0,0.0,0.0,0.0,0.0,0.0,0.0,0.0,0.0,0.0,0.0,0.0,0.0,0.0,0.0,0.0,0.0,0.0,0.0,0.0,0.0,0.0,0.0,0.0,0.0,0.0,0.0,0.0,0.0,0.0,0.0,0.0,0.0,0.0,0.0,0.0,0.0,0.0,0.0,0.0,0.0,0.0,0.0,0.0,0.0,0.0,0.0,0.0,0.0,0.0,0.0,0.0,0.0,0.0,0.0,0.0,0.0,0.0,0.0,0.0,0.0,0.0,0.0,0.0,0.0,0.0,0.0,0.0,0.0,0.0,0.0,0.0,0.0,0.0,0.0,0.0,0.0,0.0,0.0,0.0,0.0,0.0,0.0,0.0,0.0,0.0,-1.2047,-1.268,-1.4033,-1.3859,-1.3573,-1.3227,-1.2836,-1.2431,-1.2012,0.0,0.0,0.0,0.0,0.0,0.0,0.0,0.0,0.0,0.0,0.0,0.0,0.0,0.0,0.0,0.0,0.0,0.0,0.0,0.0,0.0,0.0,0.0,0.0,0.0,0.0,0.0,0.0,0.0,0.0,0.0,0.0,0.0,0.0,0.0,0.0,0.0,0.0,-0.0406,-0.0451,0.0,0.0,0.0,0.0,0.0,0.0,0.0,0.0,-0.1183,0.0,0.0,0.0,0.0,0.0,0.0,0.0,0.0,0.0,0.0,0.0,0.0,0.0,0.0,0.0,0.0,0.0,0.0,0.0,0.0,0.0,0.0,0.0,0.0,0.0,0.0,0.0,0.0,0.0,0.0,0.0,0.0,0.0,0.0,0.0,0.0,0.0,0.0,0.0,0.0,0.0,0.0,0.0,0.0,0.0,0.0,0.0,0.0,0.0,0.0,0.0,0.0,0.0,0.0,0.0,0.0,-1.2151,-1.2058,-1.2702,-1.4144,-1.3931,-1.3632,-1.3295,-1.2891,-1.2475,-1.2024,0.0,0.0,0.0,0.0,0.0,0.0,0.0,0.0,0.0,0.0,0.0,0.0,0.0,0.0,0.0,0.0,0.0,0.0,0.0,0.0,0.0,0.0,0.0,0.0,0.0,0.0,0.0,0.0,0.0,0.0,0.0,0.0,0.0,0.0,0.0,0.0,0.0,0.0,0.0,-0.0406,-0.0427,0.0,0.0,0.0,0.0,0.0,0.0,0.0,0.0,-0.1152,0.0,0.0,0.0,0.0,0.0,0.0,0.0,0.0,0.0,0.0,0.0,0.0,0.0,0.0,0.0,0.0,0.0,0.0,0.0,0.0,0.0,0.0,0.0,0.0,0.0,0.0,0.0,0.0,0.0,0.0,0.0,0.0,0.0,0.0,0.0,0.0,0.0,0.0,0.0,0.0,0.0,0.0,0.0,0.0,0.0,0.0,0.0,0.0,0.0,0.0,0.0,0.0,0.0,0.0,0.0,-1.2194,-1.2567,-1.3238,-1.4203,-1.4028,-1.3724,-1.3412,-1.3035,-1.2614,0.0,0.0,0.0,0.0,0.0,0.0,0.0,0.0,0.0,0.0,0.0,0.0,0.0,0.0,0.0,0.0,0.0,0.0,0.0,0.0,0.0,0.0,0.0,0.0,0.0,0.0,0.0,0.0,0.0,0.0,0.0,0.0,0.0,0.0,0.0,0.0,0.0,0.0,0.0,0.0,-0.0406,-0.0406,-0.0406,0.0,0.0,0.0,0.0,0.0,0.0,-0.1094,-0.1183,0.0,0.0,0.0,0.0,0.0,0.0,0.0,0.0,0.0,0.0,0.0,0.0,0.0,0.0,0.0,0.0,0.0,0.0,0.0,0.0,0.0,0.0,0.0,0.0,0.0,0.0,0.0,0.0,0.0,0.0,0.0,0.0,0.0,0.0,0.0,0.0,0.0,0.0,0.0,0.0,0.0,0.0,0.0,0.0,0.0,0.0,0.0,0.0,0.0,0.0,0.0,0.0,0.0,0.0,0.0,-1.2541,-1.3133,-1.3729,-1.4307,-1.4149,-1.3877,-1.356,-1.3227,-1.2836,0.0,0.0,0.0,0.0,0.0,0.0,0.0,0.0,0.0,0.0,0.0,0.0,0.0,0.0,0.0,0.0,0.0,0.0,0.0,0.0,0.0,0.0,0.0,0.0,0.0,0.0,0.0,0.0,0.0,0.0,0.0,0.0,0.0,0.0,0.0,0.0,0.0,0.0,0.0,0.0,0.0,-0.0428,-0.0428,-0.0473,0.0,0.0,0.0,0.0,-0.1003,-0.1139,0.0,0.0,0.0,0.0,0.0,0.0,0.0,0.0,0.0,0.0,0.0,0.0,0.0,0.0,0.0,0.0,0.0,0.0,0.0,0.0,0.0,0.0,0.0,0.0,0.0,0.0,0.0,0.0,0.0,0.0,0.0,0.0,0.0,0.0,0.0,0.0,0.0,0.0,0.0,0.0,0.0,0.0,0.0,0.0,0.0,0.0,0.0,0.0,0.0,0.0,0.0,0.0,0.0,0.0,0.0,0.0,-1.3422,-1.3475,-1.382,-1.4423,-1.4289,-1.4046,-1.3746,-1.3378,-1.2985,0.0,0.0,0.0,0.0,0.0,0.0,0.0,0.0,0.0,0.0,0.0,0.0,0.0,0.0,0.0,0.0,0.0,0.0,0.0,0.0,0.0,0.0,0.0,0.0,0.0,0.0,0.0,0.0,0.0,0.0,0.0,0.0,0.0,0.0,0.0,0.0,0.0,0.0,0.0,0.0,0.0,-0.0563,-0.0496,-0.0496,-0.0584,0.0,0.0,-0.1072,-0.1094,-0.1208,0.0,0.0,0.0,0.0,0.0,0.0,0.0,0.0,0.0,0.0,0.0,0.0,0.0,0.0,0.0,0.0,0.0,0.0,0.0,0.0,0.0,0.0,0.0,0.0,0.0,0.0,0.0,0.0,0.0,0.0,0.0,0.0,0.0,0.0,0.0,0.0,0.0,0.0,0.0,0.0,0.0,0.0,0.0,0.0,0.0,0.0,0.0,0.0,0.0,0.0,0.0,0.0,0.0,0.0,0.0,-1.3384,-1.3713,-1.4103,-1.4401,-1.4598,-1.4451,-1.4206,-1.3859,-1.3586,-1.3244,0.0,0.0,0.0,0.0,0.0,0.0,0.0,0.0,0.0,0.0,0.0,0.0,0.0,0.0,0.0,0.0,0.0,0.0,0.0,0.0,0.0,0.0,0.0,0.0,0.0,0.0,0.0,0.0,0.0,0.0,0.0,0.0,0.0,0.0,0.0,0.0,0.0,0.0,0.0,0.0,0.0,0.0,-0.063,-0.0672,0.0,0.0,0.0,-0.1274,-0.1274,0.0,0.0,0.0,0.0,0.0,0.0,0.0,0.0,0.0,0.0,0.0,0.0,0.0,0.0,0.0,0.0,0.0,0.0,0.0,0.0,0.0,0.0,0.0,0.0,0.0,0.0,0.0,0.0,0.0,0.0,0.0,0.0,0.0,0.0,0.0,0.0,0.0,0.0,0.0,0.0,0.0,0.0,0.0,0.0,0.0,0.0,0.0,0.0,0.0,0.0,0.0,0.0,0.0,0.0,0.0,0.0,0.0,-1.4155,-1.4688,-1.4883,-1.4766,-1.4614,-1.4484,-1.431,-1.39,0.0,0.0,0.0,0.0,0.0,0.0,0.0,0.0,0.0,0.0,0.0,0.0,0.0,0.0,0.0,0.0,0.0,0.0,0.0,0.0,0.0,0.0,0.0,0.0,0.0,0.0,0.0,-0.1592,0.0,0.0,0.0,0.0,0.0,0.0,0.0,0.0,0.0,0.0,0.0,0.0,0.0,0.0,-0.1007,-0.0832,-0.0918,-0.1139,0.0,0.0,-0.1566,-0.1521,-0.1613,-0.1746,0.0,0.0,0.0,0.0,0.0,0.0,0.0,0.0,0.0,0.0,0.0,0.0,0.0,0.0,0.0,0.0,0.0,0.0,0.0,0.0,0.0,0.0,0.0,0.0,0.0,0.0,0.0,0.0,0.0,0.0,0.0,0.0,0.0,0.0,0.0,0.0,0.0,0.0,0.0,0.0,0.0,0.0,0.0,0.0,0.0,0.0,0.0,0.0,0.0,0.0,0.0,0.0,0.0,0.0,0.0,-1.5108,-1.5088,-1.5023,-1.4875,-1.4766,-1.4918,-1.535,-1.4395,-1.4071,0.0,0.0,0.0,0.0,0.0,0.0,0.0,0.0,0.0,0.0,0.0,0.0,0.0,0.0,0.0,0.0,0.0,0.0,0.0,0.0,0.0,0.0,0.0,0.0,0.0,0.0,0.0,0.0,0.0,0.0,0.0,0.0,0.0,0.0,0.0,0.0,0.0,0.0,0.0,0.0,0.0,-0.123,-0.1096,-0.123,-0.1499,0.0,0.0,-0.1986,-0.1803,-0.1894,-0.2008,-0.2078,0.0,0.0,0.0,0.0,0.0,0.0,0.0,0.0,0.0,0.0,0.0,0.0,0.0,0.0,0.0,0.0,0.0,0.0,0.0,0.0,0.0,0.0,0.0,0.0,0.0,0.0,0.0,0.0,0.0,0.0,0.0,0.0,0.0,0.0,0.0,0.0,0.0,0.0,0.0,0.0,0.0,0.0,0.0,0.0,0.0,0.0,0.0,0.0,0.0,0.0,0.0,0.0,0.0,-1.5251,-1.5269,-1.5188,-1.5121,-1.5015,-1.4894,-1.4868,-1.4938,-1.4384,-1.4069,0.0,0.0,0.0,0.0,0.0,0.0,0.0,0.0,0.0,0.0,0.0,0.0,0.0,0.0,0.0,0.0,0.0,0.0,0.0,0.0,0.0,0.0,0.0,0.0,0.0,0.0,0.0,0.0,-0.1054,-0.0929,-0.1104,0.0,0.0,0.0,0.0,0.0,0.0,0.0,0.0,0.0,0.0,-0.1651,-0.1538,-0.1673,0.0,0.0,-0.249,-0.242,-0.2245,-0.2294,-0.232,-0.2342,-0.2381,0.0,0.0,0.0,0.0,0.0,0.0,0.0,0.0,0.0,0.0,0.0,0.0,0.0,0.0,0.0,0.0,0.0,0.0,0.0,0.0,0.0,0.0,0.0,0.0,0.0,0.0,0.0,0.0,0.0,0.0,0.0,0.0,0.0,0.0,0.0,0.0,0.0,0.0,0.0,0.0,0.0,0.0,0.0,0.0,0.0,0.0,0.0,0.0,0.0,0.0,0.0,0.0,-1.568,-1.5683,-1.5371,-1.5199,-1.514,-1.5015,-1.4981,-1.503,-1.4776,-1.4477,0.0,0.0,0.0,0.0,0.0,0.0,0.0,0.0,0.0,0.0,0.0,0.0,0.0,0.0,0.0,0.0,0.0,0.0,0.0,0.0,0.0,0.0,0.0,0.0,0.0,0.0,0.0,0.0,-0.1121,-0.1093,-0.1549,0.0,0.0,0.0,0.0,0.0,0.0,0.0,0.0,0.0,0.0,-0.2114,-0.2088,-0.2114,-0.2333,-0.2859,-0.2896,-0.2805,-0.2621,-0.2604,-0.2604,-0.256,0.0,0.0,0.0,0.0,0.0,0.0,0.0,0.0,0.0,0.0,0.0,0.0,0.0,0.0,0.0,0.0,0.0,0.0,0.0,0.0,0.0,0.0,0.0,0.0,0.0,0.0,0.0,0.0,0.0,0.0,-1.7409,0.0,0.0,0.0,0.0,0.0,0.0,0.0,0.0,0.0,0.0,0.0,0.0,0.0,0.0,0.0,0.0,0.0,0.0,0.0,0.0,0.0,0.0,-1.6558,-1.6532,-1.5719,-1.5265,-1.5204,-1.5133,-1.5361,-1.5891,-1.5762,-1.5491,-1.5142,0.0,0.0,0.0,0.0,0.0,0.0,0.0,0.0,0.0,0.0,0.0,0.0,0.0,0.0,0.0,0.0,0.0,0.0,0.0,0.0,0.0,0.0,0.0,0.0,0.0,0.0,-0.134,-0.1367,-0.1587,0.0,0.0,0.0,0.0,0.0,0.0,0.0,0.0,0.0,0.0,-0.2551,-0.2702,-0.2772,-0.2621,-0.2686,-0.3144,-0.326,-0.319,-0.2853,-0.2864,-0.2837,0.0,0.0,0.0,0.0,0.0,0.0,0.0,0.0,0.0,0.0,0.0,0.0,0.0,0.0,0.0,0.0,0.0,0.0,0.0,0.0,0.0,0.0,0.0,0.0,0.0,0.0,0.0,-1.7708,-1.7689,0.0,0.0,0.0,0.0,0.0,0.0,0.0,0.0,0.0,0.0,0.0,-2.0144,-2.0421,0.0,0.0,0.0,0.0,0.0,0.0,0.0,0.0,0.0,0.0,0.0,0.0,-1.6397,-1.5821,-1.5527,-1.5334,-1.5275,-1.5163,-1.5188,-1.5333,-1.5149,-1.5007,-1.5,0.0,0.0,0.0,0.0,0.0,0.0,0.0,0.0,0.0,0.0,0.0,0.0,0.0,0.0,0.0,0.0,0.0,0.0,0.0,0.0,0.0,0.0,0.0,0.0,0.0,-0.1661,0.0,0.0,0.0,0.0,0.0,0.0,0.0,0.0,0.0,0.0,0.0,-0.2869,-0.3046,-0.3163,-0.3283,-0.3458,-0.3205,-0.3211,0.0,0.0,0.0,0.0,0.0,0.0,0.0,0.0,0.0,0.0,0.0,0.0,0.0,0.0,-0.1894,-0.1544,-0.1455,-0.1455,-0.1513,0.0,0.0,0.0,0.0,0.0,0.0,0.0,0.0,0.0,0.0,0.0,0.0,0.0,0.0,-1.9173,0.0,-1.8866,0.0,0.0,0.0,0.0,0.0,0.0,0.0,0.0,-2.0755,-2.1167,-2.1482,-2.0878,-2.076,0.0,-2.076,-2.0604,0.0,0.0,0.0,0.0,0.0,0.0,0.0,0.0,-1.7332,-1.6758,-1.6451,-1.613,-1.5753,-1.5632,-1.5408,-1.5045,-1.4766,-1.4769,-1.5028,-1.4451,-1.4049,0.0,0.0,0.0,0.0,0.0,0.0,0.0,0.0,0.0,0.0,0.0,0.0,0.0,0.0,0.0,0.0,0.0,0.0,0.0,0.0,0.0,0.0,0.0,-0.2045,0.0,0.0,0.0,0.0,0.0,0.0,0.0,0.0,0.0,-0.341,-0.3416,-0.3542,-0.373,-0.3827,-0.3943,-0.4094,0.0,0.0,0.0,0.0,0.0,0.0,0.0,-0.3737,-0.35,-0.3311,-0.3105,-0.2848,-0.2611,-0.2411,-0.2324,0.0,0.0,-0.1832,-0.1702,-0.1702,-0.1803,-0.1803,-0.1803,-0.1803,-0.1803,-0.1781,0.0,0.0,0.0,0.0,0.0,0.0,0.0,0.0,-2.1681,-2.1623,0.0,-2.0764,0.0,0.0,0.0,0.0,0.0,-2.136,0.0,0.0,-2.1913,-2.2382,-2.3008,-2.1484,-2.1132,-2.1855,-2.1074,-2.0663,-2.0664,-2.0625,0.0,0.0,0.0,0.0,0.0,0.0,-1.9293,-1.921,-1.8418,-1.7599,-1.6788,-1.6603,-1.6075,-1.5132,-1.4748,-1.4794,-1.5235,-1.4257,-1.3803,-1.4095,-1.2971,0.0,0.0,0.0,0.0,0.0,0.0,0.0,0.0,0.0,0.0,0.0,0.0,0.0,0.0,0.0,0.0,0.0,0.0,0.0,0.0,-0.2363,0.0,0.0,0.0,0.0,0.0,0.0,0.0,0.0,0.0,0.0,-0.4187,-0.4167,-0.4289,-0.4401,0.0,0.0,0.0,0.0,-0.4386,-0.4609,-0.4853,-0.4863,-0.4406,-0.4281,-0.4138,-0.3875,0.0,0.0,-0.3078,-0.2869,-0.2719,-0.2719,-0.2676,-0.2502,-0.2118,-0.2052,-0.203,-0.203,-0.203,-0.2008,-0.203,-0.2052,-0.2052,-2.5482,0.0,0.0,0.0,0.0,-2.2419,-2.2468,-2.2654,-2.2051,-2.1759,-2.172,-2.0866,0.0,0.0,0.0,0.0,0.0,0.0,-2.1875,-2.1933,-2.25,-2.291,-2.3164,-2.2637,-2.25,-2.2715,-2.1914,-2.1543,-2.1504,-2.0898,-2.0604,-2.0604,0.0,0.0,0.0,0.0,-1.9296,-1.9274,-1.9048,-1.9068,-1.9377,-1.815,-1.6749,-1.5138,-1.5367,-1.5506,-1.5514,-1.502,-1.465,-1.4446,-1.3359,0.0,0.0,0.0,0.0,0.0,0.0,0.0,0.0,0.0,0.0,0.0,0.0,0.0,0.0,0.0,0.0,0.0,0.0,0.0,-0.3053,-0.3199,-0.3478,0.0,0.0,0.0,0.0,0.0,0.0,0.0,0.0,0.0,-0.5639,-0.5221,-0.4963,0.0,0.0,-0.5318,-0.5346,-0.5156,-0.5098,-0.5298,-0.5518,0.0,0.0,-0.4883,-0.4677,-0.4486,-0.4114,-0.3792,-0.3528,-0.3381,-0.3247,-0.3163,-0.3126,-0.3056,-0.2928,-0.2654,-0.2459,-0.2507,-0.2502,-0.2502,-0.2507,-0.2507,-0.2481,-2.8621,-2.6778,-2.5819,-2.5087,-2.4581,-2.4245,-2.43,-2.4564,-2.4058,-2.3653,-2.3307,-2.2796,-2.2185,-2.1528,-2.1569,0.0,0.0,0.0,-2.289,-2.291,-2.3398,-2.3808,-2.4141,-2.3437,-2.3281,-2.3574,-2.2773,-2.2207,-2.1875,-2.1385,-2.0954,-2.0599,0.0,0.0,-1.9819,-1.9822,-1.9805,-1.9823,-1.9797,-2.0057,-2.0467,-1.9111,-1.7664,-1.6194,-1.607,-1.5785,-1.5256,-1.4989,-1.4811,-1.4709,-1.3614,-1.2642,0.0,0.0,0.0,0.0,0.0,0.0,0.0,0.0,0.0,0.0,0.0,-0.6434,0.0,0.0,0.0,0.0,-0.468,-0.4342,-0.4032,-0.4195,0.0,0.0,0.0,0.0,0.0,0.0,0.0,-0.785,-0.7543,-0.7317,-0.7421,-0.7075,-0.6561,-0.5922,-0.5925,-0.595,-0.5981,0.0,-0.5704,-0.5909,-0.6106,-0.6081,-0.5715,-0.548,-0.5204,-0.4874,-0.4527,-0.4224,-0.4048,-0.3917,-0.3785,-0.3702,-0.3668,-0.3605,-0.3584,-0.3311,-0.3056,-0.295,-0.2934,-0.2934,-0.2918,-0.2896,-0.2875,-3.1718,-3.0789,-2.8422,-2.7258,-2.6926,-2.6158,-2.6251,-2.6972,-2.6913,-2.6509,-2.582,-2.573,-2.4807,-2.332,-2.3294,0.0,-2.3437,-2.4238,-2.4609,-2.4609,-2.4668,-2.5098,-2.5703,-2.416,-2.3789,-2.4492,-2.3633,-2.2812,-2.2128,-2.203,-2.1561,-2.0717,-2.0714,-2.0674,-2.0599,-2.0601,-2.0623,-2.0703,-2.0701,-2.0672,-2.0579,-1.9826,-1.8916,-1.783,-1.6839,-1.5845,-1.4877,-1.4497,-1.4477,-1.4793,-1.3817,-1.3109,-1.2744,0.0,0.0,0.0,0.0,0.0,0.0,0.0,0.0,0.0,0.0,0.0,0.0,0.0,0.0,0.0,-0.5216,0.0,-0.5288,-0.5497,0.0,0.0,0.0,-0.583,-0.6307,-0.8346,-0.9763,-0.9913,0.0,0.0,-0.9275,-0.9318,-0.8739,-0.701,-0.6756,-0.6731,-0.6744,-0.646,-0.6331,-0.6515,-0.6693,-0.6638,-0.6283,-0.5998,-0.5646,-0.5194,-0.4903,-0.4726,-0.4575,-0.4418,-0.4366,-0.4285,-0.4211,-0.413,-0.404,-0.3958,-0.3848,-0.3458,-0.3359,-0.3323,-0.3272,-0.3245,-0.3223,-3.2917,-3.2713,-3.2119,-3.033,-2.7913,-2.7729,-2.7745,-2.7835,-2.725,-2.688,-2.6649,-2.5996,-2.5464,-2.5086,-2.5072,-2.5095,-2.5155,-2.5996,-2.6386,-2.6426,-2.707,-2.7129,-2.668,-2.625,-2.584,-2.5352,-2.4512,-2.3984,-2.3789,-2.3144,-2.2401,-2.1619,-2.1597,-2.1263,-2.0619,-2.0601,-2.0915,-2.1582,-2.1542,-2.1509,-2.149,-2.1867,-2.0995,-1.8827,-1.7785,-1.6823,-1.5882,-1.4997,-1.4499,-1.4436,-1.3938,-1.3275,-1.2383,-1.186,0.0,0.0,0.0,0.0,0.0,0.0,0.0,0.0,0.0,-0.907,-0.9075,0.0,-0.7879,0.0,-0.746,-0.7266,-0.7231,-0.7869,0.0,0.0,-0.7407,-0.7175,-0.8479,-1.0402,-1.1686,-1.1843,-1.0675,-0.9894,-0.9964,-0.9997,-0.984,-0.9372,-0.8975,-0.853,-0.8049,-0.728,-0.6878,-0.7104,-0.7219,-0.7157,-0.6785,-0.6381,-0.6004,-0.5664,-0.548,-0.5281,-0.501,-0.4903,-0.4765,-0.4527,-0.4515,-0.4486,-0.4406,-0.4423,-0.4333,-0.4109,-0.3869,-0.3675,-0.3654,-0.3612,-0.3584,-3.3921,-3.3951,-3.3574,-3.2276,-3.0469,-2.9748,-2.939,-2.9265,-2.8057,-2.7335,-2.6971,-2.6476,-2.6505,-2.6864,-2.6867,-2.6871,-2.6893,-2.7363,-2.7598,-2.7598,-2.8086,-2.8047,-2.7578,-2.7578,-2.7324,-2.6855,-2.6387,-2.5722,-2.5,-2.4492,-2.3633,-2.2461,-2.207,-2.166,-2.1171,-2.08,-2.0839,-2.1308,-2.2027,-2.2359,-2.2406,-2.3164,-2.2502,-2.033,-1.933,-1.8047,-1.633,-1.5648,-1.5064,-1.4501,-1.4222,-1.3743,-1.3036,-1.2708,-1.2368,0.0,0.0,0.0,0.0,0.0,0.0,0.0,0.0,0.0,0.0,0.0,-0.9404,-0.9358,-0.9229,-0.913,-0.9013,-0.949,-0.9836,-0.9853,-0.903,-0.8825,-0.9704,-1.1527,-1.2724,-1.2799,-1.194,-1.1337,-1.1372,-1.139,-1.139,-1.139,-1.1122,-1.0495,-0.9317,-0.8167,-0.7622,-0.8395,-0.8076,-0.756,-0.7112,-0.6722,-0.6411,-0.6153,-0.5943,-0.5741,-0.5547,-0.5358,-0.5136,-0.4962,-0.4912,-0.4882,-0.4755,-0.4744,-0.4724,-0.4535,-0.4342,-0.4179,-0.4055,-0.4001,-0.3967,-3.4789,-3.4783,-3.4051,-3.375,-3.3601,-3.1877,-3.1129,-3.1024,-2.9519,-2.8333,-2.7482,-2.7379,-2.77,-2.8288,-2.8289,-2.8293,-2.8298,-2.8299,-2.83,-2.8301,-2.8418,-2.8398,-2.8301,-2.8418,-2.8398,-2.8301,-2.83,-2.7498,-2.6073,-2.6052,-2.5133,-2.3473,-2.2731,-2.2224,-2.1874,-2.1132,-2.0703,-2.0625,-2.2254,-2.3035,-2.2958,-2.3824,-2.348,-2.1779,-2.0861,-1.9272,-1.688,-1.6521,-1.5926,-1.4963,-1.472,-1.4428,-1.409,-1.3835,-1.3663,0.0,-1.3532,0.0,0.0,0.0,0.0,0.0,0.0,0.0,0.0,-1.1312,-1.0847,-1.0582,-1.0696,-1.0748,-1.0671,-1.0846,-1.0958,-1.0958,-1.0768,-1.0669,-1.0733,-1.224,-1.3295,-1.3278,-1.3037,-1.2909,-1.2914,-1.298,-1.298,-1.2881,-1.2795,-1.2228,-1.0892,-0.9482,-0.9031,-1.0069,-0.9019,-0.805,-0.7578,-0.7164,-0.6835,-0.6613,-0.6371,-0.6147,-0.6063,-0.58,-0.5558,-0.5434,-0.531,-0.5234,-0.5088,-0.5049,-0.499,-0.4852,-0.4764,-0.4644,-0.4423,-0.433,-0.4277,-3.5666,-3.5656,-3.5552,-3.5502,-3.5357,-3.3646,-3.2901,-3.2895,-3.2557,-3.1554,-3.0045,-2.94,-2.882,-2.8313,-2.8283,-2.8288,-2.8289,-2.8296,-2.8299,-2.832,-2.9023,-2.8984,-2.8378,-2.9042,-2.8983,-2.8317,-2.8297,-2.814,-2.7809,-2.7808,-2.6929,-2.5249,-2.5034,-2.3921,-2.1927,0.0,0.0,0.0,-2.2252,-2.2767,-2.2124,-2.3572,-2.3556,-2.1828,-2.088,0.0,-1.8645,-1.7825,-1.6984,-1.607,-1.5866,0.0,0.0,0.0,0.0,0.0,0.0,0.0,0.0,0.0,0.0,0.0,-1.3972,-1.3721,-1.3335,-1.2714,-1.2056,-1.1441,-1.1867,-1.2161,-1.2041,-1.259,-1.2933,-1.2951,-1.2774,-1.2656,-1.2706,-1.3323,-1.3783,-1.3765,-1.3542,-1.3378,-1.3378,-1.3395,-1.3379,-1.3396,-1.3379,-1.3244,-1.289,-1.2052,-1.1387,-1.0655,-0.9702,-0.8911,-0.8602,-0.7878,-0.7268,-0.7029,-0.6811,-0.6591,-0.6354,-0.6189,-0.5929,-0.5641,-0.5587,-0.556,-0.5416,-0.531,-0.5195,-0.5068,-0.5029,-0.495,-0.4682,-0.4573,-0.4504,-3.6543,0.0,-3.6138,-3.6013,0.0,-3.5054,-3.4683,-3.4563,-3.2833,-3.1867,-3.1426,-3.0996,-3.0824,-3.0817,-3.0807,-3.0579,-3.0196,-3.0164,-2.9973,-2.9627,-3.0037,-2.9783,-2.8943,-2.9392,-2.9137,-2.8336,-2.8725,-2.8704,-2.8333,-2.8742,-2.827,-2.6997,-2.6548,-2.5453,-2.3749,-2.244,-2.1407,-2.0593,-2.1837,-2.2238,-2.1876,-2.3092,-2.3135,-2.185,-2.1337,0.0,0.0,0.0,0.0,0.0,0.0,0.0,0.0,0.0,0.0,-1.5692,-1.568,-1.568,-1.568,-1.5739,-1.5785,-1.5792,-1.5841,-1.5369,-1.4188,-1.3775,-1.3419,-1.3033,-1.3286,-1.3444,-1.336,-1.3648,-1.3838,-1.3845,-1.3696,-1.3572,-1.362,-1.3865,-1.4026,-1.4044,-1.388,-1.3741,-1.3741,-1.3761,-1.3731,-1.37,-1.3671,-1.3639,-1.3575,-1.3176,-1.2599,-1.1926,-1.0735,-0.9764,-0.9204,-0.8364,-0.7679,-0.7438,-0.7203,-0.6947,-0.6731,-0.6552,-0.629,-0.6009,-0.5874,-0.5756,-0.5662,-0.553,-0.5359,-0.5253,-0.5205,-0.5107,-0.493,-0.4802,-0.4673,-3.7444,-3.7347,-3.6551,-3.6231,-3.6225,-3.6069,-3.601,-3.5793,0.0,0.0,0.0,-3.2186,-3.24,-3.2935,-3.2939,-3.2557,-3.1887,-3.1867,-3.1526,-3.0892,-3.1049,-3.0639,-2.9857,-2.9975,-2.9507,-2.8589,-2.9248,-2.9148,-2.8348,-2.9027,-2.9001,-2.8291,-2.7569,-2.6805,-2.5821,-2.35,-2.1845,-2.1108,-2.1555,-2.1708,-2.1608,-2.2413,-2.2461,-2.1601,-2.1578,-2.088,-1.9502,-1.9381,-1.8938,-1.8088,-1.7985,-1.7826,-1.756,-1.7462,-1.7377,-1.7275,-1.7455,-1.7538,-1.7468,-1.7522,-1.7488,-1.7365,-1.7415,-1.6686,-1.4916,-1.4794,-1.4699,-1.4526,-1.4471,-1.4444,-1.4379,-1.4326,-1.4277,-1.4275,-1.4159,-1.4096,-1.4096,-1.419,-1.4268,-1.4255,-1.4132,-1.4054,-1.4037,-1.404,-1.4026,-1.3949,-1.3877,-1.3838,-1.3713,-1.3444,-1.3244,-1.3059,-1.189,-1.0682,-0.9819,-0.8932,-0.8209,-0.7841,-0.7575,-0.7315,-0.7123,-0.6874,-0.6621,-0.6378,-0.6147,-0.5966,-0.583,-0.5652,-0.5511,-0.5437,-0.5311,-0.5224,-0.5107,-0.496,-0.4832,-3.8322,-3.8248,-3.741,-3.7051,-3.7048,-3.6303,-3.6004,-3.5892,-3.4677,-3.3789,-3.3186,-3.2428,-3.1765,-3.1159,-3.1168,-3.1098,-3.0985,-3.0989,-3.0924,-3.086,-3.1602,-3.1506,-3.0769,-3.1434,-3.0945,-2.9517,-2.9554,-2.9162,-2.8396,-2.8452,-2.8408,-2.8304,-2.8164,-2.7674,-2.6747,-2.4966,-2.3602,-2.2753,-2.2127,-2.1427,-2.0733,-2.153,-2.1564,-2.0756,-2.0701,-2.0593,-2.0344,-2.0283,-1.9871,-1.8973,-1.891,-1.8525,-1.7725,-1.7662,-1.754,-1.7509,-1.8165,-1.8564,-1.8497,-1.8545,-1.8279,-1.764,-1.7553,-1.7109,-1.6081,-1.595,-1.563,-1.4935,-1.4851,-1.4709,-1.466,-1.4703,-1.4688,-1.4578,-1.4533,-1.4464,-1.435,-1.4405,-1.4453,-1.4453,-1.4338,-1.4263,-1.4237,-1.4193,-1.4136,-1.4096,-1.4056,-1.4019,-1.3868,-1.3639,-1.3526,-1.347,-1.2713,-1.1716,-1.0862,-0.9961,-0.9103,-0.8255,-0.7941,-0.765,-0.7453,-0.7203,-0.6911,-0.6604,-0.6401,-0.6207,-0.5904,-0.5745,-0.5633,-0.553,-0.5427,-0.5341,-0.5195,-0.5088,-0.498,-3.9199,-3.9106,-3.8268,-3.7929,-3.7946,-3.7084,-3.643,-3.5986,-3.5584,-3.5162,-3.4745,-3.433,-3.394,-3.359,-3.3575,-3.3327,-3.2903,-3.2907,-3.2643,-3.2267,-3.2641,-3.2352,-3.1638,-3.1931,-3.1463,-3.0328,-3.0757,-3.0264,-2.9087,-2.9419,-2.9182,-2.8314,-2.8248,-2.8279,-2.8256,-2.6634,-2.5348,-2.4498,-2.272,-2.1362,-2.0536,-2.0889,-2.0906,-2.0525,-2.0516,-2.0506,-2.0508,-2.0515,-2.0303,-1.9876,-1.9831,-1.9604,-1.9201,-1.9114,-1.9024,-1.8975,-1.9331,-1.9541,-1.9513,-1.956,-1.9452,-1.9092,-1.9081,-1.8709,-1.7819,-1.7262,-1.6785,-1.6407,-1.6333,-1.6298,-1.6224,-1.6187,-1.5968,-1.5458,-1.5026,-1.4664,-1.4578,-1.4549,-1.4581,-1.4632,-1.4556,-1.4451,-1.4416,-1.4368,-1.432,-1.427,-1.4201,-1.4114,-1.403,-1.3912,-1.3806,-1.3739,-1.3028,-1.2327,-1.1766,-1.0611,-0.9669,-0.913,-0.8476,-0.7983,-0.7709,-0.747,-0.7203,-0.6878,-0.6625,-0.6383,-0.6111,-0.5893,-0.5745,-0.57,-0.553,-0.5416,-0.5282,-0.5117,-0.4922,-4.0095,-4.0023,-3.9145,-3.8729,-3.8531,-3.7666,-3.6914,-3.6278,-3.6059,-3.5929,-3.5894,-3.588,-3.5899,-3.5883,-3.5883,-3.5558,-3.5017,-3.4959,-3.4599,-3.4008,-3.3969,-3.3509,-3.2739,-3.268,-3.2134,-3.1256,-3.1783,-3.1292,-3.0014,-3.0306,-2.9737,-2.8361,-2.8372,-2.8836,-2.9474,-2.7974,-2.6883,-2.6147,-2.3699,-2.1876,-2.0828,-2.0614,-2.0514,-2.0506,-2.0503,-2.051,-2.0511,-2.0508,-2.0519,-2.0497,-2.0444,-2.0424,-2.0379,-2.034,-2.028,-2.0242,-2.0408,-2.0504,-2.0515,-2.057,-2.0508,-2.0311,-2.0292,-2.0036,-1.9406,-1.8696,-1.8033,-1.7711,-1.7543,-1.7557,-1.7468,-1.7443,-1.717,-1.6479,-1.5829,-1.5254,-1.4829,-1.4873,-1.4902,-1.4849,-1.4716,-1.4606,-1.4563,-1.4537,-1.4511,-1.4404,-1.432,-1.4237,-1.419,-1.415,-1.4068,-1.3896,-1.3356,-1.2805,-1.25,-1.1476,-1.047,-1.0028,-0.9169,-0.8517,-0.8101,-0.7739,-0.7484,-0.7173,-0.6878,-0.6608,-0.6366,-0.6135,-0.5948,-0.5837,-0.567,-0.553,-0.533,-0.5117,-0.4882,-4.0972,-4.0857,-4.0023,-3.9256,-3.8551,-3.7702,-3.7265,-3.698,-3.627,-3.5904,-3.5889,-3.5894,-3.5883,-3.5891,-3.5892,-3.584,-3.5755,-3.5774,-3.5694,-3.5617,-3.5656,-3.5256,-3.4445,-3.4429,-3.3587,-3.2202,-3.2182,-3.1808,-3.0743,-3.0002,-2.916,-2.8407,-2.8992,-2.9381,-2.9377,-2.8544,-2.8017,-2.792,-2.5465,-2.3348,-2.1759,-2.0923,-2.0514,-2.0506,-2.0506,-2.05,-2.0503,-2.0511,-2.0508,-2.0504,-2.0502,-2.0464,-2.041,-2.0394,-2.0365,-2.0321,-2.1003,-2.1478,-2.1451,-2.1471,-2.1085,-2.041,-2.0288,-2.0283,-2.0173,-2.0115,-1.9394,-1.8203,-1.7759,-1.7807,-1.7673,-1.7691,-1.7676,-1.748,-1.7236,-1.6583,-1.5376,-1.5696,-1.5891,-1.4879,-1.4794,-1.4755,-1.4687,-1.4674,-1.4622,-1.4508,-1.4428,-1.4387,-1.4344,-1.427,-1.4219,-1.4198,-1.3939,-1.3496,-1.2943,-1.2602,-1.1663,-1.0471,-0.9857,-0.9274,-0.8605,-0.8068,-0.7768,-0.7499,-0.7219,-0.6911,-0.6621,-0.6395,-0.6242,-0.5973,-0.5819,-0.567,-0.5387,-0.5185,-0.499,-4.1109,-4.1072,-4.0725,-4.0071,-3.9302,-3.8924,-3.817,-3.7181,-3.684,-3.6395,-3.5917,-3.5885,-3.5885,-3.5885,-3.5892,-3.5885,-3.5892,-3.5892,-3.5885,-3.5883,-3.5883,-3.5705,-3.5446,-3.5412,-3.4983,-3.4398,-3.4335,-3.3648,-3.2216,-3.0438,-2.9561,-2.9635,-2.9124,-2.8987,-2.9377,-2.8636,-2.8188,-2.8154,-2.6693,-2.5056,-2.3329,-2.1483,-2.0511,-2.0511,-2.0509,-2.0503,-2.0513,-2.0503,-2.0499,-2.0515,-2.05,-2.0487,-2.0458,-2.0464,-2.0424,-2.039,-2.0682,-2.0882,-2.0881,-2.0888,-2.0753,-2.0366,-2.0354,-2.036,-2.0372,-2.0372,-2.0057,-1.9478,-1.9265,-1.923,-1.9193,-1.9172,-1.8939,-1.8493,-1.8297,-1.7747,-1.6612,-1.5922,-1.5366,-1.4969,-1.4886,-1.4822,-1.4766,-1.4736,-1.4656,-1.4574,-1.4537,-1.4515,-1.4474,-1.4404,-1.4387,-1.4344,-1.4282,-1.4085,-1.3604,-1.3059,-1.2411,-1.1681,-1.0668,-0.9723,-0.932,-0.8509,-0.8051,-0.7812,-0.7542,-0.7244,-0.6861,-0.6604,-0.6378,-0.6147,-0.5863,-0.5659,-0.5463,-0.5263,-0.5068,-4.1103,-4.1106,-4.1111,-4.0745,-4.0149,-3.9887,-3.8941,-3.7605,-3.7317,-3.6701,-3.5924,-3.5885,-3.5878,-3.5885,-3.5872,-3.5864,-3.5872,-3.5891,-3.5885,-3.5898,-3.5879,-3.5897,-3.5899,-3.5899,-3.588,-3.5885,-3.5827,-3.512,-3.3648,-3.1948,-3.0872,-3.0633,-2.9504,-2.8978,-2.9036,-2.8491,-2.8203,-2.8126,-2.7346,-2.6299,-2.4916,-2.2565,-2.0993,-2.057,-2.0509,-2.0503,-2.05,-2.051,-2.0506,-2.0503,-2.0515,-2.0504,-2.0511,-2.0502,-2.0468,-2.0399,-2.0377,-2.0379,-2.0379,-2.0386,-2.0386,-2.0392,-2.0379,-2.0385,-2.0396,-2.0421,-2.0435,-2.034,-2.0354,-2.0282,-2.0281,-2.0269,-1.9937,-1.9337,-1.9198,-1.8868,-1.8222,-1.7026,-1.6117,-1.5231,-1.4971,-1.4894,-1.4859,-1.4794,-1.4717,-1.4666,-1.4645,-1.4614,-1.4552,-1.4526,-1.4511,-1.4439,-1.4488,-1.4387,-1.4152,-1.3689,-1.317,-1.2587,-1.1585,-1.0818,-1.0306,-0.9438,-0.8496,-0.8358,-0.799,-0.7567,-0.7166,-0.6828,-0.6542,-0.6302,-0.602,-0.5715,-0.5587,-0.533,-0.5185,-4.1103,-4.112,-4.1111,-4.1052,-4.0974,-4.0189,-3.9287,-3.8288,-3.759,-3.674,-3.5963,-3.5898,-3.5857,-3.5791,-3.5815,-3.5807,-3.5803,-3.5811,-3.5818,-3.5878,-3.5885,-3.5892,-3.5885,-3.5891,-3.5897,-3.5889,-3.5889,-3.5435,-3.4567,-3.4308,-3.3114,-3.0878,-3.0573,-2.9769,-2.8582,-2.8232,-2.8179,-2.8028,-2.7371,-2.6851,-2.6466,-2.4253,-2.227,-2.0909,-2.0522,-2.0503,-2.05,-2.051,-2.0506,-2.0506,-2.0503,-2.0511,-2.0511,-2.0519,-2.0463,-2.0399,-2.0377,-2.0385,-2.0392,-2.0379,-2.039,-2.039,-2.0394,-2.039,-2.0394,-2.0448,-2.0448,-2.0413,-2.039,-2.036,-2.0318,-2.03,-2.0246,-2.0096,-2.0047,-1.9945,-1.9917,-1.9497,-1.8241,-1.5876,-1.5015,-1.4968,-1.4911,-1.4841,-1.4794,-1.4775,-1.4746,-1.4687,-1.4624,-1.4592,-1.4589,-1.4585,-1.454,-1.4471,-1.4331,-1.408,-1.3674,-1.316,-1.2622,-1.2143,-1.1493,-1.0731,-0.9737,-0.8989,-0.8865,-0.8419,-0.759,-0.7088,-0.6825,-0.6502,-0.6104,-0.5848,-0.57,-0.5463,-0.5301,-4.1103,-4.1114,-4.1111,-4.1111,-4.1061,-4.0744,-3.9842,-3.8492,-3.8182,-3.7209,-3.606,-3.5864,-3.5803,-3.5807,-3.5799,-3.5799,-3.5807,-3.5807,-3.5795,-3.5838,-3.5838,-3.5872,-3.5892,-3.5892,-3.5892,-3.5879,-3.5879,-3.5743,-3.5405,-3.488,-3.4153,-3.3038,-3.1462,-3.0119,-2.903,-2.7915,-2.7356,-2.74,-2.7556,-2.7478,-2.6914,-2.5989,-2.4709,-2.3019,-2.1354,-2.0503,-2.0503,-2.051,-2.0506,-2.0506,-2.0519,-2.0508,-2.0511,-2.0502,-2.0473,-2.0415,-2.0385,-2.0394,-2.0377,-2.0383,-2.0383,-2.0388,-2.0374,-2.0385,-2.039,-2.0429,-2.0429,-2.0404,-2.0383,-2.0392,-2.036,-2.0318,-2.0289,-2.0262,-2.0195,-2.018,-2.0199,-2.0088,-1.8773,-1.5956,-1.503,-1.4976,-1.4952,-1.4902,-1.485,-1.4823,-1.4776,-1.4718,-1.4678,-1.4677,-1.4714,-1.4674,-1.4632,-1.4578,-1.4433,-1.4368,-1.4124,-1.371,-1.3236,-1.2723,-1.2127,-1.1463,-1.0532,-1.0089,-0.9876,-0.9424,-0.8653,-0.7858,-0.7477,-0.6739,-0.6324,-0.6109,-0.5793,-0.5638,-0.5418,-4.1091,-4.1084,-4.107,-4.1064,-4.1078,-4.1058,-4.0234,-3.891,-3.8618,-3.7663,-3.6416,-3.5947,-3.5788,-3.5799,-3.5791,-3.5791,-3.5791,-3.5791,-3.5807,-3.5795,-3.5795,-3.583,-3.5864,-3.5872,-3.5898,-3.5878,-3.5878,-3.5898,-3.5833,-3.5288,-3.4853,-3.4386,-3.2707,-3.1054,-2.9557,-2.8273,-2.7398,-2.6879,-2.7346,-2.7579,-2.7287,-2.7026,-2.6393,-2.5074,-2.296,-2.1451,-2.0951,-2.0649,-2.0503,-2.0499,-2.0511,-2.0504,-2.0506,-2.0512,-2.0464,-2.04,-2.0381,-2.039,-2.038,-2.038,-2.038,-2.0404,-2.0424,-2.0429,-2.0395,-2.0385,-2.0385,-2.0385,-2.0394,-2.039,-2.0386,-2.0353,-2.0325,-2.0304,-2.0265,-2.0249,-2.0285,-2.0197,-1.8565,-1.5933,-1.5064,-1.5034,-1.5011,-1.4971,-1.493,-1.4877,-1.4859,-1.4794,-1.4756,-1.4765,-1.4794,-1.4737,-1.4717,-1.4685,-1.4571,-1.4476,-1.4374,-1.4003,-1.3752,-1.3262,-1.2833,-1.2155,-1.1599,-1.1203,-1.075,-1.0314,-0.9662,-0.88,-0.8005,-0.7212,-0.6827,-0.6632,-0.6246,-0.5835,-0.5593,-4.1059,-4.1013,-4.0986,-4.0999,-4.1003,-4.0999,-4.0512,-3.9583,-3.8896,-3.8006,-3.6938,-3.6215,-3.5915,-3.5791,-3.5791,-3.5791,-3.5791,-3.5791,-3.5799,-3.5799,-3.5799,-3.5807,-3.5803,-3.5803,-3.5838,-3.5872,-3.5878,-3.5864,-3.5784,-3.5694,-3.5337,-3.468,-3.4369,-3.2562,-2.9505,-2.9279,-2.8049,-2.652,-2.6668,-2.7334,-2.7976,-2.7404,-2.6987,-2.6666,-2.5109,-2.3463,-2.1919,-2.1036,-2.0577,-2.0511,-2.0508,-2.05,-2.0506,-2.0512,-2.0483,-2.04,-2.0381,-2.039,-2.038,-2.039,-2.0395,-2.042,-2.0444,-2.0464,-2.042,-2.0395,-2.039,-2.038,-2.0394,-2.0383,-2.0385,-2.0386,-2.0353,-2.0311,-2.0281,-2.0285,-2.0292,-2.0285,-1.8954,-1.5981,-1.5169,-1.5143,-1.5102,-1.5046,-1.5006,-1.4982,-1.4921,-1.4859,-1.4823,-1.4804,-1.4794,-1.4794,-1.4776,-1.4755,-1.4683,-1.4596,-1.4453,-1.4282,-1.4105,-1.3813,-1.3555,-1.3003,-1.2517,-1.2058,-1.1534,-1.1042,-1.0125,-0.9331,-0.8872,-0.8181,-0.775,-0.7149,-0.6673,-0.624,-0.5772,-4.1025,-4.0984,-4.0984,-4.0984,-4.0996,-4.0984,-4.0517,-3.9704,-3.9393,-3.8482,-3.7242,-3.6817,-3.6382,-3.5888,-3.5791,-3.5791,-3.5791,-3.5791,-3.5791,-3.5791,-3.5791,-3.5799,-3.5799,-3.5807,-3.5788,-3.5834,-3.5834,-3.5815,-3.5807,-3.5807,-3.5624,-3.5352,-3.4789,-3.339,-3.1207,-3.001,-2.8398,-2.6786,-2.6734,-2.7297,-2.8035,-2.7918,-2.7787,-2.7599,-2.6136,-2.4685,-2.3603,-2.2181,-2.1161,-2.0566,-2.05,-2.0511,-2.0517,-2.0507,-2.0483,-2.04,-2.0381,-2.0395,-2.0395,-2.0395,-2.042,-2.0464,-2.0488,-2.0488,-2.0464,-2.0434,-2.0385,-2.0385,-2.0394,-2.0396,-2.039,-2.0392,-2.0366,-2.0294,-2.0296,-2.0292,-2.0292,-2.0292,-1.8681,-1.601,-1.5631,-1.5706,-1.5284,-1.5114,-1.511,-1.5022,-1.4963,-1.494,-1.485,-1.4804,-1.4794,-1.4794,-1.4794,-1.4804,-1.4726,-1.4632,-1.4522,-1.4362,-1.4211,-1.4068,-1.3897,-1.3636,-1.3208,-1.2737,-1.2207,-1.1571,-1.0639,-1.0025,-0.9599,-0.8972,-0.8366,-0.776,-0.7159,-0.6644,-0.6164,-4.0984,-4.098,-4.0971,-4.0963,-4.0974,-4.0974,-4.0663,-4.0118,-3.9788,-3.9041,-3.81,-3.7364,-3.6811,-3.6259,-3.5909,-3.5773,-3.5773,-3.5754,-3.5793,-3.5801,-3.5791,-3.5791,-3.5791,-3.5791,-3.5791,-3.5791,-3.5791,-3.5791,-3.5791,-3.5791,-3.5791,-3.5666,-3.5247,-3.4132,-3.2435,-3.0727,-2.9019,-2.7531,-2.6741,-2.6819,-2.7544,-2.7997,-2.8184,-2.8034,-2.7137,-2.6019,-2.4856,-2.3162,-2.1854,-2.1087,-2.0686,-2.0478,-2.0488,-2.0483,-2.0439,-2.04,-2.0395,-2.039,-2.0376,-2.0381,-2.042,-2.0488,-2.0507,-2.0507,-2.0483,-2.0434,-2.039,-2.0385,-2.0394,-2.0396,-2.0379,-2.0379,-2.036,-2.0314,-2.0304,-2.0292,-2.0292,-2.0292,-1.9592,-1.772,-1.7066,-1.6481,-1.5859,-1.5577,-1.5369,-1.516,-1.5014,-1.4982,-1.4895,-1.4868,-1.4841,-1.4822,-1.4823,-1.4785,-1.4756,-1.4677,-1.46,-1.4434,-1.4257,-1.4119,-1.397,-1.3669,-1.331,-1.2899,-1.2409,-1.2049,-1.1232,-1.0878,-1.0447,-0.9717,-0.9048,-0.858,-0.8045,-0.7141,-0.659,-4.098,-4.0982,-4.0917,-4.0908,-4.0907,-4.0907,-4.0849,-4.0713,-4.0092,-3.9646,-3.9161,-3.8054,-3.7201,-3.6852,-3.6212,-3.5873,-3.5708,-3.5708,-3.5747,-3.5784,-3.5793,-3.5791,-3.5791,-3.5791,-3.5791,-3.5791,-3.5791,-3.5791,-3.5791,-3.5791,-3.5801,-3.5765,-3.5668,-3.4951,-3.3255,-3.156,-2.9842,-2.8248,-2.6644,-2.6262,-2.7,-2.7718,-2.8133,-2.8209,-2.8132,-2.736,-2.5712,-2.3884,-2.2522,-2.1705,-2.0789,-2.0444,-2.0464,-2.0424,-2.0404,-2.039,-2.038,-2.0385,-2.0395,-2.0395,-2.042,-2.0488,-2.0507,-2.0507,-2.0488,-2.0439,-2.039,-2.038,-2.0394,-2.0383,-2.0379,-2.0379,-2.0372,-2.0308,-2.0292,-2.0292,-2.0292,-2.0292,-1.9965,-1.9765,-1.8789,-1.7442,-1.6627,-1.6479,-1.604,-1.5449,-1.5228,-1.5196,-1.4982,-1.493,-1.4894,-1.4867,-1.4859,-1.4832,-1.4776,-1.4717,-1.4643,-1.4515,-1.432,-1.4141,-1.3952,-1.3669,-1.3362,-1.2961,-1.2585,-1.2271,-1.1915,-1.1453,-1.1085,-1.0556,-1.0012,-0.9577,-0.8818,-0.7903,-0.7201,-4.0927,-4.0927,-4.0858,-4.0828,-4.0818,-4.0818,-4.0837,-4.0798,-4.0615,-4.0119,-3.9596,-3.9169,-3.8151,-3.7036,-3.6765,-3.6329,-3.5815,-3.5708,-3.5708,-3.5718,-3.5718,-3.5765,-3.5791,-3.5791,-3.5791,-3.5791,-3.5791,-3.5791,-3.5791,-3.5801,-3.5784,-3.5803,-3.5747,-3.5224,-3.4013,-3.2404,-3.0746,-2.9067,-2.736,-2.654,-2.6845,-2.764,-2.8094,-2.8165,-2.8722,-2.8145,-2.6504,-2.4263,-2.2275,-2.0881,-2.058,-2.0415,-2.0424,-2.0399,-2.0388,-2.0383,-2.0377,-2.0383,-2.038,-2.038,-2.0429,-2.0488,-2.0507,-2.0507,-2.0507,-2.0439,-2.039,-2.038,-2.0394,-2.0388,-2.0385,-2.0385,-2.0379,-2.0373,-2.0337,-2.0292,-2.0292,-2.0292,-2.0292,-2.0169,-1.9277,-1.8359,-1.7634,-1.7279,-1.6969,-1.6258,-1.5884,-1.5627,-1.5204,-1.4971,-1.4947,-1.4902,-1.4876,-1.4841,-1.4804,-1.4737,-1.4666,-1.4589,-1.4392,-1.4175,-1.3934,-1.3639,-1.3295,-1.2922,-1.2655,-1.2343,-1.206,-1.168,-1.1415,-1.1108,-1.0664,-1.0073,-0.9429,-0.8624,-0.8023,-4.0888,-4.0867,-4.0784,-4.0754,-4.0742,-4.0738,-4.073,-4.0754,-4.0754,-4.0541,-4.0087,-3.9699,-3.8797,-3.7547,-3.7121,-3.6482,-3.5776,-3.5718,-3.5698,-3.5708,-3.5699,-3.5747,-3.5773,-3.581,-3.5791,-3.5791,-3.5791,-3.581,-3.5801,-3.5784,-3.5775,-3.5747,-3.5737,-3.5427,-3.4952,-3.3268,-3.1592,-2.9915,-2.821,-2.7043,-2.6404,-2.7472,-2.8034,-2.8262,-2.8858,-2.8379,-2.5982,-2.4311,-2.261,-2.0944,-2.0395,-2.0385,-2.0394,-2.0383,-2.039,-2.0385,-2.0385,-2.0385,-2.0383,-2.0388,-2.0404,-2.0459,-2.0488,-2.0507,-2.0488,-2.0464,-2.0439,-2.041,-2.0399,-2.0388,-2.039,-2.0385,-2.0392,-2.0379,-2.0366,-2.0323,-2.0292,-2.0292,-2.0292,-2.0169,-1.9842,-1.9212,-1.8386,-1.8241,-1.7758,-1.7084,-1.6468,-1.5868,-1.5212,-1.509,-1.4979,-1.4955,-1.493,-1.4904,-1.4859,-1.4776,-1.4677,-1.4592,-1.4399,-1.4193,-1.3934,-1.3624,-1.3329,-1.2995,-1.2713,-1.2419,-1.2159,-1.1869,-1.1564,-1.1247,-1.0944,-1.0538,-0.9906,-0.9299,-0.8692,-4.0915,-4.0776,-4.0738,-4.0713,-4.0681,-4.0615,-4.0642,-4.0681,-4.0681,-4.0725,-4.0563,-3.9956,-3.9112,-3.816,-3.7456,-3.6574,-3.5723,-3.5715,-3.5706,-3.5707,-3.5708,-3.5708,-3.5766,-3.5801,-3.5791,-3.5791,-3.5791,-3.5801,-3.5784,-3.5784,-3.5757,-3.5728,-3.5707,-3.5716,-3.5289,-3.4021,-3.2464,-3.0906,-2.9096,-2.7544,-2.6609,-2.7256,-2.7845,-2.824,-2.8919,-2.7905,-2.5738,-2.438,-2.3248,-2.0642,-2.0457,-2.0388,-2.0383,-2.0372,-2.0372,-2.0379,-2.0392,-2.0392,-2.039,-2.0388,-2.038,-2.0415,-2.0464,-2.0507,-2.0507,-2.0507,-2.0464,-2.0395,-2.0385,-2.0383,-2.0385,-2.0392,-2.0386,-2.0379,-2.0379,-2.0372,-2.0323,-2.0292,-2.0292,-2.0292,-2.0265,-1.9881,-1.9431,-1.9051,-1.8766,-1.7976,-1.7351,-1.6674,-1.5806,-1.5204,-1.5101,-1.4998,-1.4982,-1.4974,-1.4904,-1.4822,-1.4707,-1.4592,-1.4362,-1.4145,-1.3906,-1.3638,-1.3362,-1.3067,-1.2773,-1.2503,-1.2262,-1.1976,-1.1696,-1.1429,-1.1118,-1.0825,-1.0405,-0.9836,-0.9253,-4.14,-4.0718,-4.0707,-4.0681,-4.0615,-4.0621,-4.0602,-4.0615,-4.0615,-4.0662,-4.0655,-4.0494,-3.9528,-3.8168,-3.7851,-3.7135,-3.58,-3.5704,-3.5715,-3.5695,-3.5707,-3.5698,-3.5737,-3.5785,-3.5801,-3.5791,-3.5791,-3.5801,-3.5784,-3.5737,-3.5699,-3.5707,-3.5706,-3.5715,-3.551,-3.4698,-3.3634,-3.2319,-3.0239,-2.8526,-2.742,-2.7079,-2.7501,-2.8148,-2.9009,-2.833,-2.6643,-2.5596,-2.3993,-2.1971,-2.0822,-2.0481,-2.0366,-2.036,-2.036,-2.036,-2.0379,-2.0386,-2.0385,-2.0383,-2.038,-2.0395,-2.0464,-2.0507,-2.0507,-2.0507,-2.0483,-2.042,-2.0385,-2.0383,-2.0398,-2.0379,-2.0392,-2.0386,-2.0379,-2.0373,-2.0372,-2.0323,-2.0292,-2.0292,-2.0285,-2.0227,-2.0015,-1.9865,-1.9465,-1.8824,-1.819,-1.7568,-1.6592,-1.5543,-1.5166,-1.5006,-1.5017,-1.4982,-1.4904,-1.4813,-1.4707,-1.4592,-1.4375,-1.4163,-1.3938,-1.3684,-1.3412,-1.3139,-1.285,-1.2604,-1.2363,-1.2102,-1.1826,-1.1586,-1.1302,-1.1001,-1.065,-1.0173,-0.9778,-4.1525,-4.0707,-4.0673,-4.0631,-4.0598,-4.0564,-4.0564,-4.0598,-4.0579,-4.0626,-4.0557,-4.0287,-3.9367,-3.8194,-3.773,-3.6833,-3.5955,-3.5704,-3.5704,-3.5715,-3.5706,-3.5716,-3.5707,-3.5737,-3.5737,-3.5756,-3.5745,-3.5756,-3.5728,-3.5737,-3.5718,-3.5706,-3.5715,-3.5704,-3.5684,-3.522,-3.4311,-3.2919,-3.1043,-2.933,-2.81,-2.721,-2.7458,-2.8559,-2.9361,-2.9012,-2.6946,-2.6369,-2.4735,-2.2792,-2.1462,-2.0727,-2.0373,-2.0334,-2.0308,-2.0308,-2.0328,-2.0379,-2.0398,-2.0377,-2.038,-2.0404,-2.0478,-2.0507,-2.0507,-2.0507,-2.0488,-2.0459,-2.0424,-2.0383,-2.0379,-2.0386,-2.0392,-2.0392,-2.0379,-2.0347,-2.0353,-2.033,-2.0292,-2.0285,-2.0265,-2.0257,-2.0219,-2.0211,-2.0109,-1.9452,-1.8838,-1.8185,-1.7066,-1.6054,-1.5258,-1.5014,-1.5006,-1.4982,-1.4895,-1.4794,-1.4697,-1.4563,-1.4404,-1.4237,-1.4037,-1.3759,-1.3477,-1.321,-1.2944,-1.2716,-1.2463,-1.2221,-1.1955,-1.1637,-1.137,-1.1118,-1.0845,-1.0438,-1.0082,-4.1596,-4.0668,-4.0617,-4.0588,-4.0573,-4.0523,-4.0519,-4.0573,-4.0588,-4.0603,-4.0439,-3.9758,-3.9019,-3.8138,-3.7288,-3.6462,-3.5867,-3.5673,-3.5673,-3.5704,-3.5704,-3.5695,-3.5687,-3.5678,-3.5678,-3.5669,-3.5708,-3.5718,-3.5698,-3.5707,-3.5697,-3.5715,-3.5704,-3.5704,-3.5684,-3.5626,-3.5027,-3.3673,-3.2048,-3.0288,-2.8692,-2.7638,-2.7771,-2.8709,-2.989,-2.9317,-2.7602,-2.6839,-2.5786,-2.3314,-2.239,-2.1506,-2.0727,-2.0321,-2.0295,-2.0302,-2.0302,-2.0334,-2.0366,-2.0371,-2.0388,-2.0413,-2.0454,-2.0468,-2.0488,-2.0507,-2.0488,-2.0464,-2.0429,-2.0383,-2.0385,-2.0392,-2.0392,-2.0372,-2.0354,-2.0308,-2.0294,-2.0296,-2.0265,-2.0277,-2.0249,-2.0222,-2.0214,-2.0205,-2.0208,-2.0095,-1.9454,-1.8718,-1.7636,-1.6745,-1.6043,-1.5231,-1.5196,-1.5012,-1.4914,-1.4823,-1.4697,-1.4563,-1.4439,-1.4282,-1.4119,-1.388,-1.3606,-1.3312,-1.3052,-1.2829,-1.2577,-1.2323,-1.2039,-1.171,-1.1468,-1.1279,-1.1001,-1.0681,-1.0361,-4.2072,-4.0621,-4.0603,-4.0573,-4.0504,-4.0504,-4.0504,-4.0504,-4.0523,-4.0539,-4.0434,-3.9697,-3.8805,-3.8003,-3.7186,-3.6369,-3.5736,-3.5631,-3.5662,-3.5673,-3.5704,-3.5673,-3.5643,-3.5643,-3.5612,-3.5623,-3.5667,-3.5698,-3.5707,-3.5707,-3.5687,-3.5704,-3.5704,-3.5704,-3.5704,-3.5684,-3.5568,-3.4775,-3.3267,-3.1603,-3.0095,-2.8664,-2.7813,-2.8556,-2.9757,-2.9467,-2.8277,-2.7669,-2.6616,-2.4312,-2.3871,-2.2863,-2.1678,-2.0803,-2.039,-2.0287,-2.0288,-2.0321,-2.0315,-2.0372,-2.0377,-2.0413,-2.0429,-2.0464,-2.0488,-2.0507,-2.0507,-2.0478,-2.0424,-2.0383,-2.0392,-2.0386,-2.0386,-2.036,-2.0328,-2.0288,-2.0287,-2.0269,-2.0214,-2.0225,-2.0197,-2.0197,-2.0197,-2.0188,-2.0171,-2.0173,-1.9886,-1.9264,-1.8417,-1.7704,-1.7104,-1.6244,-1.5443,-1.5193,-1.4924,-1.4832,-1.4744,-1.4603,-1.4462,-1.4332,-1.4154,-1.3984,-1.3748,-1.3461,-1.3175,-1.2906,-1.2662,-1.2423,-1.2164,-1.1912,-1.1681,-1.146,-1.1141,-1.0825,-1.0534,-4.1779,-4.0617,-4.0554,-4.0539,-4.0489,-4.0489,-4.0489,-4.0489,-4.0489,-4.0273,-3.9769,-3.9018,-3.8185,-3.7365,-3.6511,-3.59,-3.5693,-3.5616,-3.5628,-3.5639,-3.5639,-3.5639,-3.5596,-3.5616,-3.5616,-3.5616,-3.5643,-3.5646,-3.5643,-3.5635,-3.5654,-3.5654,-3.5673,-3.5704,-3.5704,-3.5704,-3.5704,-3.5336,-3.404,-3.2541,-3.1197,-2.9534,-2.8606,-2.8549,-2.9477,-2.9728,-2.8878,-2.8077,-2.7208,-2.5699,-2.4612,-2.3755,-2.2782,-2.1706,-2.0727,-2.0419,-2.0306,-2.0288,-2.0302,-2.0366,-2.0385,-2.0394,-2.039,-2.042,-2.0488,-2.0507,-2.0483,-2.0429,-2.0413,-2.039,-2.0386,-2.0379,-2.0379,-2.0379,-2.034,-2.0301,-2.0287,-2.0246,-2.0205,-2.0171,-2.019,-2.019,-2.0209,-2.0182,-2.0153,-2.0144,-2.0135,-1.9687,-1.9075,-1.8694,-1.8162,-1.7176,-1.625,-1.5468,-1.5131,-1.4888,-1.4783,-1.4654,-1.4526,-1.438,-1.4232,-1.4064,-1.3851,-1.3605,-1.3312,-1.3033,-1.2757,-1.2526,-1.2307,-1.206,-1.179,-1.1527,-1.1256,-1.0991,-1.0667,-4.1388,-4.0588,-4.0523,-4.0489,-4.0489,-4.0489,-4.0489,-4.0469,-4.0312,-3.9908,-3.9219,-3.8238,-3.7406,-3.6722,-3.6022,-3.5534,-3.5572,-3.5591,-3.5591,-3.5623,-3.5604,-3.5591,-3.5591,-3.5591,-3.5579,-3.5586,-3.5579,-3.5579,-3.5616,-3.5608,-3.5608,-3.562,-3.5662,-3.5693,-3.5693,-3.5673,-3.5704,-3.5278,-3.4447,-3.314,-3.1719,-3.0211,-2.9022,-2.8453,-2.9699,-3.0075,-2.9139,-2.8608,-2.7711,-2.6534,-2.5464,-2.4473,-2.3923,-2.278,-2.1589,-2.072,-2.0419,-2.0299,-2.0308,-2.0354,-2.0372,-2.0377,-2.038,-2.041,-2.0459,-2.0473,-2.0454,-2.0394,-2.0383,-2.0385,-2.0386,-2.0379,-2.0379,-2.0392,-2.0334,-2.0294,-2.0272,-2.0235,-2.0161,-2.0153,-2.0164,-2.0164,-2.0164,-2.0164,-2.0135,-2.0126,-2.0126,-2.0031,-1.9544,-1.9697,-1.9173,-1.8108,-1.7103,-1.6026,-1.5424,-1.4954,-1.483,-1.4695,-1.4571,-1.4428,-1.4277,-1.4141,-1.3931,-1.3728,-1.3477,-1.3175,-1.2908,-1.2642,-1.2427,-1.2185,-1.1876,-1.1615,-1.1392,-1.1108,-1.0777,-4.1378,-4.0588,-4.0523,-4.0489,-4.0489,-4.0489,-4.0489,-4.0412,-3.9796,-3.9392,-3.9084,-3.7661,-3.6853,-3.6469,-3.5872,-3.5534,-3.5502,-3.5515,-3.5547,-3.5579,-3.5579,-3.5547,-3.5515,-3.5496,-3.5522,-3.5534,-3.552,-3.5541,-3.5579,-3.5591,-3.5604,-3.5604,-3.5616,-3.5628,-3.5651,-3.5631,-3.5643,-3.5646,-3.5414,-3.4137,-3.198,-3.024,-2.9477,-2.9361,-2.9863,-3.0151,-2.9427,-2.8983,-2.826,-2.693,-2.6477,-2.5543,-2.4387,-2.3974,-2.2879,-2.1705,-2.0789,-2.0304,-2.0299,-2.0308,-2.0334,-2.0372,-2.0385,-2.0402,-2.0413,-2.0418,-2.0413,-2.0396,-2.039,-2.0379,-2.0386,-2.0379,-2.0379,-2.0373,-2.0334,-2.0301,-2.028,-2.0238,-2.0171,-2.0116,-2.0117,-2.0117,-2.0136,-2.0117,-2.0117,-2.0108,-2.0088,-2.0002,-1.9955,-2.0031,-2.004,-1.898,-1.7908,-1.6838,-1.597,-1.5479,-1.513,-1.492,-1.464,-1.4492,-1.4344,-1.4206,-1.4064,-1.3833,-1.3589,-1.3345,-1.3105,-1.2834,-1.2569,-1.2307,-1.2039,-1.1768,-1.1534,-1.1233,-1.091,-4.0885,-4.0539,-4.0504,-4.0489,-4.0489,-4.0489,-4.0489,-4.0335,-3.9642,-3.9008,-3.8411,-3.7296,-3.6469,-3.6012,-3.5589,-3.5507,-3.5495,-3.5495,-3.5515,-3.5528,-3.556,-3.5528,-3.5495,-3.5495,-3.5501,-3.5488,-3.5507,-3.552,-3.5541,-3.5534,-3.5528,-3.5547,-3.5579,-3.5623,-3.5596,-3.5616,-3.5628,-3.5492,-3.5029,-3.3832,-3.2113,-3.0993,-3.0172,-2.9331,-3.0034,-3.012,-2.9886,-2.9308,-2.8634,-2.7479,-2.6959,-2.6092,-2.5023,-2.4378,-2.3629,-2.3101,-2.1686,-2.0847,-2.04,-2.0318,-2.0327,-2.0373,-2.0386,-2.0385,-2.0383,-2.0383,-2.0377,-2.039,-2.0379,-2.0392,-2.0386,-2.0379,-2.0379,-2.0373,-2.0334,-2.0301,-2.028,-2.0241,-2.0173,-2.0126,-2.0079,-2.0089,-2.0089,-2.0098,-2.0098,-2.0108,-2.0108,-2.0069,-2.0003,-2.0003,-1.999,-1.9779,-1.8709,-1.7632,-1.6817,-1.6155,-1.5748,-1.5434,-1.4743,-1.4596,-1.4411,-1.427,-1.4127,-1.3995,-1.3806,-1.3557,-1.3295,-1.2998,-1.2684,-1.2447,-1.2216,-1.1912,-1.1637,-1.1324,-1.0968,-4.0489,-4.0489,-4.0489,-4.0489,-4.0489,-4.0489,-4.0489,-4.0373,-3.9373,-3.8604,-3.7853,-3.6892,-3.6026,-3.5622,-3.5493,-3.5488,-3.5488,-3.5507,-3.5507,-3.5507,-3.5507,-3.5488,-3.5488,-3.5488,-3.5488,-3.5507,-3.5507,-3.5507,-3.5488,-3.5495,-3.5489,-3.5489,-3.5541,-3.5566,-3.5579,-3.5591,-3.5572,-3.5546,-3.4801,-3.3624,-3.2312,-3.181,-3.0786,-3.0158,-3.004,-3.0406,-3.0294,-2.9871,-2.9074,-2.8247,-2.7439,-2.6631,-2.5726,-2.4937,-2.4341,-2.3783,-2.2744,-2.1763,-2.1001,-2.0515,-2.0364,-2.0346,-2.0373,-2.0372,-2.039,-2.039,-2.0385,-2.0379,-2.0392,-2.0386,-2.0379,-2.0379,-2.0379,-2.0373,-2.0353,-2.032,-2.028,-2.023,-2.0174,-2.0088,-2.0049,-2.0069,-2.0069,-2.0079,-2.0089,-2.0117,-2.0117,-2.0098,-2.0069,-2.0031,-1.9969,-1.99,-1.9144,-1.8208,-1.7692,-1.6999,-1.6552,-1.6023,-1.5347,-1.4917,-1.4873,-1.4508,-1.4219,-1.4105,-1.397,-1.3746,-1.346,-1.3123,-1.2797,-1.2549,-1.2307,-1.1997,-1.1718,-1.1407,-1.1038,-4.0489,-4.0489,-4.0489,-4.0489,-4.0489,-4.0489,-4.0489,-4.0354,-3.8815,-3.8065,-3.7565,-3.643,-3.5641,-3.5512,-3.5507,-3.5507,-3.5507,-3.5507,-3.5507,-3.5507,-3.5507,-3.5507,-3.5507,-3.5507,-3.5507,-3.5507,-3.5507,-3.5507,-3.5488,-3.5488,-3.5488,-3.5507,-3.552,-3.5509,-3.5502,-3.5534,-3.5534,-3.5444,-3.4834,-3.4036,-3.2956,-3.2204,-3.1295,-3.0571,-3.0378,-3.0406,-3.041,-3.0217,-2.9744,-2.8875,-2.8052,-2.7196,-2.6273,-2.5466,-2.4822,-2.4274,-2.3841,-2.2859,-2.1936,-2.0924,-2.0381,-2.0318,-2.0308,-2.0334,-2.0372,-2.0386,-2.0386,-2.0386,-2.0386,-2.0379,-2.0379,-2.0379,-2.0379,-2.0354,-2.034,-2.0308,-2.028,-2.0238,-2.0164,-2.0067,-2.0017,-2.0029,-2.0039,-2.0039,-2.005,-2.0069,-2.0079,-2.0079,-2.0069,-2.0031,-1.9969,-1.9779,-1.9249,-1.8688,-1.846,-1.7926,-1.7341,-1.6855,-1.6291,-1.5862,-1.5588,-1.5123,-1.4598,-1.4167,-1.4037,-1.3833,-1.3636,-1.3312,-1.3016,-1.2722,-1.2412,-1.2123,-1.174,-1.1384,-1.1038,-4.0489,-4.0489,-4.0489,-4.0489,-4.0489,-4.0489,-4.0489,-4.02,-3.8738,-3.7373,-3.6469,-3.5815,-3.5507,-3.5507,-3.5507,-3.5507,-3.5507,-3.5507,-3.5488,-3.5507,-3.5507,-3.5507,-3.5507,-3.5507,-3.5507,-3.5507,-3.5507,-3.5507,-3.5507,-3.5507,-3.5507,-3.5507,-3.5507,-3.5488,-3.5482,-3.5495,-3.5515,-3.547,-3.5162,-3.4604,-3.3756,-3.289,-3.203,-3.128,-3.0537,-3.0441,-3.0398,-3.0398,-2.9867,-2.9164,-2.8338,-2.75,-2.6645,-2.581,-2.5235,-2.4774,-2.4428,-2.3764,-2.2947,-2.1801,-2.0885,-2.0349,-2.0301,-2.0308,-2.0334,-2.036,-2.0379,-2.0379,-2.0399,-2.0399,-2.0418,-2.0399,-2.0379,-2.0354,-2.036,-2.0385,-2.028,-2.0246,-2.0134,-2.0039,-2.0028,-2.0038,-2.0009,-1.9998,-2.001,-2.003,-2.003,-2.0059,-2.005,-2.003,-1.9977,-1.9911,-1.9446,-1.93,-1.9087,-1.8594,-1.8083,-1.7681,-1.7237,-1.675,-1.6288,-1.5705,-1.5189,-1.466,-1.4119,-1.3934,-1.3728,-1.3494,-1.3209,-1.2889,-1.2549,-1.2205,-1.1811,-1.1392,-1.1085,-4.0489,-4.0489,-4.0489,-4.0489,-4.0489,-4.0489,-4.0489,-4.02,-3.8719,-3.7065,-3.5526,-3.5507,-3.5507,-3.5507,-3.5507,-3.5507,-3.5474,-3.5474,-3.546,-3.546,-3.546,-3.5474,-3.5474,-3.5507,-3.5507,-3.5507,-3.5507,-3.5507,-3.5507,-3.5507,-3.5507,-3.5507,-3.5507,-3.5507,-3.5507,-3.5507,-3.5507,-3.5507,-3.543,-3.5064,-3.418,-3.3314,-3.2468,-3.1641,-3.0833,-3.0448,-3.0379,-3.0359,-3.0124,-2.9447,-2.8699,-2.7804,-2.6941,-2.6154,-2.5599,-2.5197,-2.4832,-2.4389,-2.3744,-2.2543,-2.1185,-2.0458,-2.0306,-2.0288,-2.0308,-2.0334,-2.0354,-2.0379,-2.0399,-2.0495,-2.0637,-2.0888,-2.1191,-2.1339,-2.0965,-2.0874,-2.0448,-2.0269,-2.0133,-2.0021,-2.002,-2.0019,-2.0007,-1.9996,-1.9998,-2.0,-2.0001,-2.003,-2.004,-2.001,-1.9966,-1.9941,-1.9794,-1.9755,-1.9726,-1.9232,-1.8795,-1.8621,-1.8149,-1.7479,-1.696,-1.6367,-1.5508,-1.4647,-1.4198,-1.4037,-1.3865,-1.3669,-1.3362,-1.3016,-1.2665,-1.2266,-1.1933,-1.1541,-1.127,-4.0489,-4.0489,-4.0489,-4.0489,-4.0489,-4.0489,-4.0489,-4.0277,-3.8719,-3.7065,-3.5603,-3.5507,-3.5493,-3.5493,-3.5474,-3.5474,-3.546,-3.5412,-3.5412,-3.5412,-3.5393,-3.5388,-3.5402,-3.5435,-3.5441,-3.5493,-3.5493,-3.5474,-3.5474,-3.5493,-3.5493,-3.5507,-3.5507,-3.5507,-3.5507,-3.5507,-3.5507,-3.5507,-3.5507,-3.5007,-3.4372,-3.3468,-3.2545,-3.191,-3.0891,-3.0417,-3.0367,-3.0348,-3.0177,-2.9928,-2.9219,-2.8382,-2.7534,-2.6745,-2.6039,-2.5311,-2.5254,-2.4841,-2.4091,-2.2466,-2.1455,-2.0623,-2.0484,-2.0287,-2.0295,-2.0308,-2.0334,-2.036,-2.0515,-2.0908,-2.1275,-2.1707,-2.2042,-2.2105,-2.1731,-2.1171,-2.0718,-2.0558,-2.0497,-2.0107,-2.0011,-1.9991,-1.9977,-1.9993,-1.9985,-1.9998,-1.9981,-2.0001,-2.002,-2.0009,-1.9974,-1.993,-1.9896,-1.9849,-1.9801,-1.9745,-1.9513,-1.9388,-1.9008,-1.8298,-1.7621,-1.699,-1.6011,-1.4812,-1.4619,-1.4791,-1.4346,-1.3868,-1.3509,-1.314,-1.2684,-1.2287,-1.1976,-1.1696,-1.1474,-4.0489,-4.0489,-4.0489,-4.0492,-4.0495,-4.0508,-4.0489,-4.02,-3.8719,-3.7065,-3.5757,-3.5507,-3.546,-3.546,-3.5446,-3.5412,-3.5383,-3.5364,-3.533,-3.535,-3.533,-3.533,-3.5345,-3.536,-3.5364,-3.5379,-3.5412,-3.5427,-3.5427,-3.546,-3.5493,-3.5507,-3.5493,-3.5507,-3.5507,-3.5507,-3.5507,-3.5507,-3.5488,-3.5315,-3.4891,-3.3718,-3.2756,-3.2391,-3.1148,-3.0405,-3.0355,-3.0304,-3.0267,-3.0171,-2.9468,-2.867,-2.7797,-2.6972,-2.6189,-2.5501,-2.5283,-2.4928,-2.4312,-2.334,-2.2581,-2.1578,-2.0739,-2.0515,-2.0345,-2.0295,-2.0308,-2.0566,-2.1037,-2.143,-2.163,-2.2268,-2.2622,-2.2651,-2.2277,-2.1512,-2.1046,-2.11,-2.1004,-2.0327,-1.9982,-1.999,-1.9996,-1.9993,-1.9993,-1.9985,-1.9988,-1.9988,-2.0007,-1.9996,-1.9982,-1.9919,-1.9884,-1.9868,-1.9813,-1.977,-1.9745,-1.9582,-1.9388,-1.9014,-1.8354,-1.7664,-1.6669,-1.5539,-1.5551,-1.5554,-1.4916,-1.4299,-1.3675,-1.321,-1.2967,-1.255,-1.2149,-1.1918,-1.174,-4.046,-4.046,-4.046,-4.0482,-4.0466,-4.0495,-4.0204,-3.9515,-3.8385,-3.7002,-3.5696,-3.5427,-3.5412,-3.5364,-3.5364,-3.5364,-3.5315,-3.532,-3.5304,-3.5304,-3.5304,-3.5304,-3.5304,-3.53,-3.5315,-3.5315,-3.533,-3.5345,-3.5364,-3.5412,-3.5446,-3.546,-3.5493,-3.5507,-3.5507,-3.5507,-3.5507,-3.5507,-3.5488,-3.5488,-3.4916,-3.4013,-3.2917,-3.2385,-3.145,-3.0343,-3.0311,-3.0286,-3.0222,-3.0029,-2.9633,-2.8817,-2.7899,-2.7185,-2.6347,-2.5672,-2.5224,-2.4995,-2.4668,-2.4129,-2.3351,-2.262,-2.1655,-2.124,-2.117,-2.1347,-2.135,-2.1538,-2.1881,-2.2242,-2.2629,-2.3229,-2.3419,-2.3493,-2.3157,-2.2404,-2.2431,-2.2544,-2.1253,-2.0575,-2.0162,-2.0131,-2.0042,-1.9993,-1.9993,-1.9993,-1.9993,-1.9993,-1.9993,-1.9982,-1.9971,-1.9919,-1.9896,-1.9861,-1.9837,-1.9794,-1.977,-1.9745,-1.9588,-1.9388,-1.9044,-1.8365,-1.7298,-1.6434,-1.6415,-1.6182,-1.5425,-1.479,-1.4497,-1.4076,-1.3642,-1.3122,-1.2455,-1.2128,-1.194,-4.0415,-4.0398,-4.0398,-4.0415,-4.0415,-4.0353,-3.9471,-3.8,-3.7865,-3.6849,-3.5315,-3.5315,-3.5315,-3.5315,-3.5315,-3.53,-3.5285,-3.5308,-3.5293,-3.5293,-3.5293,-3.5293,-3.5293,-3.5289,-3.5285,-3.53,-3.53,-3.5335,-3.5315,-3.535,-3.5364,-3.5398,-3.5446,-3.546,-3.546,-3.5474,-3.5474,-3.5507,-3.5507,-3.5474,-3.5114,-3.3832,-3.305,-3.2378,-3.1354,-3.0478,-3.0279,-3.0247,-3.0221,-3.0188,-3.0117,-2.909,-2.8288,-2.7727,-2.6649,-2.5734,-2.528,-2.5215,-2.5081,-2.4534,-2.4332,-2.3812,-2.3312,-2.2983,-2.2626,-2.2469,-2.2582,-2.2817,-2.3219,-2.3639,-2.4072,-2.4347,-2.4629,-2.4527,-2.4375,-2.4223,-2.436,-2.3563,-2.1847,-2.0976,-2.06,-2.0443,-2.0327,-2.024,-2.024,-1.9993,-1.9993,-1.9993,-1.9993,-1.9993,-1.9971,-1.9911,-1.9889,-1.9866,-1.9842,-1.9818,-1.9813,-1.9776,-1.9745,-1.957,-1.9294,-1.9093,-1.8456,-1.7802,-1.7353,-1.6885,-1.634,-1.5942,-1.5606,-1.5142,-1.455,-1.3597,-1.2886,-1.2379,-1.2107,-4.0398,-4.0398,-4.0398,-4.0379,-4.0248,-3.9695,-3.8812,-3.7907,-3.7271,-3.6293,-3.5315,-3.5315,-3.5304,-3.5308,-3.5308,-3.5254,-3.5239,-3.5207,-3.5226,-3.5226,-3.5245,-3.5226,-3.5226,-3.5223,-3.5242,-3.5258,-3.5273,-3.5308,-3.5324,-3.5304,-3.5315,-3.533,-3.5383,-3.5398,-3.5427,-3.5422,-3.5455,-3.5474,-3.5474,-3.546,-3.5042,-3.3838,-3.3177,-3.2415,-3.1289,-3.0515,-3.024,-3.024,-3.0226,-3.0218,-3.0218,-2.9402,-2.7912,-2.7657,-2.6981,-2.5485,-2.5261,-2.5273,-2.5244,-2.5062,-2.4909,-2.487,-2.4582,-2.3812,-2.3426,-2.3396,-2.3771,-2.424,-2.4797,-2.5316,-2.5343,-2.5451,-2.55,-2.5299,-2.5099,-2.4928,-2.4947,-2.4207,-2.2613,-2.2117,-2.1726,-2.1153,-2.0979,-2.0732,-2.0676,-2.024,-1.9993,-1.9993,-1.9993,-1.9993,-1.9982,-1.9941,-1.993,-1.9919,-1.9854,-1.98,-1.9813,-1.9788,-1.9776,-1.9745,-1.9576,-1.9444,-1.9433,-1.9003,-1.8259,-1.7808,-1.7444,-1.7053,-1.6621,-1.6063,-1.545,-1.4336,-1.3364,-1.2927,-1.2405,-4.0039,-4.0326,-4.0345,-4.0154,-3.9621,-3.8532,-3.7747,-3.7283,-3.6782,-3.6074,-3.5293,-3.5254,-3.5273,-3.5277,-3.5261,-3.5226,-3.519,-3.519,-3.519,-3.519,-3.5174,-3.519,-3.519,-3.519,-3.519,-3.5209,-3.5245,-3.5261,-3.5277,-3.5308,-3.5304,-3.5304,-3.532,-3.5315,-3.5345,-3.536,-3.5393,-3.5412,-3.5446,-3.5432,-3.4861,-3.4059,-3.3398,-3.2579,-3.1339,-3.0737,-3.0232,-3.0213,-3.0199,-3.0204,-3.0204,-2.9612,-2.816,-2.7625,-2.6752,-2.5417,-2.5209,-2.5271,-2.5292,-2.5283,-2.5274,-2.5303,-2.5284,-2.4793,-2.462,-2.4687,-2.5255,-2.5832,-2.6516,-2.6997,-2.6746,-2.6504,-2.6244,-2.5994,-2.564,-2.5303,-2.4975,-2.461,-2.4036,-2.3529,-2.2937,-2.2261,-2.1851,-2.1509,-2.1111,-2.0695,-2.0278,-1.9993,-1.9993,-1.9993,-1.9982,-1.9971,-1.9971,-1.996,-1.9896,-1.9811,-1.9825,-1.982,-1.9807,-1.9763,-1.9732,-1.9688,-1.9567,-1.9323,-1.8933,-1.8566,-1.8229,-1.7922,-1.7521,-1.6941,-1.6375,-1.5524,-1.4521,-1.3681,-1.3131,-3.9355,-4.0043,-4.01,-3.9489,-3.8648,-3.7215,-3.6528,-3.6394,-3.6337,-3.5954,-3.5286,-3.519,-3.5209,-3.5209,-3.5209,-3.5209,-3.5193,-3.5193,-3.5176,-3.5174,-3.5176,-3.5176,-3.5193,-3.5174,-3.5193,-3.5174,-3.519,-3.5226,-3.5226,-3.5242,-3.5293,-3.5312,-3.5289,-3.53,-3.532,-3.5335,-3.5335,-3.535,-3.5369,-3.5369,-3.5139,-3.4457,-3.3608,-3.2785,-3.1876,-3.1102,-3.0452,-3.0204,-3.0204,-3.0204,-3.0089,-2.9726,-2.8504,-2.7319,-2.6197,-2.5539,-2.5236,-2.5239,-2.5271,-2.5282,-2.5302,-2.5293,-2.5284,-2.5303,-2.5409,-2.5947,-2.6592,-2.7103,-2.773,-2.8058,-2.7904,-2.7538,-2.7219,-2.6651,-2.6121,-2.5629,-2.5137,-2.4894,-2.469,-2.4227,-2.3815,-2.3177,-2.2646,-2.2305,-2.1718,-2.1225,-2.0751,-2.0316,-2.0012,-2.0012,-1.9982,-1.9982,-1.9982,-1.9971,-1.9926,-1.9861,-1.9837,-1.9832,-1.9807,-1.9795,-1.9776,-1.9719,-1.9694,-1.9439,-1.9216,-1.921,-1.8961,-1.8598,-1.8196,-1.7773,-1.7219,-1.6691,-1.5798,-1.4725,-1.3804,-3.8132,-3.8323,-3.8323,-3.7846,-3.712,-3.668,-3.6126,-3.5534,-3.5515,-3.542,-3.5229,-3.519,-3.519,-3.5174,-3.5174,-3.5193,-3.5179,-3.5179,-3.5162,-3.5145,-3.5126,-3.5162,-3.5198,-3.5198,-3.5196,-3.5193,-3.519,-3.5174,-3.519,-3.5226,-3.5245,-3.5226,-3.5223,-3.5258,-3.5308,-3.5308,-3.5289,-3.5285,-3.5304,-3.5324,-3.5193,-3.4466,-3.3593,-3.2775,-3.1923,-3.114,-3.0548,-3.0204,-3.0204,-3.0204,-3.0204,-2.9421,-2.8045,-2.6995,-2.607,-2.5375,-2.5252,-2.5217,-2.5239,-2.5241,-2.5292,-2.5302,-2.5389,-2.5783,-2.6294,-2.7121,-2.7736,-2.8228,-2.8673,-2.8934,-2.8963,-2.8548,-2.8095,-2.7353,-2.6467,-2.5849,-2.5269,-2.5203,-2.512,-2.4848,-2.4517,-2.4068,-2.3531,-2.295,-2.2362,-2.1832,-2.1301,-2.0808,-2.0259,-2.0069,-2.0012,-1.9982,-1.9982,-1.9971,-1.9926,-1.9873,-1.9837,-1.9832,-1.9807,-1.9795,-1.9795,-1.9751,-1.9707,-1.9628,-1.9495,-1.9398,-1.9311,-1.9097,-1.8713,-1.8342,-1.798,-1.7431,-1.673,-1.5735,-1.4734,-3.7368,-3.7636,-3.7311,-3.6929,-3.6472,-3.6107,-3.5649,-3.5267,-3.519,-3.5193,-3.5176,-3.5193,-3.5193,-3.5176,-3.5196,-3.516,-3.5164,-3.5166,-3.5147,-3.511,-3.5092,-3.5129,-3.5147,-3.5166,-3.5164,-3.5143,-3.5176,-3.5176,-3.5174,-3.519,-3.519,-3.519,-3.5209,-3.5226,-3.5261,-3.5261,-3.5258,-3.5254,-3.5277,-3.5261,-3.5261,-3.4687,-3.3792,-3.2955,-3.2191,-3.1369,-3.0567,-3.0204,-3.0204,-3.0204,-3.0204,-2.9612,-2.8504,-2.7549,-2.6651,-2.5918,-2.549,-2.5206,-2.5217,-2.522,-2.5271,-2.5282,-2.5262,-2.5599,-2.5782,-2.657,-2.7715,-2.8283,-2.944,-2.9836,-2.9597,-2.9231,-2.8846,-2.8238,-2.6717,-2.5522,-2.5278,-2.521,-2.5126,-2.4961,-2.4763,-2.4682,-2.4138,-2.3613,-2.3063,-2.2684,-2.2135,-2.132,-2.074,-2.0134,-2.0058,-2.002,-2.0039,-1.9979,-1.9926,-1.9873,-1.9818,-1.9813,-1.9795,-1.9795,-1.9795,-1.9763,-1.9719,-1.9636,-1.9569,-1.9485,-1.9368,-1.9232,-1.907,-1.8699,-1.8426,-1.8139,-1.74,-1.6629,-1.5633,-3.6719,-3.7234,-3.6623,-3.6337,-3.6222,-3.5572,-3.5209,-3.519,-3.5193,-3.5196,-3.5181,-3.5196,-3.5179,-3.5181,-3.5164,-3.5127,-3.5092,-3.5092,-3.5075,-3.5075,-3.5057,-3.5075,-3.5075,-3.5075,-3.5092,-3.511,-3.5145,-3.5143,-3.5176,-3.5176,-3.5193,-3.5174,-3.519,-3.519,-3.519,-3.519,-3.519,-3.5207,-3.5209,-3.519,-3.519,-3.5152,-3.4216,-3.3394,-3.263,-3.1866,-3.0873,-3.0261,-3.0261,-3.0204,-3.0166,-2.9612,-2.8867,-2.7937,-2.7128,-2.6345,-2.5535,-2.5298,-2.5206,-2.5217,-2.5239,-2.5261,-2.5212,-2.5318,-2.5521,-2.6241,-2.7366,-2.8453,-2.9598,-3.0186,-2.996,-2.9875,-2.949,-2.8874,-2.7129,-2.557,-2.5477,-2.5352,-2.5216,-2.5105,-2.5042,-2.5037,-2.4701,-2.4195,-2.3803,-2.3423,-2.2836,-2.199,-2.1214,-2.0551,-2.0153,-2.0123,-2.0142,-2.0063,-1.9934,-1.9861,-1.9818,-1.9801,-1.9795,-1.9795,-1.9795,-1.9776,-1.9745,-1.9701,-1.9604,-1.9541,-1.9413,-1.9261,-1.9119,-1.8967,-1.8679,-1.836,-1.7931,-1.7175,-1.6378,-3.5534,-3.5668,-3.5515,-3.5458,-3.5439,-3.5267,-3.519,-3.5174,-3.5196,-3.5181,-3.5164,-3.5127,-3.511,-3.5129,-3.511,-3.5075,-3.502,-3.502,-3.4964,-3.4945,-3.4983,-3.4983,-3.5001,-3.502,-3.5057,-3.5075,-3.5092,-3.511,-3.5145,-3.5162,-3.5198,-3.5198,-3.5193,-3.5174,-3.519,-3.519,-3.5174,-3.519,-3.519,-3.519,-3.519,-3.5037,-3.4674,-3.3872,-3.3051,-3.2229,-3.135,-3.0567,-3.0319,-3.0204,-3.0166,-2.9726,-2.9115,-2.83,-2.7472,-2.667,-2.5829,-2.5363,-2.5279,-2.5214,-2.5236,-2.5228,-2.5209,-2.522,-2.5518,-2.5921,-2.6968,-2.7888,-2.8917,-2.9747,-2.9798,-3.0129,-2.9929,-2.9267,-2.7975,-2.6806,-2.6163,-2.5888,-2.5646,-2.5449,-2.5272,-2.5221,-2.5094,-2.4682,-2.4352,-2.3973,-2.3568,-2.2773,-2.2098,-2.1259,-2.0407,-2.0293,-2.0308,-2.007,-1.9926,-1.9842,-1.9806,-1.9801,-1.9807,-1.9807,-1.9807,-1.9795,-1.9763,-1.9726,-1.9662,-1.9587,-1.9442,-1.9338,-1.9182,-1.9035,-1.877,-1.8455,-1.8136,-1.7687,-1.6868]},{"header":{"parameterUnit":"m.s-1","parameterCategory":1,"la1":31.0,"la2":29.5877,"lo1":-88.7671,"lo2":-86.6584,"dy":0.0162,"dx":0.0185,"nx":115,"ny":88,"refTime":"2023-05-04T00:00:00:Z","depth":0,"parameterNumber":3,"parameterNumberName":"V-component_of_WINDS"},"data":[0.0,0.0,0.0,0.0,0.0,0.0,0.0,0.0,0.0,0.0,0.0,0.0,0.0,0.0,0.0,0.0,0.0,0.0,0.0,0.0,0.0,0.0,0.0,0.0,0.0,0.0,0.0,0.0,0.0,0.0,0.0,0.0,0.0,0.0,0.0,0.0,0.0,0.0,0.0,0.0,0.0,0.0,0.0,0.0,0.0,0.0,0.0,0.0,0.0,0.0,0.0,0.0,0.0,0.0,0.0,0.0,0.0,0.0,0.0,0.0,0.0,0.0,0.0,0.0,0.0,0.0,0.0,0.0,0.0,0.0,0.0,0.0,0.0,0.0,0.0,0.0,0.0,0.0,0.0,0.0,0.0,0.0,0.0,0.0,0.0,0.0,0.0,0.0,0.0,0.0,0.0,0.0,0.0,0.0,0.0,0.0,0.0,0.0,0.0,0.0,0.0,0.0,0.0,0.0,0.0,0.0,0.0,0.0,0.0,0.0,0.0,0.0,0.0,0.0,0.0,0.0,0.0,0.0,0.0,0.0,0.0,0.0,0.0,0.0,0.0,0.0,0.0,0.0,0.0,0.0,0.0,0.0,0.0,0.0,0.0,0.0,0.0,0.0,0.0,0.0,0.0,0.0,0.0,0.0,0.0,0.0,0.0,0.0,0.0,0.0,0.0,0.0,0.0,0.0,0.0,0.0,0.0,0.0,0.0,0.0,0.0,0.0,0.0,0.0,0.0,0.0,0.0,0.0,0.0,0.0,0.0,0.0,0.0,0.0,0.0,0.0,0.0,0.0,0.0,0.0,0.0,0.0,0.0,0.0,0.0,0.0,0.0,0.0,0.0,0.0,0.0,0.0,0.0,0.0,0.0,0.0,0.0,0.0,0.0,0.0,0.0,0.0,0.0,0.0,0.0,0.0,0.0,0.0,0.0,0.0,0.0,0.0,0.0,0.0,0.0,0.0,0.0,0.0,0.0,0.0,0.0,0.0,0.0,0.0,0.0,0.0,0.0,0.0,0.0,0.0,0.0,0.0,0.0,0.0,0.0,0.0,0.0,0.0,0.0,0.0,0.0,0.0,0.0,0.0,0.0,0.0,0.0,0.0,0.0,0.0,0.0,0.0,0.0,0.0,0.0,0.0,0.0,0.0,0.0,0.0,0.0,0.0,0.0,0.0,0.0,0.0,0.0,0.0,0.0,0.0,0.0,0.0,0.0,0.0,0.0,0.0,0.0,0.0,0.0,0.0,0.0,0.0,0.0,0.0,0.0,0.0,0.0,0.0,0.0,0.0,0.0,0.0,0.0,0.0,0.0,0.0,0.0,0.0,0.0,0.0,0.0,0.0,0.0,0.0,0.0,0.0,0.0,0.0,0.0,0.0,0.0,0.0,0.0,0.0,0.0,0.0,0.0,0.0,0.0,0.0,0.0,0.0,0.0,0.0,0.0,0.0,0.0,0.0,0.0,0.0,0.0,0.0,0.0,0.0,0.0,0.0,0.0,0.0,0.0,0.0,0.0,0.0,0.0,0.0,0.0,0.0,0.0,0.0,0.0,0.0,0.0,0.0,0.0,0.0,0.0,0.0,0.0,0.0,0.0,0.0,0.0,0.0,0.0,0.0,0.0,0.0,0.0,0.0,0.0,0.0,0.0,0.0,0.0,0.0,0.0,0.0,0.0,0.0,0.0,0.0,0.0,0.0,0.0,0.0,0.0,0.0,0.0,0.0,0.0,0.0,0.0,0.0,0.0,0.0,0.0,0.0,0.0,0.0,0.0,0.0,0.0,0.0,0.0,0.0,0.0,0.0,0.0,0.0,0.0,0.0,0.0,0.0,0.0,0.0,0.0,0.0,0.0,0.0,0.0,0.0,0.0,0.0,0.0,0.0,0.0,0.0,0.0,0.0,0.0,0.0,0.0,0.0,0.0,0.0,0.0,0.0,0.0,0.0,0.0,0.0,0.0,0.0,0.0,0.0,0.0,0.0,0.0,0.0,0.0,0.0,0.0,0.0,0.0,0.0,0.0,0.0,0.0,0.0,0.0,0.0,0.0,0.0,0.0,0.0,0.0,0.0,0.0,0.0,0.0,0.0,0.0,0.0,0.0,0.0,0.0,0.0,0.0,0.0,0.0,0.0,0.0,0.0,0.0,0.0,0.0,0.0,0.0,0.0,0.0,0.0,0.0,0.0,0.0,0.0,0.0,0.0,0.0,0.0,0.0,0.0,0.0,0.0,0.0,0.0,0.0,0.0,0.0,0.0,0.0,0.0,0.0,0.0,0.0,0.0,0.0,0.0,0.0,0.0,0.0,0.0,0.0,0.0,0.0,0.0,0.0,0.0,0.0,0.0,0.0,0.0,0.0,0.0,0.0,0.0,0.0,0.0,0.0,0.0,0.0,0.0,0.0,0.0,0.0,0.0,0.0,0.0,0.0,0.0,0.0,0.0,0.0,0.0,0.0,0.0,0.0,0.0,0.0,0.0,0.0,0.0,0.0,0.0,0.0,0.0,0.0,0.0,0.0,0.0,0.0,0.0,0.0,0.0,0.0,0.0,0.0,0.0,0.0,0.0,0.0,0.0,0.0,0.0,0.0,0.0,0.0,0.0,0.0,0.0,0.0,0.0,0.0,0.0,0.0,0.0,0.0,0.0,0.0,0.0,0.0,0.0,0.0,0.0,0.0,0.0,0.0,0.0,0.0,0.0,0.0,0.0,0.0,0.0,0.0,0.0,0.0,0.0,0.0,0.0,0.0,0.0,0.0,0.0,0.0,0.0,0.0,0.0,0.0,0.0,0.0,0.0,0.0,0.0,0.0,0.0,0.0,0.0,0.0,0.0,0.0,0.0,0.0,0.0,0.0,0.0,0.0,0.0,0.0,0.0,0.0,0.0,0.0,0.0,0.0,0.0,0.0,0.0,0.0,0.0,0.0,0.0,0.0,0.0,0.0,0.0,0.0,0.0,0.0,0.0,0.0,0.0,0.0,0.0,0.0,0.0,0.0,0.0,0.0,0.0,0.0,0.0,0.0,0.0,0.0,0.0,0.0,0.0,0.0,0.0,0.0,0.0,0.0,0.0,0.0,0.0,0.0,0.0,0.0,0.0,0.0,0.0,0.0,0.0,0.0,0.0,0.0,0.0,0.0,0.0,0.0,0.0,0.0,0.0,0.0,0.0,0.0,0.0,0.0,0.0,0.0,0.0,0.0,0.0,0.0,0.0,0.0,0.0,0.0,0.0,0.0,0.0,0.0,0.0,0.0,0.0,0.0,0.0,0.0,0.0,0.0,0.0,0.0,0.0,0.0,0.0,0.0,0.0,0.0,0.0,0.0,0.0,0.0,0.0,0.0,0.0,0.0,0.0,0.0,0.0,0.0,0.0,0.0,0.0,0.0,0.0,0.0,0.0,0.0,0.0,0.0,0.0,0.0,0.0,0.0,0.0,0.0,0.0,0.0,0.0,0.0,0.0,0.0,0.0,0.0,0.0,0.0,0.0,0.0,0.0,0.0,0.0,0.0,0.0,0.0,0.0,0.0,0.0,0.0,0.0,0.0,0.0,0.0,0.0,0.0,0.0,0.0,0.0,0.0,0.0,0.0,0.0,0.0,0.0,0.0,0.0,0.0,0.0,0.0,0.0,0.0,0.0,0.0,0.0,0.0,0.0,0.0,0.0,0.0,0.0,0.0,0.0,0.0,0.0,0.0,0.0,0.0,0.0,0.0,0.0,0.0,0.0,0.0,0.0,0.0,0.0,0.0,0.0,0.0,0.0,0.0,0.0,0.0,0.0,0.0,0.0,0.0,0.0,0.0,0.0,0.0,0.0,0.0,0.0,0.0,0.0,0.0,0.0,0.0,0.0,0.0,0.0,0.0,0.0,0.0,0.0,0.0,0.0,0.0,0.0,0.0,0.0,0.0,0.0,0.0,0.0,0.0,0.0,0.0,0.0,0.0,0.0,0.0,0.0,0.0,0.0,0.0,0.0,0.0,0.0,0.0,0.0,0.0,0.0,0.0,0.0,0.0,0.0,0.0,0.0,0.0,0.0,0.0,0.0,0.0,0.0,0.0,0.0,0.0,0.0,0.0,0.0,0.0,0.0,0.0,0.0,0.0,0.0,0.0,0.0,0.0,0.0,0.0,0.0,0.0,0.0,0.0,0.0,0.0,0.0,0.0,0.0,0.0,0.0,0.0,0.0,0.0,0.0,0.0,0.0,0.0,0.0,0.0,0.0,0.0,0.0,0.0,0.0,0.0,0.0,0.0,0.0,0.0,0.0,0.0,0.0,0.0,0.0,0.7149,0.0,0.0,0.0,0.0,0.0,0.0,0.0,0.0,0.0,0.0,0.0,0.0,0.0,0.0,0.0,0.0,0.0,0.0,0.0,0.0,0.0,0.0,0.0,0.0,0.0,0.0,0.0,0.0,0.0,0.0,0.0,0.0,0.0,0.0,0.0,0.0,0.0,0.0,0.0,0.0,0.0,0.0,0.0,0.0,0.0,0.0,0.0,0.0,0.0,0.0,0.0,0.0,0.0,0.0,0.0,0.0,0.0,0.0,0.0,0.0,0.0,0.0,0.0,0.0,0.0,0.0,0.0,0.0,0.0,0.0,0.0,0.0,0.0,0.0,0.0,0.0,0.0,0.0,0.0,0.0,0.0,0.0,0.0,0.0,0.0,0.0,0.0,0.0,0.0,0.0,0.0,0.0,0.0,0.0,0.0,0.0,0.0,0.0,0.0,0.0,0.0,0.0,0.0,0.0,0.0,0.0,0.0,0.0,0.0,0.0,0.6352,0.6282,0.7139,0.7551,0.742,0.0,0.0,0.0,0.0,0.0,0.0,0.0,0.0,0.0,0.0,0.0,0.0,0.0,0.0,0.0,0.0,0.0,0.0,0.0,0.0,0.0,0.0,0.0,0.0,0.0,0.0,0.0,0.0,0.0,0.0,0.0,0.0,0.0,0.0,0.0,0.0,0.0,0.0,0.0,0.0,0.0,0.0,0.0,0.0,0.0,0.0,0.0,0.0,0.0,0.0,0.0,0.0,0.0,0.0,0.0,0.0,0.0,0.0,0.0,0.0,0.0,0.0,0.0,0.0,0.0,0.0,0.0,0.0,0.0,0.0,0.0,0.0,0.0,0.0,0.0,0.0,0.0,0.0,0.0,0.0,0.0,0.0,0.0,0.0,0.0,0.0,0.0,0.0,0.0,0.0,0.0,0.0,0.0,0.0,0.0,0.0,0.0,0.0,0.0,0.0,0.0,0.0,0.0,0.0,0.0,0.0,0.0,0.0,0.0,0.0,0.0,0.0,0.7662,0.7873,0.7724,0.0,0.0,0.0,0.0,0.0,0.0,0.0,0.0,0.0,0.0,0.0,0.0,0.0,0.0,0.0,0.0,0.0,0.0,0.0,0.0,0.0,0.0,0.0,0.0,0.0,0.0,0.0,0.0,0.0,0.0,0.0,0.0,0.0,0.0,0.0,0.0,0.0,0.0,0.0,0.0,0.0,0.0,0.0,0.0,0.0,0.0,0.0,0.0,0.0,0.0,0.0,0.0,0.0,0.0,0.0,0.0,0.0,0.0,0.0,0.0,0.0,0.0,0.0,0.0,0.0,0.0,0.0,0.0,0.0,0.0,0.0,0.0,0.0,0.0,0.0,0.0,0.0,0.0,0.0,0.0,0.0,0.0,0.0,0.0,0.0,0.0,0.0,0.0,0.0,0.0,0.0,0.0,0.0,0.0,0.0,0.0,0.0,0.0,0.0,0.0,0.0,0.0,0.0,0.0,0.0,0.0,0.0,0.0,0.0,0.0,0.7961,0.79,0.8476,0.0,0.8332,0.0,0.0,0.0,0.0,0.0,0.0,0.0,0.0,0.0,0.0,0.0,0.0,0.0,0.0,0.0,0.0,0.0,0.0,0.0,0.0,0.0,0.0,0.0,0.0,0.0,0.0,0.0,0.0,0.0,0.0,0.0,0.0,0.0,0.0,0.0,0.0,0.0,0.0,0.0,0.0,0.0,0.0,0.0,0.0,0.0,0.0,0.0,0.0,0.0,0.0,0.0,0.0,0.0,0.0,0.0,0.0,0.0,0.0,0.0,0.0,0.0,0.0,0.0,0.0,0.0,0.0,0.0,0.0,0.0,0.0,0.0,0.0,0.0,0.0,0.0,0.0,0.0,0.0,0.0,0.0,0.0,0.0,0.0,0.0,0.0,0.0,0.0,0.0,0.0,0.0,0.0,0.0,0.0,0.0,0.0,0.0,0.0,0.0,0.0,0.0,0.0,0.0,0.0,0.0,0.0,0.0,0.0,0.0,0.0,0.0,0.8695,0.8588,0.8712,0.8677,0.0,0.0,0.0,0.0,0.0,0.0,0.0,0.0,0.0,0.0,0.0,0.0,0.0,0.0,0.0,0.0,0.0,0.0,0.0,0.0,0.0,0.0,0.0,0.0,0.0,0.0,0.0,0.0,0.0,0.0,0.0,0.0,0.0,0.0,0.0,0.0,0.0,0.0,0.0,0.0,0.0,0.0,0.0,0.0,0.0,0.0,0.0,0.0,0.0,0.0,0.0,0.0,0.0,0.0,0.0,0.0,0.0,0.0,0.0,0.0,0.0,0.0,0.0,0.0,0.0,0.0,0.0,0.0,0.0,0.0,0.0,0.0,0.0,0.0,0.0,0.0,0.0,0.0,0.0,0.0,0.0,0.0,0.0,0.0,0.0,0.0,0.0,0.0,0.0,0.0,0.0,0.0,0.0,0.0,0.0,0.0,0.0,0.0,0.0,0.0,0.0,0.0,0.0,0.0,0.0,0.0,0.0,0.0,0.0,0.0,0.8372,0.9047,0.8908,0.8736,0.8596,0.8486,0.0,0.0,0.0,0.0,0.0,0.0,0.0,0.0,0.0,0.0,0.0,0.0,0.0,0.0,0.0,0.0,0.0,0.0,0.0,0.0,0.0,0.0,0.0,0.0,0.0,0.0,0.0,0.0,0.0,0.0,0.0,0.0,0.0,0.0,0.0,0.0,0.0,0.0,0.0,0.0,0.0,0.0,0.0,0.0,0.0,0.0,0.0,0.0,0.0,0.0,0.0,0.0,0.0,0.0,0.0,0.0,0.0,0.0,0.0,0.0,0.0,0.0,0.0,0.0,0.0,0.0,0.0,0.0,0.0,0.0,0.0,0.0,0.0,0.0,0.0,0.0,0.0,0.0,0.0,0.0,0.0,0.0,0.0,0.0,0.0,0.0,0.0,0.0,0.0,0.0,0.0,0.0,0.0,0.0,0.0,0.0,0.0,0.0,0.0,0.0,0.0,0.0,0.0,0.0,0.0,0.0,0.0,0.0,0.6837,0.8192,0.8807,0.8624,0.8538,0.8492,0.0,0.0,0.0,0.0,0.0,0.0,0.0,0.0,0.0,0.0,0.0,0.0,0.0,0.0,0.0,0.0,0.0,0.0,0.0,0.0,0.0,0.0,0.0,0.0,0.0,0.0,0.0,0.0,0.0,0.0,0.0,0.0,0.0,0.0,0.0,0.0,0.0,0.0,0.0,0.0,0.0,0.0,0.0,0.0,0.0,0.0,0.0,0.0,0.0,0.0,0.0,0.0,0.0,0.0,0.0,0.0,0.0,0.0,0.0,0.0,0.0,0.0,0.0,0.0,0.0,0.0,0.0,0.0,0.0,0.0,0.0,0.0,0.0,0.0,0.0,0.0,0.0,0.0,0.0,0.0,0.0,0.0,0.0,0.0,0.0,0.0,0.0,0.0,0.0,0.0,0.0,0.0,0.0,0.0,0.0,0.0,0.0,0.0,0.0,0.0,0.0,0.0,0.0,0.0,0.0,0.0,0.0,0.0,0.0,0.6577,0.7824,0.8465,0.8348,0.8322,0.8298,0.0,0.0,0.0,0.0,0.0,0.0,0.0,0.0,0.0,0.0,0.0,0.0,0.0,0.0,0.0,0.0,0.0,0.0,0.0,0.0,0.0,0.0,0.0,0.0,0.0,0.0,0.0,0.0,0.0,0.0,0.0,0.0,0.0,0.0,0.0,0.0,0.0,0.0,0.0,0.0,0.0,0.0,0.0,0.0,0.0,0.0,0.0,0.0,0.0,0.0,0.0,0.0,0.0,0.0,0.0,0.0,0.0,0.0,0.0,0.0,0.0,0.0,0.0,0.0,0.0,0.0,0.0,0.0,0.0,0.0,0.0,0.0,0.0,0.0,0.0,0.0,0.0,0.0,0.0,0.0,0.0,0.0,0.0,0.0,0.0,0.0,0.0,0.0,0.0,0.0,0.0,0.0,0.0,0.0,0.0,0.0,0.0,0.0,0.0,0.0,0.0,0.0,0.0,0.0,0.0,0.0,0.0,0.0,0.0,0.6537,0.0,0.8059,0.7994,0.8039,0.8068,0.0,0.0,0.0,0.0,0.0,0.0,0.0,0.0,0.0,0.0,0.0,0.0,0.0,0.0,0.0,0.0,0.0,0.0,0.0,0.0,0.0,0.0,0.0,0.0,0.0,0.0,0.0,0.0,0.0,0.0,0.0,0.0,0.0,0.0,0.0,0.0,0.0,0.0,0.0,0.0,0.0,0.0,0.0,0.0,0.0,0.0,0.0,0.0,0.0,0.0,0.0,0.0,0.0,0.0,0.0,0.0,0.0,0.0,0.0,0.0,0.0,0.0,0.0,0.0,0.0,0.0,0.0,0.0,0.0,0.0,0.0,0.0,0.0,0.0,0.0,0.0,0.0,0.0,0.0,0.0,0.0,0.0,0.0,0.0,0.0,0.0,0.0,0.0,0.0,0.0,0.0,0.0,0.0,0.0,0.0,0.0,0.0,0.0,0.0,0.0,0.0,0.0,0.0,0.0,0.0,0.0,0.0,0.0,0.552,0.673,0.7384,0.768,0.759,0.7724,0.7812,0.0,0.0,0.0,0.0,0.0,0.0,0.0,0.0,0.0,0.0,0.0,0.0,0.0,0.0,0.0,0.0,0.0,0.0,0.0,0.0,0.0,0.0,0.0,0.0,0.0,0.0,0.0,0.0,0.0,0.0,0.0,0.0,0.0,0.0,0.0,0.0,0.0,0.0,0.0,0.0,0.0,0.0,0.0,0.0,0.0,0.0,0.0,0.0,0.0,0.0,0.0,0.0,0.0,0.0,0.0,0.0,0.0,0.0,0.0,0.0,0.0,0.0,0.0,0.0,0.0,0.0,0.0,0.0,0.0,0.0,0.0,0.0,0.0,0.0,0.0,0.0,0.0,0.0,0.0,0.0,0.0,0.0,0.0,0.0,0.0,0.0,0.0,0.0,0.0,0.0,0.0,0.0,0.0,0.0,0.0,0.0,0.0,0.0,0.0,0.0,0.0,0.0,0.0,0.0,0.0,0.0,0.0,0.0,0.0,0.6173,0.6861,0.7254,0.7314,0.739,0.7528,0.0,0.0,0.0,0.0,0.0,0.0,0.0,0.0,0.0,0.0,0.0,0.0,0.0,0.0,0.0,0.0,0.0,0.0,0.0,0.0,0.0,0.0,0.0,0.0,0.0,0.0,0.0,0.0,0.0,0.0,0.0,0.0,0.0,0.0,0.0,0.0,0.0,0.0,0.0,0.0,0.0,0.0,0.0,0.0,0.0,0.0,0.0,0.0,0.0,0.0,0.0,0.0,0.0,0.0,0.0,0.0,0.0,0.0,0.0,0.0,0.0,0.0,0.0,0.0,0.0,0.0,0.0,0.0,0.0,0.0,0.0,0.0,0.0,0.0,0.0,0.0,0.0,0.0,0.0,0.0,0.0,0.0,0.0,0.0,0.0,0.0,0.0,0.0,0.0,0.0,0.0,0.0,0.0,0.0,0.0,0.0,0.0,0.0,0.0,0.0,0.0,0.0,0.0,0.0,0.0,0.0,0.0,0.0,0.0,0.5953,0.6495,0.6927,0.7265,0.7209,0.734,0.7744,0.0,0.0,0.0,0.0,0.0,0.0,0.0,0.0,0.0,0.0,0.0,0.0,0.0,0.0,0.0,0.0,0.0,0.0,0.0,0.0,0.0,0.0,0.0,0.0,0.0,0.0,0.0,0.0,0.0,0.0,0.0,0.0,0.0,0.0,0.0,0.0,0.0,0.0,0.0,0.0,0.0,0.0,0.0,0.0,0.0,0.0,0.0,0.0,0.0,0.0,0.0,0.0,0.0,0.0,0.0,0.0,0.0,0.0,0.0,0.0,0.0,0.0,0.0,0.0,0.0,0.0,0.0,0.0,0.0,0.0,0.0,0.0,0.0,0.0,0.0,0.0,0.0,0.0,0.0,0.0,0.0,0.0,0.0,0.0,0.0,0.0,0.0,0.0,0.0,0.0,0.0,0.0,0.0,0.0,0.0,0.0,0.0,0.0,0.0,0.0,0.0,0.0,0.0,0.0,0.0,0.0,0.0,0.0,0.6083,0.6299,0.6736,0.74,0.7109,0.727,0.0,0.0,0.0,0.0,0.0,0.0,0.0,0.0,0.0,0.0,0.0,0.0,0.0,0.0,0.0,0.0,0.0,0.0,0.0,0.0,0.0,0.0,0.0,0.0,0.0,0.0,0.0,0.0,0.0,0.0,0.0,0.0,0.0,0.0,0.0,0.0,0.0,0.0,0.0,0.0,0.0,0.0,0.0,0.0,0.0,0.0,0.0,0.0,0.0,0.0,0.0,0.0,0.0,0.0,0.0,0.0,0.0,0.0,0.0,0.0,0.0,0.0,0.0,0.0,0.0,0.0,0.0,0.0,0.0,0.0,0.0,0.0,0.0,0.0,0.0,0.0,0.0,0.0,0.0,0.0,0.0,0.0,0.0,0.0,0.0,0.0,0.0,0.0,0.0,0.0,0.0,0.0,0.0,0.0,0.0,0.0,0.0,0.0,0.0,0.0,0.0,0.0,0.0,0.0,0.0,0.0,0.0,0.0,0.0,0.5937,0.6388,0.6947,0.7576,0.7291,0.7528,0.0,0.0,0.0,0.0,0.0,0.0,0.0,0.0,0.0,0.0,0.0,0.0,0.0,0.0,0.0,0.0,0.0,0.0,0.0,0.0,0.0,0.0,0.0,0.0,0.0,0.0,0.0,0.0,0.0,0.0,0.0,0.0,0.0,0.0,0.0,0.0,0.0,0.0,0.0,0.0,0.0,0.0,0.0,0.0,0.0,0.0,0.0,0.0,0.0,0.0,0.0,0.0,0.0,0.0,0.0,0.0,0.0,0.0,0.0,0.0,0.0,0.0,0.0,0.0,0.0,0.0,0.0,0.0,0.0,0.0,0.0,0.0,0.0,0.0,0.0,0.0,0.0,0.0,0.0,0.0,0.0,0.0,0.0,0.0,0.0,0.0,0.0,0.0,0.0,0.0,0.0,0.0,0.0,0.0,0.0,0.0,0.0,0.0,0.0,0.0,0.0,0.0,0.0,0.0,0.0,0.0,0.0,0.0,0.5414,0.6013,0.6726,0.7384,0.8037,0.7686,0.7909,0.0,0.0,0.0,0.0,0.0,0.0,0.0,0.0,0.0,0.0,0.0,0.0,0.0,0.0,0.0,0.0,0.0,0.0,0.0,0.0,0.0,0.0,0.0,0.0,0.0,0.0,0.0,0.0,0.0,0.0,0.0,0.0,0.0,0.0,0.0,0.0,0.0,0.0,0.0,0.0,0.0,0.0,0.0,0.0,0.0,0.0,0.0,0.0,0.0,0.0,0.0,0.0,0.0,0.0,0.0,0.0,0.0,0.0,0.0,0.0,0.0,0.0,0.0,0.0,0.0,0.0,0.0,0.0,0.0,0.0,0.0,0.0,0.0,0.0,0.0,0.0,0.0,0.0,0.0,0.0,0.0,0.0,0.0,0.0,0.0,0.0,0.0,0.0,0.0,0.0,0.0,0.0,0.0,0.0,0.0,0.0,0.0,0.0,0.0,0.0,0.0,0.0,0.0,0.0,0.0,0.0,0.0,0.0,0.5463,0.6214,0.71,0.7859,0.8434,0.8129,0.8351,0.0,0.0,0.0,0.0,0.0,0.0,0.0,0.0,0.0,0.0,0.0,0.0,0.0,0.0,0.0,0.0,0.0,0.0,0.0,0.0,0.0,0.0,0.0,0.0,0.0,0.0,0.0,0.0,0.0,0.0,0.0,0.0,0.0,0.0,0.0,0.0,0.0,0.0,0.0,0.0,0.0,0.0,0.0,0.0,0.0,0.0,0.0,0.0,0.0,0.0,0.0,0.0,0.0,0.0,0.0,0.0,0.0,0.0,0.0,0.0,0.0,0.0,0.0,0.0,0.0,0.0,0.0,0.0,0.0,0.0,0.0,0.0,0.0,0.0,0.0,0.0,0.0,0.0,0.0,0.0,0.0,0.0,0.0,0.0,0.0,0.0,0.0,0.0,0.0,0.0,0.0,0.0,0.0,0.0,0.0,0.0,0.0,0.0,0.0,0.0,0.0,0.0,0.0,0.0,0.0,0.0,0.0,0.0,0.5358,0.6342,0.7023,0.7656,0.8223,0.8219,0.8717,0.0,0.0,0.0,0.0,0.0,0.0,0.0,0.0,0.0,0.0,0.0,0.0,0.0,0.0,0.0,0.0,0.0,0.0,0.0,0.0,0.0,0.0,0.0,0.0,0.0,0.0,0.0,0.0,0.0,0.0,0.0,0.0,0.0,0.0,0.0,0.0,0.0,0.0,0.0,0.0,0.0,0.0,0.0,0.0,0.0,0.0,0.0,0.0,0.789,0.0,0.0,0.0,0.0,0.0,0.0,0.0,0.0,0.0,0.0,0.0,0.0,0.0,0.0,0.0,0.0,0.0,0.0,0.0,0.0,0.0,0.0,0.0,0.0,0.0,0.0,0.0,0.0,0.0,0.0,0.0,0.0,0.0,0.0,0.0,0.0,0.0,0.0,0.0,0.0,0.0,0.0,0.0,0.0,0.0,0.0,0.0,0.0,0.0,0.0,0.0,0.0,0.0,0.0,0.0,0.0,0.0,0.0,0.0,0.5197,0.6228,0.685,0.7452,0.8042,0.8382,0.8942,0.0,0.0,0.0,0.0,0.0,0.0,0.0,0.0,0.0,0.0,0.0,0.0,0.0,0.0,0.0,0.0,0.0,0.0,0.0,0.0,0.0,0.0,0.0,0.0,0.0,0.0,0.0,0.0,0.0,0.0,0.0,0.0,0.0,0.0,0.0,0.0,0.0,0.0,0.0,0.0,0.0,0.0,0.0,0.0,0.0,0.0,0.0,0.0,0.0,0.0,0.0,0.0,0.0,0.0,0.0,0.0,0.0,0.0,0.0,0.0,0.0,0.0,0.0,0.0,0.0,0.0,0.0,0.0,0.0,0.0,0.0,0.0,0.0,0.0,0.0,0.0,0.0,0.0,0.0,0.0,0.0,0.0,0.0,0.0,0.0,0.0,0.0,0.0,0.0,0.0,0.0,0.0,0.0,0.0,0.0,0.0,0.0,0.0,0.0,0.0,0.0,0.0,0.0,0.0,0.0,0.0,0.0,0.4474,0.5059,0.6029,0.6648,0.7255,0.783,0.8456,0.9074,0.9684,0.0,0.0,0.0,0.0,0.0,0.0,0.0,0.0,0.0,0.0,0.0,0.0,0.0,0.0,0.0,0.0,0.0,0.0,0.0,0.0,0.0,0.0,0.0,0.0,0.0,0.0,0.0,0.0,0.0,0.0,0.0,0.0,0.0,0.0,0.0,0.0,0.0,0.0,1.0324,1.0322,0.0,0.0,0.0,0.0,0.0,0.0,0.0,0.0,1.0185,0.0,0.0,0.0,0.0,0.0,0.0,0.0,0.0,0.0,0.0,0.0,0.0,0.0,0.0,0.0,0.0,0.0,0.0,0.0,0.0,0.0,0.0,0.0,0.0,0.0,0.0,0.0,0.0,0.0,0.0,0.0,0.0,0.0,0.0,0.0,0.0,0.0,0.0,0.0,0.0,0.0,0.0,0.0,0.0,0.0,0.0,0.0,0.0,0.0,0.0,0.0,0.0,0.0,0.0,0.0,0.0,0.4125,0.4389,0.5004,0.5967,0.6496,0.7059,0.7715,0.8372,0.8981,0.9607,0.0,0.0,0.0,0.0,0.0,0.0,0.0,0.0,0.0,0.0,0.0,0.0,0.0,0.0,0.0,0.0,0.0,0.0,0.0,0.0,0.0,0.0,0.0,0.0,0.0,0.0,0.0,0.0,0.0,0.0,0.0,0.0,0.0,0.0,0.0,0.0,0.0,0.0,0.0,1.0324,1.0284,0.0,0.0,0.0,0.0,0.0,0.0,0.0,0.0,1.011,0.0,0.0,0.0,0.0,0.0,0.0,0.0,0.0,0.0,0.0,0.0,0.0,0.0,0.0,0.0,0.0,0.0,0.0,0.0,0.0,0.0,0.0,0.0,0.0,0.0,0.0,0.0,0.0,0.0,0.0,0.0,0.0,0.0,0.0,0.0,0.0,0.0,0.0,0.0,0.0,0.0,0.0,0.0,0.0,0.0,0.0,0.0,0.0,0.0,0.0,0.0,0.0,0.0,0.0,0.0,0.3933,0.4297,0.4916,0.5774,0.6283,0.688,0.7588,0.8145,0.875,0.0,0.0,0.0,0.0,0.0,0.0,0.0,0.0,0.0,0.0,0.0,0.0,0.0,0.0,0.0,0.0,0.0,0.0,0.0,0.0,0.0,0.0,0.0,0.0,0.0,0.0,0.0,0.0,0.0,0.0,0.0,0.0,0.0,0.0,0.0,0.0,0.0,0.0,0.0,0.0,1.0324,1.0324,1.0324,0.0,0.0,0.0,0.0,0.0,0.0,1.0195,1.0185,0.0,0.0,0.0,0.0,0.0,0.0,0.0,0.0,0.0,0.0,0.0,0.0,0.0,0.0,0.0,0.0,0.0,0.0,0.0,0.0,0.0,0.0,0.0,0.0,0.0,0.0,0.0,0.0,0.0,0.0,0.0,0.0,0.0,0.0,0.0,0.0,0.0,0.0,0.0,0.0,0.0,0.0,0.0,0.0,0.0,0.0,0.0,0.0,0.0,0.0,0.0,0.0,0.0,0.0,0.0,0.3804,0.4204,0.4761,0.5456,0.6006,0.6656,0.7362,0.7869,0.8456,0.0,0.0,0.0,0.0,0.0,0.0,0.0,0.0,0.0,0.0,0.0,0.0,0.0,0.0,0.0,0.0,0.0,0.0,0.0,0.0,0.0,0.0,0.0,0.0,0.0,0.0,0.0,0.0,0.0,0.0,0.0,0.0,0.0,0.0,0.0,0.0,0.0,0.0,0.0,0.0,0.0,1.0323,1.0323,1.0321,0.0,0.0,0.0,0.0,1.0185,1.019,0.0,0.0,0.0,0.0,0.0,0.0,0.0,0.0,0.0,0.0,0.0,0.0,0.0,0.0,0.0,0.0,0.0,0.0,0.0,0.0,0.0,0.0,0.0,0.0,0.0,0.0,0.0,0.0,0.0,0.0,0.0,0.0,0.0,0.0,0.0,0.0,0.0,0.0,0.0,0.0,0.0,0.0,0.0,0.0,0.0,0.0,0.0,0.0,0.0,0.0,0.0,0.0,0.0,0.0,0.0,0.0,0.3785,0.4023,0.449,0.5143,0.5665,0.6291,0.6966,0.753,0.8153,0.0,0.0,0.0,0.0,0.0,0.0,0.0,0.0,0.0,0.0,0.0,0.0,0.0,0.0,0.0,0.0,0.0,0.0,0.0,0.0,0.0,0.0,0.0,0.0,0.0,0.0,0.0,0.0,0.0,0.0,0.0,0.0,0.0,0.0,0.0,0.0,0.0,0.0,0.0,0.0,0.0,1.0317,1.032,1.032,1.0276,0.0,0.0,1.0198,1.0195,1.0202,0.0,0.0,0.0,0.0,0.0,0.0,0.0,0.0,0.0,0.0,0.0,0.0,0.0,0.0,0.0,0.0,0.0,0.0,0.0,0.0,0.0,0.0,0.0,0.0,0.0,0.0,0.0,0.0,0.0,0.0,0.0,0.0,0.0,0.0,0.0,0.0,0.0,0.0,0.0,0.0,0.0,0.0,0.0,0.0,0.0,0.0,0.0,0.0,0.0,0.0,0.0,0.0,0.0,0.0,0.0,0.3151,0.3451,0.3812,0.4266,0.4814,0.5295,0.5921,0.6648,0.7148,0.7763,0.0,0.0,0.0,0.0,0.0,0.0,0.0,0.0,0.0,0.0,0.0,0.0,0.0,0.0,0.0,0.0,0.0,0.0,0.0,0.0,0.0,0.0,0.0,0.0,0.0,0.0,0.0,0.0,0.0,0.0,0.0,0.0,0.0,0.0,0.0,0.0,0.0,0.0,0.0,0.0,0.0,0.0,1.0293,1.0251,0.0,0.0,0.0,1.0194,1.0194,0.0,0.0,0.0,0.0,0.0,0.0,0.0,0.0,0.0,0.0,0.0,0.0,0.0,0.0,0.0,0.0,0.0,0.0,0.0,0.0,0.0,0.0,0.0,0.0,0.0,0.0,0.0,0.0,0.0,0.0,0.0,0.0,0.0,0.0,0.0,0.0,0.0,0.0,0.0,0.0,0.0,0.0,0.0,0.0,0.0,0.0,0.0,0.0,0.0,0.0,0.0,0.0,0.0,0.0,0.0,0.0,0.0,0.3106,0.3492,0.3918,0.4409,0.489,0.5487,0.6371,0.6742,0.0,0.0,0.0,0.0,0.0,0.0,0.0,0.0,0.0,0.0,0.0,0.0,0.0,0.0,0.0,0.0,0.0,0.0,0.0,0.0,0.0,0.0,0.0,0.0,0.0,0.0,0.0,1.005,0.0,0.0,0.0,0.0,0.0,0.0,0.0,0.0,0.0,0.0,0.0,0.0,0.0,0.0,1.0224,1.0279,1.0232,1.019,0.0,0.0,1.0173,1.018,1.0186,1.0164,0.0,0.0,0.0,0.0,0.0,0.0,0.0,0.0,0.0,0.0,0.0,0.0,0.0,0.0,0.0,0.0,0.0,0.0,0.0,0.0,0.0,0.0,0.0,0.0,0.0,0.0,0.0,0.0,0.0,0.0,0.0,0.0,0.0,0.0,0.0,0.0,0.0,0.0,0.0,0.0,0.0,0.0,0.0,0.0,0.0,0.0,0.0,0.0,0.0,0.0,0.0,0.0,0.0,0.0,0.0,0.2834,0.3035,0.3434,0.3951,0.4339,0.5028,0.6008,0.6372,0.7015,0.0,0.0,0.0,0.0,0.0,0.0,0.0,0.0,0.0,0.0,0.0,0.0,0.0,0.0,0.0,0.0,0.0,0.0,0.0,0.0,0.0,0.0,0.0,0.0,0.0,0.0,0.0,0.0,0.0,0.0,0.0,0.0,0.0,0.0,0.0,0.0,0.0,0.0,0.0,0.0,0.0,1.02,1.0215,1.02,1.0183,0.0,0.0,1.01,1.0094,1.0097,1.0095,1.0101,0.0,0.0,0.0,0.0,0.0,0.0,0.0,0.0,0.0,0.0,0.0,0.0,0.0,0.0,0.0,0.0,0.0,0.0,0.0,0.0,0.0,0.0,0.0,0.0,0.0,0.0,0.0,0.0,0.0,0.0,0.0,0.0,0.0,0.0,0.0,0.0,0.0,0.0,0.0,0.0,0.0,0.0,0.0,0.0,0.0,0.0,0.0,0.0,0.0,0.0,0.0,0.0,0.0,0.2211,0.235,0.261,0.2973,0.3467,0.3956,0.4545,0.5327,0.5848,0.6523,0.0,0.0,0.0,0.0,0.0,0.0,0.0,0.0,0.0,0.0,0.0,0.0,0.0,0.0,0.0,0.0,0.0,0.0,0.0,0.0,0.0,0.0,0.0,0.0,0.0,0.0,0.0,0.0,0.8745,0.8661,1.0076,0.0,0.0,0.0,0.0,0.0,0.0,0.0,0.0,0.0,0.0,1.014,1.0138,1.0136,0.0,0.0,0.9987,0.9984,1.0025,1.0034,1.0048,1.0043,1.0014,0.0,0.0,0.0,0.0,0.0,0.0,0.0,0.0,0.0,0.0,0.0,0.0,0.0,0.0,0.0,0.0,0.0,0.0,0.0,0.0,0.0,0.0,0.0,0.0,0.0,0.0,0.0,0.0,0.0,0.0,0.0,0.0,0.0,0.0,0.0,0.0,0.0,0.0,0.0,0.0,0.0,0.0,0.0,0.0,0.0,0.0,0.0,0.0,0.0,0.0,0.0,0.0,0.1786,0.1926,0.2195,0.2543,0.2977,0.3467,0.4084,0.4811,0.5488,0.6183,0.0,0.0,0.0,0.0,0.0,0.0,0.0,0.0,0.0,0.0,0.0,0.0,0.0,0.0,0.0,0.0,0.0,0.0,0.0,0.0,0.0,0.0,0.0,0.0,0.0,0.0,0.0,0.0,0.785,0.7657,0.9919,0.0,0.0,0.0,0.0,0.0,0.0,0.0,0.0,0.0,0.0,1.0054,1.0039,1.0054,1.0005,0.9888,0.9857,0.9863,0.9954,0.9978,0.9978,0.999,0.0,0.0,0.0,0.0,0.0,0.0,0.0,0.0,0.0,0.0,0.0,0.0,0.0,0.0,0.0,0.0,0.0,0.0,0.0,0.0,0.0,0.0,0.0,0.0,0.0,0.0,0.0,0.0,0.0,0.0,0.3384,0.0,0.0,0.0,0.0,0.0,0.0,0.0,0.0,0.0,0.0,0.0,0.0,0.0,0.0,0.0,0.0,0.0,0.0,0.0,0.0,0.0,0.0,0.1449,0.1519,0.1791,0.2111,0.251,0.2907,0.3617,0.4669,0.5274,0.6024,0.6901,0.0,0.0,0.0,0.0,0.0,0.0,0.0,0.0,0.0,0.0,0.0,0.0,0.0,0.0,0.0,0.0,0.0,0.0,0.0,0.0,0.0,0.0,0.0,0.0,0.0,0.0,0.7697,0.7116,0.763,0.0,0.0,0.0,0.0,0.0,0.0,0.0,0.0,0.0,0.0,0.9952,0.9912,0.9913,0.9954,0.9936,0.9822,0.9743,0.9745,0.9869,0.9907,0.9894,0.0,0.0,0.0,0.0,0.0,0.0,0.0,0.0,0.0,0.0,0.0,0.0,0.0,0.0,0.0,0.0,0.0,0.0,0.0,0.0,0.0,0.0,0.0,0.0,0.0,0.0,0.0,0.3162,0.3159,0.0,0.0,0.0,0.0,0.0,0.0,0.0,0.0,0.0,0.0,0.0,0.0703,0.0579,0.0,0.0,0.0,0.0,0.0,0.0,0.0,0.0,0.0,0.0,0.0,0.0,0.0967,0.1106,0.1358,0.1713,0.2181,0.2639,0.3228,0.3894,0.4559,0.5648,0.7114,0.0,0.0,0.0,0.0,0.0,0.0,0.0,0.0,0.0,0.0,0.0,0.0,0.0,0.0,0.0,0.0,0.0,0.0,0.0,0.0,0.0,0.0,0.0,0.0,0.0,0.7494,0.0,0.0,0.0,0.0,0.0,0.0,0.0,0.0,0.0,0.0,0.0,0.9844,0.9811,0.9733,0.9673,0.9632,0.972,0.9738,0.0,0.0,0.0,0.0,0.0,0.0,0.0,0.0,0.0,0.0,0.0,0.0,0.0,0.0,1.0097,1.0177,1.019,1.019,1.0122,0.0,0.0,0.0,0.0,0.0,0.0,0.0,0.0,0.0,0.0,0.0,0.0,0.0,0.0,0.2652,0.0,0.2442,0.0,0.0,0.0,0.0,0.0,0.0,0.0,0.0,0.0543,0.0462,0.0328,0.0228,0.0226,0.0,0.0226,0.027,0.0,0.0,0.0,0.0,0.0,0.0,0.0,0.0,0.0643,0.0805,0.1042,0.1411,0.183,0.2301,0.2821,0.3335,0.4269,0.5449,0.7008,0.7643,0.8358,0.0,0.0,0.0,0.0,0.0,0.0,0.0,0.0,0.0,0.0,0.0,0.0,0.0,0.0,0.0,0.0,0.0,0.0,0.0,0.0,0.0,0.0,0.0,0.75,0.0,0.0,0.0,0.0,0.0,0.0,0.0,0.0,0.0,0.9629,0.9647,0.9602,0.953,0.9471,0.9402,0.9359,0.0,0.0,0.0,0.0,0.0,0.0,0.0,0.9549,0.9617,0.9684,0.9773,0.985,0.9916,0.9946,0.9967,0.0,0.0,1.0129,1.0171,1.0171,1.0094,1.0094,1.0094,1.0094,1.0094,1.0098,0.0,0.0,0.0,0.0,0.0,0.0,0.0,0.0,0.2422,0.2416,0.0,0.2182,0.0,0.0,0.0,0.0,0.0,0.0559,0.0,0.0,0.0191,0.0146,0.0,-0.0094,-0.0138,0.0,-0.0138,-0.018,-0.0135,0.0045,0.0,0.0,0.0,0.0,0.0,0.0,0.0379,0.0587,0.0844,0.1153,0.1506,0.1965,0.251,0.3113,0.4333,0.5494,0.6546,0.6992,0.773,0.8808,0.9125,0.0,0.0,0.0,0.0,0.0,0.0,0.0,0.0,0.0,0.0,0.0,0.0,0.0,0.0,0.0,0.0,0.0,0.0,0.0,0.0,0.6767,0.0,0.0,0.0,0.0,0.0,0.0,0.0,0.0,0.0,0.0,0.9296,0.9305,0.9249,0.9175,0.0,0.0,0.0,0.0,0.9247,0.9094,0.9033,0.905,0.9237,0.9339,0.9403,0.9472,0.0,0.0,0.9761,0.9844,0.9887,0.9887,0.9899,0.9944,1.0073,1.0086,1.0091,1.0091,1.0091,1.0095,1.0091,1.0086,1.0086,0.251,0.0,0.0,0.0,0.0,0.1912,0.2015,0.2131,0.2075,0.2047,0.2044,0.1734,0.0,0.0,0.0,0.0,0.0,0.0,0.0048,0.0048,-0.0049,-0.005,0.0,-0.0049,-0.0049,0.0,-0.0048,-0.0047,-0.0047,-0.0182,-0.027,-0.027,0.0,0.0,0.0,0.0,0.0168,0.0378,0.0748,0.1125,0.1482,0.1828,0.2354,0.3183,0.4298,0.5301,0.6072,0.6648,0.7384,0.8299,0.8511,0.0,0.0,0.0,0.0,0.0,0.0,0.0,0.0,0.0,0.0,0.0,0.0,0.0,0.0,0.0,0.0,0.0,0.0,0.0,0.67,0.6783,0.717,0.0,0.0,0.0,0.0,0.0,0.0,0.0,0.0,0.0,0.84,0.8689,0.8861,0.0,0.0,0.8721,0.8681,0.8841,0.8874,0.8688,0.862,0.0,0.0,0.8994,0.9081,0.9199,0.935,0.9506,0.9628,0.9681,0.9705,0.9733,0.9766,0.9767,0.9807,0.9904,0.9955,0.9963,0.9944,0.9944,0.9963,0.9963,0.9949,0.2504,0.2284,0.2032,0.1864,0.1827,0.1855,0.1912,0.2041,0.1999,0.1913,0.1834,0.1594,0.1357,0.1222,0.0753,0.0,0.0,0.0,-0.01,0.0,-0.0102,-0.0052,0.0,0.0,0.0,0.0,0.0,-0.0048,-0.0095,-0.0233,-0.0366,-0.0494,0.0,0.0,-0.0432,-0.0259,-0.0043,0.0173,0.0562,0.092,0.1297,0.184,0.2443,0.3184,0.4007,0.4751,0.5365,0.6018,0.6828,0.7739,0.8019,0.8289,0.0,0.0,0.0,0.0,0.0,0.0,0.0,0.0,0.0,0.0,0.0,0.8578,0.0,0.0,0.0,0.0,0.7207,0.712,0.7054,0.6913,0.0,0.0,0.0,0.0,0.0,0.0,0.0,0.8058,0.8268,0.8417,0.8351,0.8545,0.8629,0.8419,0.8345,0.8303,0.8232,0.0,0.8497,0.8284,0.8214,0.8256,0.8513,0.8644,0.879,0.8977,0.9179,0.9322,0.9421,0.9455,0.9488,0.952,0.9555,0.9578,0.9586,0.9684,0.9767,0.98,0.9825,0.9825,0.985,0.9857,0.9863,0.2496,0.2356,0.205,0.1906,0.1883,0.1944,0.2008,0.2064,0.2059,0.197,0.1749,0.163,0.1354,0.0967,0.0559,0.0,0.0051,0.0,0.0,0.0,0.0,0.0,0.0,0.0,0.0,0.0,0.0,-0.005,-0.0193,-0.0192,-0.0282,-0.0497,-0.0588,-0.0632,-0.0494,-0.045,-0.027,0.0,0.0316,0.0677,0.1034,0.1953,0.2658,0.3144,0.3541,0.4024,0.4513,0.5169,0.6033,0.7095,0.7502,0.7876,0.8276,0.0,0.0,0.0,0.0,0.0,0.0,0.0,0.0,0.0,0.0,0.0,0.0,0.0,0.0,0.0,0.6557,0.0,0.7312,0.7229,0.0,0.0,0.0,0.8364,0.8257,0.853,0.8714,0.8542,0.0,0.0,0.8725,0.8651,0.8439,0.7958,0.7946,0.7916,0.7827,0.8013,0.8066,0.7868,0.7768,0.7841,0.8079,0.8293,0.8489,0.8773,0.8983,0.9078,0.9177,0.921,0.9257,0.9294,0.9349,0.9385,0.9403,0.9438,0.9525,0.9632,0.9688,0.9721,0.978,0.9768,0.9775,0.2446,0.2288,0.2105,0.1921,0.1768,0.1575,0.1636,0.1763,0.1726,0.1703,0.163,0.1419,0.1112,0.0766,0.0547,0.0329,0.022,-0.0057,-0.0115,0.0,-0.0118,-0.0118,0.0,0.0,0.0,0.0,0.0,0.0,-0.0052,-0.0151,-0.0244,-0.0283,-0.0424,-0.051,-0.0495,-0.045,-0.0319,-0.0141,0.0235,0.0798,0.1503,0.2154,0.2578,0.273,0.3176,0.3614,0.4034,0.4657,0.5277,0.5979,0.6573,0.6984,0.7185,0.7665,0.0,0.0,0.0,0.0,0.0,0.0,0.0,0.0,0.0,0.8458,0.8425,0.0,0.7642,0.0,0.7428,0.759,0.7891,0.8149,0.0,0.0,0.8048,0.7968,0.8591,0.8963,0.9089,0.8884,0.8416,0.8048,0.7961,0.7952,0.7897,0.776,0.8188,0.8346,0.7944,0.7739,0.7605,0.7421,0.7282,0.7315,0.7636,0.7951,0.8264,0.8477,0.8644,0.8789,0.8946,0.8983,0.9057,0.9179,0.9206,0.9199,0.9237,0.9273,0.9293,0.9394,0.9517,0.9636,0.9644,0.9659,0.9649,0.2372,0.2225,0.198,0.1762,0.153,0.1494,0.1605,0.1726,0.1655,0.1612,0.1473,0.1214,0.0983,0.0762,0.0645,0.0469,0.0293,0.0119,0.0,0.0,-0.0061,-0.0061,0.0,0.0,0.0,0.0,0.0058,0.0112,0.0109,0.0107,0.0103,0.0098,0.0,-0.0095,-0.0185,-0.0182,-0.0182,-0.0093,0.0433,0.1025,0.1567,0.2128,0.2464,0.2541,0.2932,0.3263,0.3583,0.4083,0.457,0.5099,0.5674,0.6155,0.6464,0.7008,0.7249,0.0,0.0,0.0,0.0,0.0,0.0,0.0,0.0,0.0,0.0,0.0,0.7315,0.7311,0.7473,0.7593,0.7732,0.7893,0.7965,0.7943,0.7712,0.774,0.8215,0.8491,0.8623,0.8512,0.8283,0.8087,0.8037,0.8012,0.8012,0.8012,0.8381,0.8423,0.7887,0.7451,0.7233,0.746,0.7083,0.6927,0.7332,0.7665,0.7952,0.8129,0.8332,0.8472,0.8624,0.8743,0.8852,0.8951,0.9001,0.9039,0.9085,0.9113,0.9123,0.9196,0.9311,0.9385,0.9439,0.9483,0.9519,0.228,0.2051,0.1859,0.1621,0.1467,0.1531,0.1631,0.1762,0.1741,0.1609,0.144,0.1136,0.0907,0.0864,0.0803,0.0679,0.037,0.0309,0.0185,0.0,0.0062,0.0062,0.0062,0.0,0.0062,0.0062,0.0247,0.03,0.0228,0.0398,0.0439,0.041,0.0397,0.0339,0.0239,0.0138,0.009,0.0045,0.0729,0.1207,0.1505,0.198,0.2313,0.2433,0.27,0.2923,0.3129,0.3436,0.386,0.4361,0.4818,0.5358,0.5945,0.6378,0.6738,0.0,0.7082,0.0,0.0,0.0,0.0,0.0,0.0,0.0,0.0,0.7034,0.6745,0.6872,0.6946,0.7046,0.7197,0.7145,0.7116,0.7116,0.7435,0.7645,0.7656,0.7723,0.7753,0.7782,0.8107,0.8344,0.8227,0.8269,0.8269,0.8206,0.8269,0.8171,0.7769,0.7342,0.7313,0.7796,0.711,0.6815,0.7223,0.7418,0.7591,0.7811,0.8009,0.8158,0.8269,0.8479,0.864,0.8696,0.8794,0.8886,0.8947,0.897,0.9002,0.9078,0.9102,0.9164,0.9273,0.9338,0.9384,0.2338,0.2181,0.1941,0.1783,0.1544,0.1322,0.1365,0.1508,0.1635,0.1723,0.1772,0.1412,0.1258,0.1236,0.0988,0.0864,0.0803,0.0494,0.0309,0.0124,0.019,0.019,0.0248,0.0253,0.0316,0.0432,0.0432,0.0491,0.0425,0.0485,0.047,0.0496,0.0492,0.047,0.0526,0.0,0.0,0.0,0.0777,0.1094,0.1402,0.17,0.1906,0.215,0.2379,0.0,0.262,0.3063,0.3417,0.3673,0.4177,0.0,0.0,0.0,0.0,0.0,0.0,0.0,0.0,0.0,0.0,0.0,0.5823,0.6109,0.6868,0.6409,0.5978,0.5767,0.6178,0.65,0.664,0.6979,0.7206,0.7253,0.7599,0.7832,0.7824,0.7347,0.7023,0.7014,0.7314,0.753,0.753,0.754,0.7608,0.7656,0.7686,0.7646,0.7555,0.7977,0.8085,0.7495,0.7081,0.6994,0.725,0.7187,0.7205,0.7439,0.7665,0.7855,0.8023,0.8176,0.839,0.8563,0.8645,0.8685,0.8753,0.8794,0.8863,0.9004,0.9026,0.9069,0.9188,0.9222,0.9234,0.2395,0.0,0.1973,0.173,0.0,0.1301,0.1287,0.1358,0.1577,0.174,0.1922,0.1557,0.1481,0.1615,0.1412,0.1268,0.1054,0.0856,0.0654,0.0323,0.0328,0.039,0.0379,0.0385,0.0445,0.0433,0.0564,0.0626,0.0618,0.069,0.0802,0.0884,0.0869,0.0889,0.0985,0.098,0.0888,0.0719,0.0906,0.1117,0.129,0.1564,0.177,0.1912,0.2149,0.0,0.0,0.0,0.0,0.0,0.0,0.0,0.0,0.0,0.0,0.548,0.5514,0.5514,0.5514,0.5343,0.5205,0.5246,0.5033,0.5217,0.5913,0.5635,0.5422,0.5332,0.564,0.5915,0.6054,0.6364,0.6601,0.6678,0.6978,0.7216,0.7166,0.6725,0.6429,0.6437,0.6695,0.6889,0.6889,0.6936,0.6996,0.7056,0.7154,0.7214,0.7294,0.7878,0.8104,0.7634,0.7241,0.7029,0.6999,0.6864,0.6824,0.7058,0.7298,0.7515,0.7709,0.7913,0.8123,0.8309,0.8428,0.8533,0.8596,0.8681,0.8788,0.8874,0.8925,0.8981,0.908,0.9126,0.9171,0.2372,0.2039,0.1916,0.1661,0.1344,0.1338,0.1336,0.1406,0.0,0.0,0.0,0.1616,0.1627,0.187,0.1798,0.1635,0.1323,0.1322,0.1032,0.0607,0.061,0.0602,0.0586,0.0589,0.0515,0.0499,0.0766,0.0827,0.0804,0.095,0.1139,0.1297,0.1264,0.1288,0.141,0.1283,0.1145,0.1014,0.1082,0.1138,0.118,0.1469,0.162,0.1605,0.1888,0.2011,0.205,0.2251,0.2493,0.2784,0.305,0.3384,0.3813,0.4152,0.4494,0.4872,0.4882,0.4946,0.505,0.4859,0.4686,0.4694,0.4504,0.451,0.4846,0.4843,0.4882,0.4966,0.5124,0.5257,0.5376,0.5571,0.5696,0.5804,0.6083,0.6276,0.6276,0.606,0.5874,0.5905,0.6145,0.6368,0.636,0.6399,0.6429,0.6504,0.6656,0.6824,0.6987,0.7452,0.7801,0.7654,0.7286,0.7004,0.6748,0.6579,0.6559,0.6668,0.6911,0.7157,0.7376,0.7635,0.7855,0.8054,0.8232,0.8364,0.8483,0.8579,0.8693,0.8786,0.884,0.8914,0.8981,0.9041,0.9088,0.2428,0.2005,0.1961,0.1699,0.1294,0.1347,0.1493,0.1803,0.1438,0.1623,0.2248,0.1841,0.1804,0.2111,0.1975,0.1834,0.1759,0.1692,0.1418,0.1078,0.1104,0.1031,0.0873,0.0823,0.0878,0.0902,0.0968,0.1018,0.1116,0.118,0.1302,0.1421,0.1476,0.1511,0.1636,0.1636,0.1547,0.1342,0.0966,0.0889,0.1087,0.1175,0.1272,0.136,0.1584,0.1711,0.1869,0.2087,0.2264,0.2372,0.27,0.3017,0.3285,0.3513,0.3808,0.4123,0.4319,0.4414,0.4526,0.441,0.4262,0.3992,0.3932,0.395,0.4047,0.4162,0.4225,0.4177,0.4329,0.4462,0.4622,0.4742,0.4914,0.5055,0.5182,0.5372,0.5617,0.5529,0.5404,0.5404,0.5648,0.5835,0.5897,0.5952,0.6037,0.6129,0.6221,0.6352,0.6764,0.7214,0.7344,0.72,0.7119,0.697,0.6722,0.65,0.6374,0.6278,0.6517,0.6769,0.7042,0.7298,0.7575,0.787,0.8011,0.8162,0.8431,0.8517,0.8592,0.8681,0.8769,0.8845,0.8908,0.8993,0.903,0.2483,0.2049,0.2006,0.1739,0.1325,0.1376,0.1591,0.1886,0.1709,0.192,0.2353,0.21,0.2076,0.2349,0.2274,0.2184,0.2084,0.2013,0.1854,0.155,0.1497,0.1413,0.1174,0.1185,0.1167,0.1192,0.1208,0.1321,0.1397,0.1413,0.1466,0.1608,0.1728,0.1854,0.1914,0.1862,0.1773,0.1606,0.124,0.1026,0.1121,0.1095,0.1141,0.13,0.1435,0.1569,0.1794,0.193,0.2089,0.2221,0.2435,0.2668,0.2998,0.3284,0.3569,0.3817,0.3933,0.3976,0.4014,0.398,0.3825,0.3625,0.358,0.3552,0.3423,0.3709,0.3875,0.3863,0.3921,0.4064,0.4272,0.4413,0.4541,0.4616,0.463,0.48,0.5055,0.5081,0.4985,0.4896,0.5119,0.5295,0.539,0.5515,0.5641,0.5765,0.5882,0.6137,0.6468,0.6673,0.6846,0.685,0.6782,0.6728,0.6691,0.6344,0.616,0.6129,0.6243,0.6436,0.6731,0.6996,0.7298,0.7605,0.7826,0.8025,0.8258,0.8415,0.8517,0.8571,0.8681,0.8753,0.8834,0.8908,0.9018,0.254,0.2098,0.2052,0.1776,0.1346,0.148,0.1692,0.1901,0.1969,0.2198,0.2431,0.2352,0.2353,0.2588,0.2588,0.2486,0.2372,0.2368,0.2192,0.1931,0.1929,0.1756,0.1501,0.1498,0.1473,0.1433,0.1457,0.1503,0.1639,0.1655,0.1689,0.1797,0.1922,0.2016,0.2126,0.2017,0.1939,0.1828,0.1553,0.129,0.1137,0.1125,0.1165,0.1299,0.1344,0.1524,0.1749,0.1794,0.1885,0.2109,0.2239,0.2417,0.2773,0.304,0.3303,0.3524,0.3598,0.3615,0.3664,0.3581,0.3478,0.3353,0.335,0.3218,0.3074,0.3297,0.3546,0.3563,0.3609,0.3732,0.3953,0.4148,0.4281,0.43,0.4315,0.441,0.4604,0.4725,0.4699,0.454,0.464,0.4852,0.4979,0.5112,0.5246,0.5421,0.5641,0.5897,0.606,0.6153,0.6337,0.648,0.6478,0.6489,0.6611,0.6329,0.6045,0.6026,0.6069,0.6188,0.6444,0.6697,0.7009,0.73,0.7605,0.7841,0.8039,0.8216,0.8377,0.8454,0.8567,0.8681,0.8783,0.8908,0.9039,0.2596,0.2231,0.2098,0.18,0.1346,0.1564,0.1709,0.1938,0.206,0.2275,0.251,0.2431,0.2588,0.2746,0.2982,0.2899,0.2735,0.2737,0.2496,0.2178,0.2181,0.2002,0.1805,0.1729,0.176,0.1688,0.1687,0.1737,0.188,0.1835,0.1847,0.1986,0.2027,0.2055,0.2119,0.1996,0.1959,0.1952,0.1781,0.153,0.1283,0.1188,0.1165,0.1299,0.1299,0.1389,0.1614,0.1749,0.1794,0.1839,0.2064,0.2241,0.237,0.2504,0.2726,0.3037,0.3233,0.3354,0.3398,0.3401,0.334,0.3233,0.3123,0.3031,0.297,0.2961,0.3028,0.3169,0.3211,0.3381,0.3556,0.376,0.3919,0.4076,0.4257,0.4289,0.4192,0.4501,0.4669,0.4372,0.4382,0.4511,0.4666,0.4768,0.4928,0.5137,0.5358,0.5522,0.5578,0.5765,0.589,0.599,0.6243,0.6365,0.6208,0.6283,0.6104,0.5804,0.5893,0.6052,0.6166,0.636,0.6664,0.6993,0.7282,0.7575,0.7855,0.804,0.8135,0.8335,0.8467,0.8567,0.8748,0.8891,0.9002,0.2604,0.2242,0.2134,0.1925,0.163,0.1785,0.2,0.2193,0.2334,0.2545,0.2669,0.2824,0.2824,0.2824,0.2982,0.3061,0.2982,0.2982,0.2824,0.2588,0.2588,0.234,0.209,0.2011,0.1986,0.1953,0.2025,0.2058,0.2112,0.2062,0.2002,0.2072,0.21,0.2091,0.2119,0.2065,0.2033,0.1969,0.1867,0.1752,0.1529,0.1314,0.121,0.121,0.1254,0.1344,0.1479,0.1614,0.1658,0.1705,0.1884,0.2018,0.2105,0.2241,0.2417,0.2684,0.2861,0.2981,0.3121,0.3075,0.3055,0.2998,0.2951,0.2907,0.2818,0.2818,0.2819,0.2998,0.3094,0.3304,0.3514,0.3727,0.3896,0.3931,0.4098,0.422,0.4257,0.4192,0.4081,0.3976,0.4058,0.4215,0.4409,0.4576,0.4762,0.4947,0.5112,0.5176,0.5232,0.5421,0.5522,0.5578,0.5734,0.5906,0.5986,0.6055,0.6053,0.5984,0.5853,0.5813,0.6053,0.6098,0.6318,0.6702,0.7033,0.734,0.762,0.787,0.8054,0.8232,0.8412,0.8551,0.87,0.8846,0.8959,0.2694,0.2334,0.2244,0.2135,0.1928,0.209,0.2211,0.23,0.2528,0.2647,0.2827,0.3061,0.3139,0.3061,0.3217,0.3295,0.3217,0.3219,0.3061,0.2904,0.2902,0.2668,0.2353,0.2353,0.2352,0.2273,0.227,0.2302,0.2353,0.2304,0.2294,0.2344,0.2257,0.2217,0.2221,0.218,0.2096,0.209,0.2032,0.1897,0.1797,0.1528,0.133,0.1213,0.1254,0.1344,0.1389,0.1524,0.1569,0.1614,0.1705,0.1839,0.1975,0.2064,0.2196,0.246,0.2637,0.2773,0.2909,0.2865,0.2865,0.2821,0.2773,0.2729,0.264,0.2598,0.2645,0.2768,0.2951,0.3167,0.353,0.3711,0.3785,0.3802,0.3993,0.4226,0.4333,0.4127,0.3981,0.3657,0.3733,0.3956,0.4156,0.4382,0.457,0.473,0.4794,0.489,0.5011,0.5144,0.5246,0.5327,0.5309,0.5522,0.5898,0.5988,0.6002,0.6004,0.5871,0.5904,0.6132,0.6158,0.6116,0.656,0.6885,0.7149,0.7389,0.765,0.7972,0.8139,0.8325,0.8513,0.8645,0.8783,0.8891,0.2694,0.2425,0.2244,0.2241,0.2237,0.2282,0.2317,0.2342,0.2546,0.265,0.283,0.3141,0.3374,0.3446,0.3606,0.3684,0.3526,0.3448,0.337,0.3139,0.3061,0.2982,0.2824,0.2746,0.2668,0.251,0.251,0.2556,0.2645,0.27,0.2679,0.2701,0.2608,0.2604,0.2501,0.247,0.2403,0.2329,0.2214,0.2113,0.2025,0.1749,0.1557,0.1416,0.1345,0.1344,0.1389,0.1524,0.1569,0.1569,0.1614,0.1749,0.1975,0.1885,0.2061,0.246,0.2637,0.2729,0.2821,0.2773,0.2684,0.2684,0.2504,0.2368,0.2504,0.2375,0.2375,0.2506,0.2684,0.2907,0.3309,0.3534,0.3615,0.3679,0.4033,0.4239,0.4279,0.4546,0.4337,0.3556,0.3467,0.3663,0.3891,0.4151,0.4312,0.4447,0.4543,0.4666,0.4858,0.4953,0.5023,0.5093,0.5221,0.541,0.5718,0.5868,0.5875,0.5928,0.602,0.6154,0.6338,0.6448,0.6414,0.6501,0.6989,0.7254,0.7266,0.7437,0.7783,0.8029,0.8287,0.847,0.8571,0.87,0.8823,0.2694,0.2515,0.2244,0.2244,0.2422,0.2492,0.2524,0.2523,0.2754,0.2928,0.3076,0.3295,0.3526,0.3684,0.3763,0.3763,0.3684,0.3684,0.3604,0.3372,0.3372,0.3217,0.2982,0.2982,0.2982,0.2902,0.2902,0.2891,0.2942,0.2898,0.2913,0.289,0.2753,0.2635,0.254,0.2504,0.2393,0.2337,0.235,0.2344,0.2296,0.2102,0.1945,0.1761,0.1493,0.1344,0.1344,0.1524,0.1569,0.1569,0.166,0.1794,0.1975,0.2064,0.2152,0.2326,0.2413,0.2504,0.2637,0.2593,0.2593,0.2549,0.2502,0.2413,0.2368,0.2373,0.2373,0.2415,0.2593,0.2821,0.3043,0.3309,0.3486,0.3527,0.3788,0.3968,0.3972,0.4224,0.4205,0.3464,0.3401,0.363,0.3728,0.3923,0.4118,0.4285,0.4377,0.45,0.4628,0.4698,0.471,0.4768,0.4896,0.5055,0.5289,0.5624,0.5814,0.589,0.5997,0.6171,0.6313,0.6552,0.6549,0.6837,0.7274,0.7666,0.7757,0.7996,0.8195,0.8139,0.8392,0.8525,0.8508,0.8682,0.8798,0.2873,0.2693,0.2602,0.2691,0.2782,0.2781,0.2813,0.2977,0.2955,0.313,0.3266,0.3461,0.3682,0.3763,0.3841,0.3841,0.3841,0.3841,0.3684,0.3604,0.3604,0.345,0.3295,0.3217,0.3141,0.3139,0.3139,0.3141,0.3214,0.3165,0.3203,0.316,0.3077,0.2922,0.2781,0.266,0.2578,0.247,0.2513,0.2534,0.2507,0.2364,0.2193,0.2028,0.1757,0.15,0.1373,0.1489,0.1614,0.1658,0.1749,0.1839,0.202,0.2156,0.2241,0.2279,0.2277,0.2368,0.2457,0.2457,0.2457,0.2415,0.2417,0.2373,0.2324,0.2413,0.2413,0.2413,0.2504,0.2684,0.2865,0.3087,0.3265,0.3398,0.3619,0.3707,0.3622,0.388,0.3777,0.3387,0.334,0.3471,0.3569,0.3733,0.3896,0.4091,0.4156,0.4312,0.4441,0.4479,0.4452,0.4505,0.457,0.4736,0.5017,0.534,0.5662,0.58,0.6087,0.622,0.6433,0.6634,0.69,0.7206,0.7598,0.8022,0.8325,0.8572,0.8585,0.8481,0.8545,0.8722,0.8716,0.8692,0.878,0.3051,0.3138,0.3226,0.3317,0.3497,0.3317,0.3277,0.3376,0.3147,0.3242,0.3557,0.3726,0.3775,0.3841,0.3841,0.3841,0.3841,0.3841,0.3763,0.3763,0.3763,0.3684,0.3526,0.3526,0.3372,0.3217,0.3139,0.3295,0.3524,0.3437,0.348,0.3569,0.3537,0.3351,0.3101,0.3013,0.2948,0.2729,0.2627,0.2632,0.2694,0.2518,0.2361,0.2216,0.2086,0.1847,0.1533,0.1563,0.1665,0.1749,0.1794,0.1884,0.202,0.2156,0.2243,0.2279,0.2277,0.2368,0.2457,0.2368,0.2324,0.2281,0.2239,0.2241,0.2281,0.2324,0.2368,0.2457,0.2504,0.2593,0.2729,0.2865,0.3087,0.3353,0.353,0.3622,0.3578,0.3622,0.3513,0.3251,0.3224,0.3253,0.3348,0.3508,0.3672,0.377,0.3928,0.4156,0.4285,0.435,0.4312,0.4312,0.4377,0.4511,0.4806,0.5062,0.5404,0.5734,0.606,0.6332,0.6648,0.6914,0.7227,0.7571,0.8113,0.8549,0.8686,0.8894,0.9108,0.9086,0.9074,0.8988,0.8936,0.8911,0.8804,0.3229,0.3496,0.3496,0.3496,0.3587,0.3496,0.3456,0.3561,0.3533,0.3621,0.3668,0.3788,0.3824,0.3851,0.3841,0.3841,0.3841,0.3841,0.3841,0.3841,0.3841,0.3763,0.3763,0.3684,0.3682,0.3608,0.3608,0.3606,0.3684,0.3684,0.3744,0.3716,0.3656,0.3509,0.3349,0.3154,0.2985,0.2815,0.2751,0.2809,0.2885,0.2688,0.2614,0.2536,0.2229,0.1997,0.1806,0.1697,0.1712,0.1799,0.1884,0.1975,0.2111,0.2201,0.2243,0.2279,0.2277,0.2324,0.2324,0.2324,0.2281,0.2241,0.2199,0.2199,0.2241,0.2328,0.2413,0.2413,0.2504,0.264,0.2684,0.2821,0.2998,0.3214,0.3442,0.3578,0.3578,0.3578,0.3378,0.3003,0.3109,0.3231,0.3249,0.3385,0.3488,0.3607,0.3765,0.3933,0.4188,0.428,0.4312,0.4312,0.4312,0.435,0.4608,0.4896,0.5214,0.5585,0.5959,0.6337,0.6703,0.7136,0.7473,0.7959,0.8548,0.8919,0.9046,0.9267,0.9515,0.9579,0.9497,0.9372,0.9204,0.9103,0.9011,0.3496,0.3765,0.3855,0.3944,0.4036,0.4036,0.4005,0.3951,0.3919,0.3931,0.392,0.4009,0.4031,0.4051,0.4012,0.3997,0.3997,0.3995,0.3999,0.3921,0.3841,0.3841,0.3841,0.3841,0.3841,0.3841,0.3841,0.3841,0.3841,0.3841,0.3841,0.3906,0.3782,0.3738,0.3624,0.3433,0.3242,0.3015,0.287,0.2878,0.2895,0.2881,0.2776,0.2699,0.2434,0.2219,0.2065,0.1925,0.1864,0.1891,0.1992,0.2107,0.2199,0.2243,0.2284,0.2279,0.2324,0.2368,0.2322,0.2277,0.2281,0.2199,0.2201,0.2201,0.2243,0.2328,0.2368,0.2413,0.2504,0.264,0.2773,0.2773,0.2907,0.3081,0.3398,0.3578,0.3578,0.3578,0.3499,0.3204,0.3201,0.3241,0.3263,0.3276,0.3407,0.3535,0.3639,0.377,0.4026,0.4123,0.4151,0.4215,0.4285,0.4344,0.4441,0.4698,0.4992,0.5397,0.5797,0.6176,0.6551,0.7116,0.7531,0.8178,0.877,0.9162,0.9342,0.9752,1.0044,0.9975,0.9961,0.9958,0.9846,0.939,0.9238,0.3765,0.3946,0.421,0.448,0.4661,0.4661,0.4654,0.4639,0.4391,0.4342,0.4462,0.4336,0.4403,0.4525,0.4446,0.4325,0.4384,0.4384,0.4231,0.4077,0.3999,0.3841,0.3841,0.3841,0.3841,0.3841,0.3841,0.3841,0.3841,0.3841,0.3921,0.4075,0.4064,0.4137,0.401,0.3875,0.3598,0.3281,0.3036,0.2934,0.2838,0.2913,0.2895,0.2716,0.2709,0.2574,0.2363,0.2195,0.207,0.1994,0.2139,0.2239,0.2241,0.2417,0.2415,0.2368,0.2457,0.2413,0.2324,0.2324,0.2281,0.2199,0.2201,0.2201,0.2199,0.2284,0.2368,0.2457,0.2504,0.2593,0.2773,0.2773,0.2818,0.299,0.335,0.3578,0.3578,0.3578,0.352,0.353,0.344,0.3312,0.3307,0.3353,0.3446,0.3496,0.3586,0.3718,0.377,0.3896,0.3956,0.4053,0.4156,0.4253,0.4377,0.457,0.4864,0.5176,0.5641,0.6075,0.6543,0.7116,0.7676,0.8336,0.8894,0.9289,0.9649,0.9956,1.0337,1.0464,1.0505,1.0589,1.0371,0.9935,0.9687,0.4302,0.4482,0.4746,0.4832,0.4921,0.4921,0.4924,0.4919,0.4807,0.4837,0.4774,0.4723,0.4684,0.4629,0.4596,0.4461,0.4477,0.4384,0.4384,0.4307,0.4307,0.4075,0.3841,0.3841,0.3841,0.3841,0.3841,0.3841,0.3841,0.3921,0.4077,0.4079,0.4231,0.4325,0.4252,0.405,0.3775,0.3505,0.3299,0.3083,0.2999,0.3088,0.3077,0.296,0.2892,0.2772,0.2494,0.2336,0.2194,0.2195,0.2254,0.2326,0.2417,0.246,0.2549,0.2593,0.2637,0.2593,0.2457,0.2457,0.2373,0.2199,0.2201,0.2201,0.2201,0.2284,0.2368,0.2457,0.2504,0.2549,0.2729,0.2729,0.2773,0.2954,0.3312,0.3578,0.3578,0.3578,0.3578,0.3602,0.3486,0.3403,0.3348,0.3437,0.3491,0.3456,0.3521,0.368,0.3685,0.3733,0.3831,0.3923,0.4021,0.4151,0.428,0.4505,0.473,0.5023,0.5453,0.5944,0.6535,0.7214,0.7792,0.8432,0.8861,0.9259,0.9593,0.9932,1.0323,1.0681,1.0852,1.0849,1.0799,1.0508,1.0362,0.4659,0.4837,0.5188,0.5275,0.5364,0.5544,0.5453,0.5275,0.5275,0.5247,0.51,0.505,0.5022,0.4943,0.4887,0.4803,0.4631,0.4623,0.4621,0.4543,0.4462,0.4231,0.3997,0.3843,0.3841,0.3841,0.3841,0.3843,0.3921,0.4077,0.4155,0.4389,0.4467,0.4585,0.4602,0.438,0.4089,0.3806,0.3589,0.332,0.3067,0.3191,0.3256,0.3158,0.3097,0.2983,0.2616,0.2448,0.2376,0.234,0.2324,0.2413,0.2504,0.2593,0.2684,0.2729,0.2729,0.2729,0.2593,0.2549,0.2415,0.2286,0.2199,0.2201,0.2199,0.2241,0.2284,0.237,0.246,0.2549,0.2684,0.2729,0.2821,0.2909,0.3135,0.3401,0.3578,0.3578,0.3578,0.3602,0.3543,0.3517,0.3366,0.3504,0.3532,0.3515,0.35,0.3591,0.3652,0.3658,0.37,0.3798,0.3896,0.3993,0.4156,0.4377,0.4698,0.4953,0.5491,0.5952,0.6535,0.7244,0.7773,0.8319,0.8778,0.919,0.9499,0.9828,1.0186,1.0534,1.0849,1.1056,1.1002,1.0936,1.083,0.4933,0.5097,0.5544,0.5722,0.5808,0.6251,0.6074,0.5808,0.5808,0.5633,0.552,0.5349,0.5323,0.5363,0.5181,0.514,0.5021,0.494,0.4859,0.4701,0.4543,0.4384,0.4233,0.3921,0.3841,0.3841,0.3841,0.3921,0.4077,0.4077,0.4311,0.4545,0.4701,0.4781,0.4881,0.4781,0.449,0.4206,0.3895,0.3565,0.3326,0.3347,0.3357,0.3342,0.3423,0.3179,0.2876,0.2724,0.2649,0.2398,0.2467,0.2549,0.2593,0.2818,0.2818,0.2773,0.2821,0.2821,0.2684,0.2549,0.2457,0.2326,0.2241,0.2201,0.2201,0.2201,0.2241,0.2324,0.2413,0.2593,0.2729,0.2821,0.2865,0.2909,0.2909,0.309,0.3401,0.3578,0.3578,0.3578,0.3619,0.355,0.3514,0.3531,0.3563,0.3535,0.357,0.3658,0.3686,0.3685,0.3695,0.3705,0.377,0.3803,0.3993,0.4215,0.4602,0.4953,0.5585,0.6114,0.6595,0.7175,0.7715,0.8205,0.8656,0.9042,0.9366,0.9698,1.0034,1.0336,1.0643,1.0968,1.1207,1.1117,1.1027,0.545,0.5542,0.5902,0.608,0.6251,0.6343,0.634,0.6251,0.6251,0.6077,0.5985,0.5871,0.5731,0.5449,0.532,0.5219,0.5031,0.5018,0.494,0.4937,0.4701,0.4621,0.4467,0.4235,0.3921,0.3841,0.3841,0.3921,0.4077,0.4309,0.4462,0.4701,0.4859,0.494,0.4991,0.4876,0.4727,0.4542,0.4183,0.3882,0.361,0.3505,0.3438,0.3456,0.3498,0.3416,0.3212,0.3086,0.2999,0.2795,0.2695,0.2742,0.2862,0.2907,0.2907,0.2907,0.2909,0.2865,0.2729,0.2593,0.2457,0.2324,0.2241,0.2201,0.2201,0.2201,0.2243,0.2281,0.2413,0.2593,0.2776,0.2773,0.2821,0.2865,0.2909,0.2954,0.309,0.3401,0.3578,0.3578,0.3622,0.3612,0.3574,0.3637,0.3652,0.3574,0.366,0.3774,0.3754,0.3696,0.3676,0.3672,0.3709,0.377,0.3993,0.4248,0.4602,0.4953,0.5554,0.6122,0.6573,0.7086,0.7588,0.8052,0.8505,0.8866,0.9232,0.954,0.988,1.0161,1.0447,1.0763,1.1029,1.1102,1.1298,0.5836,0.5902,0.626,0.6526,0.6612,0.6697,0.6697,0.6612,0.6609,0.6435,0.6242,0.6201,0.5883,0.5538,0.5471,0.5259,0.5053,0.5018,0.5018,0.494,0.4859,0.4781,0.4701,0.4467,0.4309,0.4153,0.4073,0.4153,0.4387,0.4467,0.4623,0.4859,0.494,0.5018,0.5015,0.495,0.4822,0.4626,0.4363,0.4057,0.3824,0.3703,0.3615,0.3633,0.367,0.3627,0.3309,0.3355,0.3202,0.3001,0.2921,0.2959,0.2954,0.2948,0.299,0.299,0.2993,0.2909,0.2776,0.2637,0.2457,0.2415,0.2288,0.2201,0.2201,0.2201,0.2199,0.2286,0.2417,0.2593,0.2773,0.2865,0.2821,0.2821,0.2909,0.2996,0.3087,0.3357,0.3578,0.3622,0.3619,0.3663,0.3656,0.37,0.3818,0.3825,0.3704,0.3782,0.3783,0.3743,0.3628,0.3639,0.3672,0.377,0.4026,0.4312,0.4634,0.4979,0.5421,0.5897,0.636,0.6897,0.7432,0.7898,0.8326,0.8739,0.9097,0.942,0.9724,1.0072,1.0373,1.0643,1.0893,1.1096,1.1395,0.6031,0.6169,0.6615,0.6792,0.6881,0.7054,0.6962,0.6881,0.6792,0.6704,0.6495,0.6297,0.6093,0.5785,0.5656,0.5368,0.5121,0.5093,0.5093,0.5018,0.5018,0.4937,0.4857,0.4776,0.4776,0.4538,0.4384,0.4465,0.4621,0.4701,0.4779,0.494,0.5018,0.5018,0.5015,0.5007,0.4923,0.4732,0.4504,0.4257,0.3969,0.3884,0.378,0.3843,0.4001,0.386,0.3573,0.3533,0.3452,0.3069,0.3197,0.3166,0.3098,0.3037,0.3078,0.3034,0.3034,0.2948,0.2862,0.2682,0.2549,0.2506,0.233,0.2196,0.2199,0.2201,0.2199,0.2241,0.2373,0.2593,0.2729,0.2821,0.2821,0.2818,0.2951,0.3126,0.3214,0.3442,0.3619,0.3667,0.3707,0.3748,0.3792,0.3836,0.3928,0.3997,0.3914,0.3808,0.3829,0.3789,0.3704,0.3657,0.3718,0.3812,0.4031,0.4285,0.4634,0.4979,0.5327,0.5734,0.6176,0.6695,0.7235,0.7724,0.8156,0.8572,0.8971,0.9286,0.9619,0.9957,1.0235,1.0472,1.0763,1.1108,1.1407,0.6288,0.6343,0.6704,0.6881,0.7051,0.7051,0.7051,0.7051,0.7054,0.6966,0.6766,0.6554,0.632,0.6019,0.5807,0.5598,0.5341,0.5246,0.5171,0.5093,0.5018,0.5093,0.5168,0.5168,0.5243,0.5165,0.4854,0.4621,0.4701,0.4701,0.4857,0.5018,0.5018,0.5018,0.5018,0.5015,0.4999,0.4887,0.4675,0.4442,0.423,0.4028,0.3909,0.395,0.4248,0.4207,0.3974,0.395,0.3859,0.3417,0.3461,0.3468,0.3337,0.3248,0.323,0.3258,0.3123,0.3037,0.2946,0.2818,0.2637,0.2506,0.2373,0.2241,0.2199,0.2201,0.2201,0.2288,0.2417,0.2593,0.2821,0.2865,0.2865,0.2907,0.2993,0.3123,0.3258,0.3483,0.3792,0.384,0.388,0.388,0.388,0.3924,0.4012,0.4104,0.4046,0.3963,0.3915,0.3884,0.3792,0.3788,0.3779,0.3894,0.4069,0.4323,0.4614,0.4922,0.5264,0.5609,0.6044,0.6521,0.7005,0.7462,0.7956,0.8421,0.8784,0.9151,0.9461,0.9776,1.0021,1.0273,1.0619,1.0968,1.1247,0.6524,0.6615,0.6877,0.6966,0.7139,0.7139,0.7139,0.7139,0.7139,0.7011,0.6834,0.6705,0.6476,0.6169,0.5946,0.5686,0.5494,0.5482,0.5404,0.5326,0.5326,0.5326,0.5479,0.5482,0.5482,0.5482,0.5168,0.501,0.5168,0.5087,0.509,0.509,0.5093,0.5018,0.5018,0.5018,0.5018,0.4966,0.4784,0.4646,0.4384,0.4151,0.402,0.4139,0.4405,0.4443,0.4316,0.4259,0.4127,0.3784,0.3788,0.3709,0.3608,0.3535,0.3469,0.3417,0.3262,0.3123,0.3034,0.2862,0.2729,0.2504,0.2368,0.2281,0.2199,0.2201,0.2243,0.2373,0.2506,0.2684,0.2865,0.2909,0.2909,0.2909,0.304,0.317,0.3258,0.3615,0.3836,0.4012,0.4016,0.4016,0.402,0.406,0.41,0.4144,0.4188,0.414,0.4011,0.4016,0.3985,0.4005,0.4014,0.4,0.4125,0.434,0.4555,0.4832,0.5144,0.5484,0.5859,0.6299,0.6755,0.7196,0.7686,0.8223,0.8645,0.8976,0.9274,0.9593,0.9893,1.0198,1.0496,1.0801,1.1094,0.674,0.6792,0.7054,0.7139,0.7139,0.7139,0.7139,0.7136,0.7017,0.6947,0.6915,0.6742,0.6512,0.6227,0.6028,0.5867,0.5634,0.5637,0.5637,0.5562,0.5559,0.5637,0.5637,0.5637,0.5715,0.5796,0.5715,0.5715,0.5482,0.5401,0.5401,0.5323,0.5171,0.5096,0.5096,0.5093,0.5018,0.4958,0.4841,0.4731,0.4458,0.4246,0.4143,0.4252,0.4505,0.4629,0.455,0.4531,0.4327,0.4143,0.4033,0.4041,0.3896,0.3863,0.3758,0.3514,0.3417,0.3306,0.3126,0.2951,0.2818,0.2637,0.2457,0.237,0.2286,0.2333,0.233,0.2504,0.2593,0.2729,0.2865,0.2909,0.2909,0.2957,0.3084,0.3214,0.3347,0.3568,0.3965,0.41,0.4148,0.4148,0.4148,0.4148,0.4188,0.4232,0.4232,0.4212,0.4154,0.4187,0.4207,0.4306,0.4304,0.4182,0.4241,0.4323,0.4534,0.4704,0.5017,0.5358,0.5696,0.6075,0.6496,0.6957,0.7432,0.7956,0.8382,0.8811,0.9112,0.9434,0.979,1.0097,1.0348,1.0681,1.1015,0.6924,0.6792,0.7054,0.7139,0.7139,0.7139,0.7139,0.7126,0.7017,0.6946,0.6892,0.6641,0.6498,0.643,0.6325,0.6106,0.5941,0.5864,0.5789,0.5715,0.5715,0.5789,0.5864,0.586,0.5944,0.6106,0.6183,0.5948,0.5715,0.5637,0.5559,0.5559,0.5482,0.5404,0.5249,0.5246,0.5168,0.501,0.4977,0.4798,0.4566,0.4317,0.4274,0.4388,0.4596,0.4776,0.4727,0.4785,0.4603,0.4265,0.4371,0.4274,0.4081,0.4066,0.3983,0.3778,0.3572,0.3398,0.3306,0.3126,0.2948,0.2818,0.2729,0.2595,0.2506,0.2462,0.2506,0.264,0.2684,0.2773,0.2865,0.2909,0.2909,0.2954,0.3084,0.317,0.3303,0.366,0.4012,0.4184,0.4276,0.4276,0.428,0.4276,0.4276,0.432,0.4316,0.4252,0.4287,0.4303,0.4535,0.4688,0.4548,0.4394,0.4391,0.4475,0.4554,0.4704,0.4934,0.5239,0.5578,0.5921,0.6299,0.6747,0.7225,0.7666,0.807,0.8495,0.8883,0.9274,0.9619,0.9919,1.016,1.0521,1.091,0.7025,0.6966,0.7051,0.7139,0.7139,0.7139,0.7139,0.7112,0.699,0.6878,0.6773,0.6576,0.643,0.6431,0.6355,0.6261,0.6099,0.6099,0.6103,0.6025,0.5951,0.6025,0.6099,0.6099,0.618,0.6257,0.6261,0.6183,0.5948,0.5867,0.5786,0.5789,0.5715,0.5562,0.5479,0.5482,0.5404,0.5384,0.5313,0.5132,0.4871,0.4701,0.4644,0.4711,0.4891,0.4973,0.5068,0.497,0.4856,0.4537,0.4572,0.4425,0.4187,0.4134,0.4113,0.4073,0.3775,0.3582,0.3414,0.3309,0.3129,0.2954,0.2865,0.2729,0.2593,0.2593,0.2637,0.2684,0.2773,0.2821,0.2865,0.2909,0.2909,0.2954,0.3084,0.317,0.3303,0.3751,0.4104,0.4232,0.436,0.4408,0.4408,0.4364,0.4364,0.432,0.432,0.4312,0.4343,0.4434,0.4753,0.5115,0.4882,0.4601,0.4624,0.467,0.4739,0.4829,0.4933,0.524,0.546,0.5765,0.6106,0.6452,0.6846,0.7285,0.7753,0.8241,0.8717,0.9085,0.9458,0.9776,1.0072,1.0422,1.0825,0.7139,0.7139,0.7139,0.7139,0.7139,0.7139,0.7139,0.7119,0.6943,0.6807,0.6675,0.6505,0.6352,0.6281,0.6338,0.6257,0.6257,0.6261,0.6261,0.6261,0.6261,0.6257,0.6257,0.6257,0.6257,0.6261,0.6261,0.6261,0.6257,0.6099,0.6018,0.6018,0.5948,0.5792,0.5715,0.5637,0.5634,0.555,0.5512,0.5325,0.5118,0.5038,0.5014,0.4979,0.5094,0.5156,0.5342,0.5267,0.5061,0.4917,0.4777,0.4636,0.4478,0.4341,0.4237,0.414,0.3959,0.3788,0.3609,0.3433,0.3271,0.3132,0.2954,0.2818,0.2684,0.2684,0.2729,0.2773,0.2821,0.2865,0.2909,0.2909,0.2909,0.2954,0.3087,0.3173,0.3303,0.3704,0.4196,0.4499,0.4583,0.4495,0.4495,0.4451,0.4408,0.4368,0.4368,0.4364,0.4403,0.4487,0.484,0.5193,0.4996,0.4794,0.4906,0.4915,0.4982,0.4975,0.5098,0.5209,0.545,0.5642,0.589,0.6206,0.6551,0.6966,0.7423,0.8003,0.8551,0.891,0.9274,0.9672,1.0008,1.0361,1.0753,0.7139,0.7139,0.7139,0.7139,0.7139,0.7139,0.7139,0.7115,0.6844,0.6712,0.6624,0.6424,0.6285,0.6342,0.6261,0.6261,0.6261,0.6261,0.6261,0.6261,0.6261,0.6261,0.6261,0.6261,0.6261,0.6261,0.6261,0.6261,0.6257,0.6257,0.6257,0.6261,0.6183,0.6022,0.5941,0.5867,0.5867,0.5693,0.5673,0.5467,0.5294,0.5173,0.5167,0.5116,0.5084,0.5156,0.5362,0.5328,0.5312,0.5287,0.5009,0.4918,0.4751,0.4605,0.4433,0.428,0.415,0.3979,0.3819,0.3595,0.3411,0.3309,0.3126,0.2948,0.2818,0.2865,0.2865,0.2865,0.2865,0.2909,0.2909,0.2909,0.2909,0.2951,0.304,0.3126,0.3303,0.366,0.4148,0.4679,0.4806,0.467,0.4626,0.4626,0.4491,0.4495,0.4451,0.4451,0.4403,0.4487,0.484,0.5115,0.4978,0.4964,0.5206,0.5225,0.5137,0.5193,0.5293,0.5346,0.5482,0.5617,0.5787,0.6014,0.636,0.6747,0.7136,0.7686,0.8213,0.8662,0.9101,0.9514,0.9982,1.0386,1.0753,0.7139,0.7139,0.7139,0.7139,0.7139,0.7139,0.7139,0.7088,0.6831,0.659,0.643,0.6315,0.6261,0.6261,0.6261,0.6261,0.6261,0.6261,0.6257,0.6261,0.6261,0.6261,0.6261,0.6261,0.6261,0.6261,0.6261,0.6261,0.6261,0.6261,0.6261,0.6261,0.6261,0.6257,0.6177,0.6099,0.6103,0.6015,0.5963,0.5868,0.5725,0.5578,0.5504,0.5375,0.5316,0.5299,0.5428,0.5428,0.5401,0.5339,0.5188,0.5097,0.4998,0.4784,0.4563,0.4368,0.4307,0.4137,0.4046,0.3795,0.3589,0.336,0.317,0.299,0.2948,0.2907,0.2909,0.2909,0.2912,0.2912,0.2915,0.2912,0.2909,0.2951,0.3043,0.3138,0.3303,0.3615,0.4096,0.4626,0.4762,0.4718,0.4757,0.4801,0.4666,0.4578,0.4578,0.4539,0.4491,0.4578,0.4888,0.5149,0.5074,0.5171,0.5428,0.5376,0.5314,0.5363,0.5476,0.5523,0.5608,0.5677,0.583,0.5998,0.6176,0.6535,0.6957,0.7442,0.7937,0.841,0.891,0.9408,0.9867,1.0348,1.0705,0.7139,0.7139,0.7139,0.7139,0.7139,0.7139,0.7139,0.7088,0.6827,0.6536,0.6264,0.6261,0.6261,0.6261,0.6261,0.6261,0.6335,0.6335,0.6412,0.6412,0.6412,0.6335,0.6335,0.6261,0.6261,0.6261,0.6261,0.6261,0.6261,0.6261,0.6261,0.6261,0.6261,0.6261,0.6261,0.6261,0.6261,0.6261,0.6247,0.6183,0.6027,0.5874,0.5725,0.5579,0.5437,0.5369,0.5425,0.5422,0.5515,0.5524,0.5384,0.5279,0.5115,0.4965,0.4745,0.4556,0.4379,0.43,0.4133,0.3975,0.3688,0.3423,0.3262,0.3123,0.299,0.2948,0.2951,0.2909,0.2912,0.2926,0.29,0.2936,0.3025,0.3094,0.3087,0.3166,0.3239,0.3483,0.4005,0.453,0.4622,0.4714,0.4849,0.4893,0.4801,0.4709,0.4618,0.4578,0.4535,0.4666,0.4932,0.5111,0.5211,0.5432,0.561,0.556,0.5523,0.556,0.5635,0.5679,0.5757,0.5796,0.576,0.577,0.599,0.636,0.6725,0.7116,0.7637,0.8213,0.8745,0.9328,0.975,1.0211,1.051,0.7139,0.7139,0.7139,0.7139,0.7139,0.7139,0.7139,0.7102,0.6827,0.6536,0.6278,0.6261,0.6338,0.6338,0.6335,0.6335,0.6412,0.6563,0.6563,0.6563,0.656,0.6479,0.6402,0.6328,0.6409,0.6338,0.6338,0.6335,0.6335,0.6338,0.6338,0.6261,0.6261,0.6261,0.6261,0.6261,0.6261,0.6261,0.6261,0.6173,0.6061,0.5901,0.5739,0.5627,0.5447,0.5432,0.5491,0.5488,0.5661,0.5817,0.568,0.5581,0.5539,0.5199,0.4944,0.4691,0.4567,0.4436,0.4194,0.3961,0.3735,0.3497,0.3382,0.3258,0.3078,0.299,0.2948,0.2907,0.2929,0.2938,0.299,0.3002,0.3147,0.3254,0.3248,0.3164,0.3281,0.3533,0.4077,0.4504,0.4574,0.4661,0.4888,0.4985,0.4937,0.4801,0.4705,0.4618,0.4622,0.4757,0.498,0.5154,0.5285,0.5458,0.5631,0.5755,0.578,0.5789,0.5766,0.5813,0.5811,0.585,0.5749,0.5612,0.5944,0.6393,0.6576,0.6764,0.7373,0.8013,0.8717,0.9301,0.9698,1.0034,1.0286,0.7139,0.7139,0.7139,0.7231,0.7323,0.7143,0.7139,0.7088,0.6827,0.6536,0.6305,0.6261,0.6412,0.6412,0.649,0.6563,0.6718,0.6714,0.6788,0.6791,0.6788,0.6788,0.671,0.6633,0.6714,0.6637,0.6563,0.6486,0.6486,0.6412,0.6338,0.6261,0.6338,0.6261,0.6261,0.6261,0.6261,0.6261,0.6257,0.6227,0.6152,0.5945,0.5776,0.5711,0.5562,0.5498,0.5557,0.5617,0.5815,0.6001,0.5928,0.5833,0.5718,0.5365,0.5091,0.4842,0.4629,0.4508,0.4287,0.4063,0.3982,0.3708,0.3517,0.3433,0.3268,0.3078,0.299,0.2982,0.3003,0.3012,0.2992,0.308,0.323,0.3436,0.3429,0.3263,0.3333,0.3721,0.413,0.4413,0.4613,0.4753,0.4893,0.4985,0.4985,0.4937,0.4845,0.4845,0.4849,0.4893,0.5029,0.5198,0.5328,0.5463,0.5588,0.5669,0.5755,0.5754,0.5789,0.5813,0.5831,0.5868,0.5821,0.5733,0.6086,0.6443,0.6641,0.6859,0.7271,0.7859,0.8542,0.9076,0.9449,0.9738,0.9982,0.7408,0.7408,0.7408,0.7503,0.7591,0.7323,0.7179,0.7146,0.7028,0.6774,0.6535,0.6486,0.6563,0.6714,0.6714,0.6714,0.6865,0.6945,0.7022,0.7022,0.7022,0.7022,0.7022,0.6942,0.6865,0.6865,0.6788,0.671,0.6714,0.6563,0.649,0.6412,0.6338,0.6261,0.6261,0.6261,0.6261,0.6261,0.6257,0.6257,0.6235,0.6074,0.5878,0.5856,0.5758,0.5624,0.5686,0.5818,0.5943,0.611,0.6096,0.5994,0.5803,0.5593,0.5301,0.499,0.4732,0.4576,0.4405,0.42,0.4117,0.3988,0.3721,0.3602,0.3543,0.3429,0.3286,0.3219,0.3173,0.3126,0.318,0.3265,0.3448,0.3616,0.3616,0.3498,0.3703,0.4077,0.4179,0.4467,0.4701,0.4833,0.4951,0.4985,0.4985,0.4985,0.4985,0.4985,0.4985,0.5029,0.5072,0.5198,0.5285,0.5415,0.5501,0.5583,0.5669,0.5755,0.5802,0.5789,0.5913,0.5923,0.5914,0.59,0.6178,0.6456,0.6747,0.7055,0.7427,0.7802,0.8278,0.8768,0.9174,0.9475,0.9712,0.7856,0.7944,0.7944,0.7856,0.7856,0.7661,0.7494,0.7386,0.736,0.7163,0.6865,0.6865,0.6865,0.6865,0.6865,0.6942,0.7019,0.7103,0.718,0.718,0.718,0.718,0.718,0.7099,0.7019,0.6942,0.6942,0.6868,0.6865,0.6791,0.6714,0.6641,0.649,0.6412,0.6412,0.6335,0.6335,0.6261,0.6261,0.6335,0.635,0.6194,0.6126,0.6001,0.5953,0.5855,0.5954,0.6017,0.6148,0.621,0.6264,0.6117,0.5948,0.5767,0.5482,0.5177,0.4857,0.4673,0.4535,0.4381,0.429,0.4199,0.4111,0.3949,0.3837,0.371,0.3627,0.3512,0.347,0.3428,0.3437,0.3584,0.3681,0.383,0.3915,0.3999,0.4241,0.4367,0.4395,0.4554,0.4803,0.4955,0.5021,0.5046,0.5046,0.4985,0.4985,0.4985,0.4985,0.4985,0.5072,0.5149,0.5236,0.5323,0.541,0.5496,0.5588,0.5717,0.5755,0.5797,0.5899,0.602,0.6086,0.613,0.623,0.6481,0.6894,0.7265,0.7612,0.7966,0.8274,0.8537,0.894,0.9244,0.9502,0.7944,0.7944,0.7944,0.794,0.8097,0.8076,0.7808,0.7454,0.7245,0.7055,0.6865,0.6865,0.7022,0.7103,0.7103,0.7173,0.7249,0.7403,0.7407,0.7407,0.7411,0.7407,0.7407,0.7326,0.733,0.7253,0.7176,0.7103,0.7026,0.7022,0.6865,0.6788,0.6718,0.6641,0.6486,0.6405,0.6331,0.6335,0.6335,0.6412,0.6416,0.6271,0.6299,0.6227,0.6082,0.607,0.6152,0.6152,0.6218,0.6354,0.6354,0.625,0.5933,0.5816,0.5612,0.5127,0.4853,0.4684,0.4622,0.4532,0.4392,0.4385,0.4334,0.4199,0.4025,0.3968,0.3978,0.3893,0.3872,0.384,0.3788,0.386,0.3925,0.395,0.4088,0.4283,0.4511,0.4541,0.4549,0.5004,0.5216,0.5176,0.5231,0.5169,0.5155,0.5046,0.4985,0.4985,0.4985,0.4985,0.5029,0.5111,0.5154,0.5198,0.5366,0.5491,0.5588,0.5674,0.5717,0.5755,0.5845,0.5944,0.6174,0.6358,0.6421,0.6747,0.7137,0.7459,0.7706,0.8009,0.8302,0.8487,0.872,0.9052,0.9306,0.8146,0.8204,0.8208,0.8169,0.8241,0.8102,0.7851,0.7585,0.74,0.7257,0.718,0.7173,0.7176,0.7257,0.7334,0.7407,0.748,0.748,0.748,0.748,0.7557,0.748,0.748,0.748,0.748,0.7484,0.7411,0.7334,0.7257,0.7103,0.7022,0.7022,0.6945,0.6865,0.671,0.6633,0.656,0.6563,0.649,0.6567,0.654,0.6466,0.6492,0.6407,0.6234,0.6254,0.6288,0.6284,0.635,0.642,0.642,0.6294,0.5986,0.5872,0.5564,0.5171,0.5014,0.4798,0.4688,0.4629,0.457,0.4519,0.4515,0.4372,0.4341,0.4298,0.434,0.4323,0.4259,0.4216,0.4176,0.4079,0.4098,0.4059,0.4291,0.4519,0.4573,0.4617,0.5,0.5486,0.5613,0.5499,0.5448,0.5363,0.5264,0.516,0.5056,0.4985,0.4985,0.4985,0.5029,0.5072,0.5072,0.5116,0.5285,0.5448,0.5545,0.5636,0.568,0.5761,0.5798,0.5879,0.6076,0.6325,0.6565,0.6895,0.7227,0.7515,0.7755,0.808,0.8388,0.8694,0.8899,0.9055,0.9237,0.8365,0.8511,0.8524,0.8394,0.8215,0.791,0.7764,0.7736,0.7724,0.7642,0.75,0.748,0.7484,0.7484,0.7484,0.7484,0.7561,0.7561,0.7638,0.7557,0.7638,0.7638,0.7561,0.7557,0.7561,0.7557,0.748,0.7407,0.7407,0.733,0.718,0.7184,0.7099,0.6942,0.6945,0.6868,0.6868,0.6791,0.6795,0.6795,0.6751,0.6776,0.6838,0.667,0.663,0.6611,0.6473,0.642,0.642,0.642,0.6396,0.6319,0.6059,0.5807,0.5449,0.5254,0.5077,0.4963,0.4798,0.4743,0.4632,0.4574,0.4515,0.4519,0.448,0.4575,0.4629,0.4657,0.4578,0.4507,0.4482,0.4423,0.4433,0.44,0.4488,0.4692,0.4772,0.4895,0.5304,0.576,0.5883,0.5779,0.5646,0.5561,0.5415,0.5292,0.5174,0.5065,0.499,0.499,0.5029,0.5029,0.5029,0.5072,0.5246,0.5415,0.5501,0.5593,0.568,0.5723,0.5717,0.5841,0.5927,0.6222,0.6523,0.6897,0.7231,0.7514,0.7818,0.8146,0.8492,0.8922,0.9121,0.9201,0.9223,0.8105,0.8146,0.8146,0.8044,0.789,0.7797,0.7679,0.7553,0.7549,0.7529,0.7488,0.748,0.748,0.7557,0.7557,0.7561,0.7718,0.7718,0.7795,0.7872,0.7868,0.7795,0.7723,0.7723,0.7642,0.7561,0.748,0.7557,0.748,0.7407,0.7411,0.7407,0.7326,0.7253,0.7103,0.7103,0.7099,0.7019,0.7022,0.7026,0.708,0.6934,0.6911,0.6817,0.6786,0.6619,0.6493,0.642,0.642,0.642,0.642,0.6254,0.5961,0.5738,0.5482,0.5278,0.5195,0.5073,0.4963,0.4849,0.4688,0.4632,0.4591,0.4604,0.4636,0.4782,0.4891,0.4914,0.4862,0.4842,0.4782,0.4777,0.4765,0.47,0.4667,0.4791,0.4912,0.5242,0.5626,0.5851,0.6056,0.6001,0.5812,0.5722,0.5576,0.5443,0.5311,0.5188,0.5051,0.5004,0.499,0.5029,0.5029,0.5072,0.5246,0.5371,0.5501,0.5593,0.568,0.5723,0.5723,0.5804,0.5884,0.6142,0.6428,0.6774,0.7076,0.7474,0.7799,0.8166,0.8624,0.9026,0.9178,0.9269,0.9297,0.7943,0.8,0.7931,0.7849,0.7836,0.7675,0.7577,0.7496,0.748,0.7561,0.7638,0.7561,0.7561,0.7638,0.7642,0.7714,0.7876,0.7957,0.7953,0.8025,0.8102,0.803,0.7953,0.7957,0.7876,0.7791,0.7638,0.7638,0.7557,0.748,0.748,0.748,0.7484,0.7407,0.7334,0.7334,0.7253,0.7173,0.7257,0.7334,0.7334,0.7215,0.7106,0.7005,0.6842,0.6668,0.6497,0.642,0.642,0.642,0.642,0.6294,0.6059,0.5856,0.5665,0.545,0.5302,0.5128,0.5073,0.4959,0.4798,0.4743,0.4739,0.4745,0.472,0.4865,0.5012,0.5051,0.5125,0.5127,0.5019,0.4957,0.4892,0.4852,0.4711,0.473,0.4971,0.5301,0.5686,0.605,0.6117,0.604,0.5962,0.5887,0.575,0.5656,0.5519,0.5316,0.5219,0.5067,0.5048,0.5038,0.5043,0.512,0.5246,0.5371,0.5496,0.5588,0.5723,0.5723,0.5723,0.5761,0.5841,0.605,0.6264,0.652,0.6859,0.7286,0.7753,0.8131,0.8641,0.9143,0.9252,0.936,0.944,0.7805,0.7914,0.7784,0.7724,0.7699,0.7561,0.7484,0.748,0.7561,0.7642,0.7799,0.7642,0.7718,0.7799,0.7876,0.7949,0.8102,0.8102,0.8178,0.8178,0.8255,0.8178,0.8178,0.8178,0.8102,0.8025,0.7872,0.7791,0.7638,0.7638,0.7561,0.7557,0.748,0.748,0.748,0.748,0.748,0.7403,0.7484,0.748,0.748,0.7472,0.7273,0.7098,0.6936,0.6773,0.6562,0.6432,0.6432,0.642,0.6412,0.6294,0.6136,0.6002,0.5766,0.56,0.5369,0.5262,0.5128,0.5073,0.4963,0.4853,0.4901,0.4864,0.4845,0.4923,0.5072,0.5209,0.5352,0.5391,0.5215,0.5133,0.5067,0.4961,0.4845,0.4797,0.5068,0.5389,0.5821,0.6201,0.6128,0.6069,0.6044,0.5976,0.5935,0.584,0.5694,0.5534,0.5338,0.5172,0.5071,0.5111,0.5115,0.5189,0.5295,0.5415,0.5496,0.5631,0.5723,0.5723,0.5723,0.5717,0.5755,0.5836,0.6087,0.6349,0.6732,0.7154,0.7579,0.8002,0.8513,0.9004,0.9334,0.9422,0.96,0.7553,0.7581,0.7549,0.7537,0.7533,0.7496,0.748,0.7557,0.7642,0.7799,0.7876,0.7949,0.8025,0.803,0.8025,0.8178,0.8327,0.8327,0.8475,0.8551,0.8479,0.8479,0.8403,0.8327,0.8255,0.8178,0.8102,0.8025,0.7872,0.7795,0.7723,0.7723,0.7561,0.7557,0.748,0.748,0.7557,0.748,0.748,0.748,0.748,0.7447,0.737,0.72,0.7025,0.6851,0.6664,0.6497,0.6444,0.642,0.6412,0.6319,0.6189,0.608,0.5839,0.5669,0.549,0.5333,0.5258,0.5187,0.5077,0.5018,0.5014,0.4959,0.496,0.5039,0.5181,0.5358,0.549,0.5513,0.5455,0.538,0.5277,0.5095,0.4996,0.5089,0.5323,0.568,0.6039,0.611,0.6009,0.6055,0.6082,0.604,0.6072,0.5977,0.5986,0.5784,0.5664,0.5399,0.5183,0.5154,0.5252,0.5237,0.5246,0.541,0.5539,0.5631,0.568,0.568,0.568,0.5723,0.5761,0.575,0.5964,0.627,0.6647,0.6943,0.7363,0.7787,0.8357,0.8852,0.9191,0.9503,0.969]}]]